     2              OBSERVATION DATA    GPS                 RINEX VERSION / TYPE
ASRINEXO V2.8.2 VM                                          PGM / RUN BY / DATE
                                                            COMMENT
BIT 2 OF LLI (+4) FLAGS DATA COLLECTED UNDER "AS" CONDITION COMMENT
Original Marker Name: 0803                                  COMMENT
Campaign Name: hpgn california 1991                         COMMENT
4-Character Station Name: 0803                              COMMENT
6-Character Antenna Code: ASHL12                            COMMENT
Vertical Measurement Point: BAS                             COMMENT
Vertical Offset to Rinex Ref. Point: 0.0000                 COMMENT
Radial Measurement Point: RRP                               COMMENT
Radial Offset to Rinex Ref. Point: 0.0000                   COMMENT
Antenna Height from Field Measurement: 2.2200 m             COMMENT
Additional Antenna Identification Info.:                    COMMENT
Original Ashtech L1/L2                                      COMMENT
Original XYZ: 6378137.0000 0.0000 0.0000                    COMMENT
New XYZ position is based on association with SCEC monument COMMENT
E1F2W5K9+0011. Position of that monument is believed to be  COMMENT
valid to within 1 m horizontally; vertical accuracy         COMMENT
should be no worse than 3-times this value.                 COMMENT
                                                            COMMENT
Revised Rinex header created by UCSD GPS archive for        COMMENT
GSAC on 19-Apr-1999 (1999:109) 04:49:23 GMT                 COMMENT
For assistance contact dagnew@ucsd.edu or hjohnson@ucsd.edu COMMENT
                                                            COMMENT
HPGN CA 08 03                                               MARKER NAME
JHB CALIF DEPT TRANSPORTATION                               OBSERVER / AGENCY
587 ASHTECH L-XII3 6A                                       REC # / TYPE / VERS
619 ASHTECH GEODETIC L                                      ANT # / TYPE
 -2324976.0000 -4680640.0000  3644686.0000                  APPROX POSITION XYZ
        2.2200        0.0000        0.0000                  ANTENNA: DELTA H/E/N
     1     2     0                                          WAVELENGTH FACT L1/2
     3    C1    L1    L2                                    # / TYPES OF OBSERV
     0                                                      INTERVAL
  1991     8     1     0    11   15.000000                  TIME OF FIRST OBS
  1991     8     1     6    12    0.000000                  TIME OF LAST OBS
     0                                                      # OF SATELLITES
                                                            END OF HEADER
 91  8  1  0 11 15.0000000  0  3 03 16 17
  28735389.805           0.993 4         0.184 2
  29996364.247           0.298 3         0.142 2
  29209396.753           0.895 3         0.330 2
 91  8  1  0 11 30.0000000  0  3 03 16 17
  28732847.256      -13362.007 4    -10412.536 2
  30004949.405       45125.686 3     35162.757 2
  29206900.691      -13108.966 3    -10215.125 2
 91  8  1  0 11 45.0000000  0  3 03 16 17
  24533194.425         140.755 4       108.900 2
  25816449.148       -1210.868 3      -943.722 2
  25007295.517         137.290 3       106.435 2
 91  8  1  0 12  0.0000000  0  3 03 16 17
  24530641.685      -13281.086 4    -10349.655 2
  25825034.603       43918.703 3     34222.156 2
  25004790.451      -13027.307 3    -10151.663 2
 91  8  1  0 12 15.0000000  0  4 03 20 16 17
  28725185.162        -257.368 4      -201.354 2
  30359851.515           0.134 3         0.277 1
  30030720.166         291.781 3       227.173 2
  29199387.587        -250.008 3      -195.359 2
 91  8  1  0 12 30.0000000  0  4 03 20 16 17
  28722645.929      -13611.373 4    -10607.062 2
  30370558.602       56258.600 3     43837.939 2
  30039332.599       45549.881 3     35493.208 2
  29196897.511      -13343.929 3    -10398.384 2
 91  8  1  0 12 45.0000000  0  4 03 20 16 17
  20925506.082        -194.923 4      -152.540 2
  22586687.569         251.450 3       195.874 2
  22253369.005         568.488 3       442.587 2
  21399805.617        -183.942 3      -144.036 2
 91  8  1  0 13  0.0000000  0  4 03 20 16 17
  20922989.917      -13416.442 4    -10455.000 2
  22597420.430       56644.626 3     44138.543 1
  22262016.827       46017.600 3     35857.465 2
  21397338.628      -13143.412 3    -10242.293 2
 91  8  1  0 13 15.0000000  0  4 03 20 16 17
  20920483.350      -26589.986 4    -20720.084 2
  22608158.701      113085.953 3     88118.715 2
  22270682.030       91542.963 3     71331.747 1
  21394884.237      -26054.484 3    -20302.846 2
 91  8  1  0 13 30.0000000  0  4 03 20 16 17
  20917990.273      -39685.606 4    -30924.457 2
  22618915.853      169604.419 3    132159.008 2
  22279364.612      137173.609 3    106888.083 1
  21392441.224      -38887.971 3    -30302.931 2
 91  8  1  0 13 45.0000000  0  4 03 20 16 17
  20915513.389      -52700.464 4    -41065.892 2
  22629684.993      226202.645 3    176261.440 1
  22288069.392      182912.316 3    142528.613 2
  21390016.202      -51640.760 3    -40240.149 2
 91  8  1  0 14  0.0000000  0  4 03 20 16 17
  20913052.088      -65629.702 4    -51140.611 2
  22640471.234      282884.857 3    220429.318 1
  22296798.148      228763.324 3    178256.644 2
  21387603.762      -64308.232 3    -50110.877 2
 91  8  1  0 14 15.0000000  0  4 03 20 16 17
  20910608.778      -78478.942 4    -61152.991 2
  22651273.058      339644.582 3    264657.606 1
  22305541.003      274720.310 3    214067.266 2
  21385206.922      -76896.528 3    -59919.910 2
 91  8  1  0 14 30.0000000  0  4 03 20 16 17
  20908178.661      -91257.881 4    -71110.593 2
  22662086.557      396471.363 3    308938.119 2
  22314303.037      320772.913 3    249952.400 2
  21382823.571      -89415.792 3    -69675.155 2
 91  8  1  0 14 45.0000000  0  4 03 20 16 17
  20905759.939     -103963.824 4    -81011.315 2
  22672912.375      453367.356 3    353272.600 2
  22323085.452      366923.352 3    285913.766 2
  21380456.414     -101863.373 3    -79374.543 2
 91  8  1  0 15  0.0000000  0  4 03 20 16 17
  20903353.815     -116605.485 4    -90861.946 2
  22683752.573      510323.620 3    397654.027 2
  22331881.653      413162.619 3    321944.332 2
  21378101.246     -114248.174 3    -89025.014 2
 91  8  1  0 15 15.0000000  0  4 03 20 16 17
  20900963.868     -129172.320 4   -100654.277 2
  22694605.352      567349.811 3    442089.950 1
  22340701.552      459500.246 3    358051.560 2
  21375759.566     -126559.984 3    -98618.613 2
 91  8  1  0 15 30.0000000  0  4 03 20 16 17
  20898585.002     -141651.268 4   -110378.118 2
  22705468.933      624458.095 3    486589.828 1
  22349539.738      505949.005 3    394245.379 2
  21373431.079     -138786.107 3   -108145.432 2
 91  8  1  0 15 45.0000000  0  4 03 20 16 17
  20896228.036     -154055.248 4   -120043.537 2
  22716350.190      681634.911 3    531143.104 1
  22358400.104      552495.621 3    430515.438 2
  21371119.675     -150939.959 3   -117615.933 2
 91  8  1  0 16  0.0000000  0  4 03 20 16 17
  20893883.059     -166379.899 4   -129647.150 2
  22727246.159      738884.154 3    575752.847 1
  22367275.755      599143.584 3    466864.486 2
  21368820.278     -163017.238 3   -127026.779 2
 91  8  1  0 16 15.0000000  0  4 03 20 16 17
  20891551.884     -178625.584 4   -139189.234 2
  22738153.504      796204.912 3    620418.280 1
  22376170.603      645892.051 3    503291.839 2
  21366534.962     -175018.507 3   -136378.387 2
 91  8  1  0 16 30.0000000  0  4 03 20 16 17
  20889234.792     -190802.814 4   -148677.966 2
  22749073.153      853585.972 3    665130.716 2
  22385078.625      692729.537 3    539788.567 2
  21364262.822     -186954.600 3   -145679.214 2
 91  8  1  0 16 45.0000000  0  5 03 20 23 16 17
  20886928.187     -202916.846 4   -158117.459 2
  22760005.068      911021.090 3    709885.268 1
  23841399.040           0.462 2         0.120 1
  22394014.550      739650.218 3    576350.114 2
  21362006.596     -198831.471 3   -154933.889 2
 91  8  1  0 17  0.0000000  0  5 03 20 23 16 17
  20884637.166     -214965.850 4   -167506.276 2
  22770944.505      968511.561 3    754682.973 1
  23833227.295      -42923.617 2    -33446.977 1
  22402957.647      786655.470 3    612977.553 2
  21359756.355     -210647.271 3   -164140.988 2
 91  8  1  0 17 15.0000000  0  5 03 20 23 16 17
  20882356.946     -226942.528 4   -176838.744 2
  22781898.914     1026064.413 3    799529.270 1
  23825066.352      -85797.190 2    -66854.736 1
  22411921.143      833752.571 3    649676.569 2
  21357519.901     -222394.913 3   -173294.968 2
 91  8  1  0 17 30.0000000  0  5 03 20 23 16 17
  20880093.216     -238851.838 4   -186118.718 2
  22792857.232     1083673.654 3    844419.505 1
  23816910.190     -128625.484 2   -100227.311 1
  22420896.645      880935.475 3    686442.462 1
  21355297.842     -234079.824 3   -182400.067 2
 91  8  1  0 17 45.0000000  0  5 03 20 23 16 17
  20877839.381     -250698.090 4   -195349.543 2
  22803829.336     1141334.220 3    889349.750 1
  23808775.928     -171412.859 2   -133567.898 1
  22429889.213      928199.303 3    723271.394 2
  21353084.474     -245706.715 3   -191459.948 2
 91  8  1  0 18  0.0000000  0  5 03 20 23 16 17
  20875596.626     -262475.026 4   -204526.360 2
  22814814.632     1199051.858 3    934324.453 1
  23800635.960     -214153.038 2   -166871.781 1
  22438904.572      975549.592 3    760167.682 2
  21350884.298     -257269.708 3   -200470.050 2
 91  8  1  0 18 15.0000000  0  5 03 20 23 16 17
  20873366.175     -274186.574 4   -213652.227 2
  22825803.819     1256822.285 3    979340.270 1
  23792509.481     -256849.784 2   -200141.800 1
  22447927.730     1022982.219 3    797128.156 2
  21348693.703     -268772.488 3   -209433.231 2
 91  8  1  0 18 30.0000000  0  5 03 20 23 16 17
  20871150.398     -285836.304 4   -222729.933 3
  22836808.310     1314641.213 3   1024393.913 2
  23784390.802     -299506.855 2   -233380.871 1
  22456972.161     1070493.147 3    834149.637 1
  21346518.114     -280219.335 3   -218352.821 2
 91  8  1  0 18 45.0000000  0  5 03 20 23 16 17
  20868946.034     -297415.954 4   -231753.022 2
  22847822.382     1372516.001 3   1069491.069 1
  23776281.721     -342116.035 2   -266582.652
  22466026.485     1118089.474 3    871237.654 2
  21344350.919     -291602.146 3   -227222.516 2
 91  8  1  0 19  0.0000000  0  5 03 20 23 16 17
  20866758.440     -308927.625 4   -240723.144 2
  22858847.552     1430444.038 3   1114629.758 1
  23768190.020     -384679.427 2   -299748.744 1
  22475102.117     1165768.547 3    908390.152 2
  21342194.805     -302923.401 3   -236044.249 2
 91  8  1  0 19 15.0000000  0  5 03 20 23 16 17
  20864576.256     -320372.007 4   -249640.824 3
  22869881.115     1488424.002 3   1159808.846 1
  23760105.229     -427197.663 2   -332879.688 1
  22484189.422     1213529.554 3    945606.494 1
  21340051.587     -314183.931 3   -244818.658 2
 91  8  1  0 19 30.0000000  0  5 03 20 23 16 17
  20862415.046     -331745.294 4   -258503.114 3
  22880922.775     1546459.106 3   1205030.907 1
  23752006.025     -469666.833 2   -365972.405 1
  22493292.014     1261375.562 3    982889.069 2
  21337920.671     -325380.313 3   -253543.078 2
 91  8  1  0 19 45.0000000  0  5 03 20 23 16 17
  20860260.450     -343054.609 4   -267315.565 2
  22891975.813     1604541.270 2   1250289.654 1
  23743941.913     -512094.494 2   -399032.697 1
  22502412.597     1309298.757 3   1020231.787 2
  21335799.929     -336520.015 3   -262223.343 2
 91  8  1  0 20  0.0000000  0  5 03 20 23 16 17
  20858120.827     -354301.109 4   -276079.058 2
  22903039.355     1662668.965 3   1295583.884 1
  23735870.890     -554481.488 2   -432061.356 1
  22511545.780     1357297.743 3   1057633.592 2
  21333689.395     -347604.498 3   -270860.583 2
 91  8  1  0 20 15.0000000  0  5 03 20 23 16 17
  20855993.488     -365483.845 4   -284792.876 2
  22914108.290     1720842.450 3   1340913.773 2
  23727824.176     -596826.889 2   -465057.574 1
  22520695.156     1405372.697 3   1095094.552 2
  21331593.850     -358633.021 3   -279454.209 2
 91  8  1  0 20 30.0000000  0  5 03 20 23 16 17
  20853879.063     -376598.913 4   -293453.946 2
  22925185.025     1779064.798 2   1386281.787 1
  23719763.048     -639126.862 2   -498018.417 1
  22529859.801     1453526.656 3   1132617.085 1
  21329505.792     -369602.113 3   -288001.525 2
 91  8  1  0 20 45.0000000  0  5 03 20 23 16 17
  20851776.608     -387651.272 4   -302066.161 2
  22936273.452     1837330.495 2   1431683.522 1
  23711736.402     -681386.394 2   -530947.762 1
  22539034.951     1501754.094 3   1170196.887 1
  21327431.223     -380517.107 3   -296506.690 2
 91  8  1  0 21  0.0000000  0  5 03 20 23 16 17
  20849683.472     -398637.452 4   -310626.816 2
  22947373.256     1895642.299 2   1477121.211 1
  23703690.577     -723602.371 2   -563843.171 1
  22548227.481     1550057.928 3   1207836.209 2
  21325365.658     -391375.108 3   -304967.447 2
 91  8  1  0 21 15.0000000  0  5 03 20 23 16 17
  20847605.308     -409554.530 4   -319133.626 2
  22958476.970     1954002.925 2   1522596.926 1
  23695668.136     -765771.231 2   -596701.870 1
  22557430.813     1598441.009 3   1245537.289 1
  21323309.674     -402172.683 3   -313381.109 2
 91  8  1  0 21 30.0000000  0  5 03 20 23 16 17
  20845541.837     -420404.101 4   -327587.821 2
  22969592.689     2012409.573 2   1568108.519 1
  23687642.694     -807895.282 2   -629525.619 1
  22566656.621     1646900.555 3   1283297.945 2
  21321265.991     -412912.387 3   -321749.685 2
 91  8  1  0 21 45.0000000  0  5 03 20 23 16 17
  20843489.151     -431191.625 4   -335993.668 2
  22980716.784     2070856.309 2   1613651.340 1
  23679640.024     -849979.616 2   -662318.424 1
  22575893.841     1695430.691 3   1321113.609 2
  21319231.907     -423599.681 3   -330077.421 2
 91  8  1  0 22  0.0000000  0  5 03 20 23 16 17
  20841448.767     -441910.226 4   -344345.820 3
  22991841.175     2129349.324 2   1659230.240 2
  23671643.654     -892017.403 2   -695074.978 1
  22585143.033     1744037.687 3   1358989.169 2
  21317210.700     -434228.023 3   -338359.227 2
 91  8  1  0 22 15.0000000  0  5 03 20 23 16 17
  20839422.168     -452562.818 4   -352646.527 2
  23002984.465     2187885.209 2   1704842.516 1
  23663646.097     -934011.637 2   -727797.612 1
  22594403.322     1792717.914 3   1396921.784 2
  21315196.090     -444800.697 3   -346597.644 2
 91  8  1  0 22 30.0000000  0  5 03 20 23 16 17
  20837409.669     -463146.123 4   -360893.249 2
  23014131.350     2246466.280 2   1750490.033 1
  23655666.217     -975959.097 2   -760483.783 1
  22603679.806     1841474.159 3   1434913.652 2
  21313196.173     -455314.722 3   -354790.369 2
 91  8  1  0 22 45.0000000  0  5 03 20 23 16 17
  20835408.845     -473666.164 4   -369090.673 2
  23025287.833     2305086.014 2   1796167.654 1
  23647696.545    -1017865.868 2   -793138.218 1
  22612975.170     1890300.067 3   1472959.777 2
  21311203.463     -465776.424 3   -362942.325 2
 91  8  1  0 23  0.0000000  0  5 03 20 23 16 17
  20833417.025     -484124.965 4   -377240.374 3
  23036446.392     2363741.769 2   1841873.335 1
  23639717.556    -1059733.995 2   -825762.600 1
  22622274.129     1939192.825 3   1511057.999 1
  21309223.038     -476188.189 3   -371055.363 2
 91  8  1  0 23 15.0000000  0  5 03 20 23 16 17
  20831440.787     -494516.574 4   -385337.722 2
  23047619.365     2422438.679 2   1887611.113 1
  23631769.767    -1101557.648 2   -858352.274 1
  22631595.565     1988157.807 3   1549212.507 2
  21307252.193     -486544.590 3   -379125.259 2
 91  8  1  0 23 30.0000000  0  5 03 20 23 16 17
  20829476.853     -504839.047 4   -393381.209 3
  23058793.525     2481178.511 2   1933382.316 1
  23623819.570    -1143334.577 2   -890905.585 1
  22640926.615     2037196.763 3   1587424.659 2
  21305293.650     -496843.371 3   -387150.260 2
 91  8  1  0 23 45.0000000  0  5 03 20 23 16 17
  20827521.905     -515096.363 4   -401373.922 4
  23069980.284     2539956.239 2   1979183.052 1
  23615878.063    -1185069.058 2   -923425.829 1
  22650272.934     2086304.598 3   1625690.474 2
  21303345.002     -507089.131 3   -395133.948 3
 91  8  1  0 24  0.0000000  0  5 03 20 23 16 17
  20825584.651     -525291.198 4   -409317.925 1
  23081176.937     2598768.632 2   2025010.778 1
  23607946.450    -1226763.780 2   -955915.038 1
  22659629.165     2135478.040 3   1664007.414 2
  21301402.042     -517284.868 3   -403078.646 1
 91  8  1  0 24 15.0000000  0  5 03 20 23 16 17
  20823654.884     -535417.092 4   -417208.222 3
  23092370.292     2657621.452 2   2070870.046 1
  23600014.244    -1268412.373 2   -988368.338 1
  22669003.073     2184723.007 3   1702380.095 2
  21299473.479     -527424.482 3   -410979.632 2
 91  8  1  0 24 30.0000000  0  5 03 20 23 16 17
  20821741.014     -545477.944 4   -425047.839 3
  23103573.523     2716510.140 2   2116757.233 1
  23592092.229    -1310018.406 2  -1020788.502 1
  22678382.076     2234035.362 3   1740805.269 2
  21297552.419     -537512.127 3   -418840.106 3
 91  8  1  0 24 45.0000000  0  5 03 20 23 16 17
  20819839.132     -555470.278 4   -432834.065 3
  23114788.464     2775437.541 2   2162674.580 1
  23584199.897    -1351578.511 2  -1053172.806 1
  22687780.868     2283417.800 3   1779285.070 1
  21295644.238     -547544.413 3   -426657.457 2
 91  8  1  0 25  0.0000000  0  5 03 20 23 16 17
  20817950.740     -565397.348 4   -440569.437 2
  23126011.799     2834399.540 2   2208618.892 1
  23576301.562    -1393096.357 2  -1085524.239 1
  22697188.071     2332866.063 3   1817816.162 2
  21293747.138     -557525.192 3   -434434.662 2
 91  8  1  0 25 15.0000000  0  5 03 20 23 16 17
  20816075.225     -575256.419 4   -448251.820 2
  23137240.822     2893398.660 2   2254592.127 2
  23568390.942    -1434568.905 2  -1117840.361 1
  22706612.341     2382382.908 3   1856400.688 2
  21291858.745     -567451.734 3   -442169.623 2
 91  8  1  0 25 30.0000000  0  5 03 20 23 16 17
  20814212.327     -585049.063 4   -455882.442 2
  23148472.550     2952432.421 2   2300592.377 1
  23560514.193    -1475997.860 2  -1150122.510 1
  22716051.006     2431965.983 3   1895036.813 1
  21289979.356     -577326.257 3   -449864.020 2
 91  8  1  0 25 45.0000000  0  5 03 20 23 16 17
  20812358.695     -594777.150 4   -463462.760 3
  23159715.359     3011498.424 2   2346617.730 2
  23552634.443    -1517385.008 2  -1182372.074 1
  22725498.066     2481612.794 3   1933722.622 2
  21288110.752     -587150.845 3   -457519.525 3
 91  8  1  0 26  0.0000000  0  5 03 20 23 16 17
  20810521.274     -604437.917 4   -470990.625 2
  23170954.590     3070598.491 2   2392669.639 1
  23544778.390    -1558727.981 2  -1214587.267 1
  22734955.909     2531325.183 3   1972459.529 1
  21286250.541     -596923.224 3   -465134.353 2
 91  8  1  0 26 15.0000000  0  5 03 20 23 16 17
  20808695.842     -614030.001 4   -478464.966 2
  23182207.590     3129733.335 2   2438748.624 1
  23536906.439    -1600025.450 2  -1246766.974 1
  22744428.760     2581104.213 3   2011248.354 2
  21284403.209     -606642.305 3   -472707.641 2
 91  8  1  0 26 30.0000000  0  5 03 20 23 16 17
  20806882.101     -623558.561 4   -485889.810 2
  23193468.704     3188897.521 2   2484850.479 1
  23529065.673    -1641281.962 2  -1278914.758 1
  22753911.801     2630944.488 3   2050084.907 2
  21282560.693     -616313.086 3   -480243.293 2
 91  8  1  0 26 45.0000000  0  5 03 20 23 16 17
  20805084.834     -633021.471 4   -493263.497 2
  23204732.505     3248092.225 2   2530976.130 1
  23521219.200    -1682495.895 2  -1311029.348 1
  22763406.221     2680847.086 3   2088970.002 2
  21280728.664     -625933.845 3   -487739.969 3
 91  8  1  0 27  0.0000000  0  5 03 20 23 16 17
  20803294.180     -642418.903 4   -500586.164 2
  23216002.903     3307316.449 2   2577124.757 1
  23513387.420    -1723667.664 2  -1343111.093 1
  22772916.834     2730811.027 3   2127902.933 1
  21278909.514     -635505.425 3   -495198.329 2
 91  8  1  0 27 15.0000000  0  5 03 20 23 16 17
  20801518.515     -651746.266 4   -507854.236 3
  23227281.991     3366574.354 2   2623299.636 1
  23505555.937    -1764792.392 2  -1375156.215 1
  22782440.046     2780840.868 3   2166887.187 2
  21277096.070     -645023.225 3   -502614.771 2
 91  8  1  0 27 30.0000000  0  5 03 20 23 16 17
  20799756.026     -661006.840 4   -515070.258 2
  23238564.080     3425862.306 2   2669497.934 1
  23497746.057    -1805873.149 2  -1407167.060 1
  22791968.946     2830932.602 3   2205919.686 1
  21275293.724     -654490.722 3   -509992.025 2
 91  8  1  0 27 45.0000000  0  5 03 20 23 16 17
  20798006.746     -670203.123 4   -522236.188 3
  23249851.858     3485176.690 2   2715716.819 1
  23489931.954    -1846912.949 2  -1439145.978 1
  22801512.837     2881083.006 3   2244997.883 1
  21273500.365     -663911.297 3   -517332.718 2
 91  8  1  0 28  0.0000000  0  5 03 20 23 16 17
  20796271.549     -679329.320 4   -529347.498 2
  23261151.642     3544522.580 2   2761960.254 1
  23482127.763    -1887906.129 2  -1471088.558 1
  22811073.515     2931297.084 3   2284125.707 2
  21271717.791     -673279.456 3   -524632.569 2
 91  8  1  0 28 15.0000000  0  5 03 20 23 16 17
  20794545.635     -688387.345 4   -536405.683 2
  23272447.517     3603898.043 2   2808226.747 1
  23474346.955    -1928853.962 2  -1502995.816 2
  22820638.694     2981572.748 3   2323301.530 1
  21269946.018     -682596.807 3   -531892.825 2
 91  8  1  0 28 30.0000000  0  5 03 20 23 16 17
  20792836.822     -697375.006 4   -543409.062 2
  23283747.301     3663304.106 2   2854517.071 1
  23466554.735    -1969754.747 2  -1534866.408 1
  22830214.676     3031911.547 3   2362526.528 2
  21268182.935     -691861.949 3   -539112.391 2
 91  8  1  0 28 45.0000000  0  5 03 20 23 16 17
  20791141.499     -706295.687 4   -550360.231 2
  23295056.961     3722736.863 2   2900828.216 1
  23458782.914    -2010611.920 2  -1566703.040 1
  22839807.130     3082309.276 3   2401797.459 2
  21266429.153     -701078.404 3   -546294.031 3
 91  8  1  0 29  0.0000000  0  5 03 20 23 16 17
  20789453.365     -715150.514 4   -557260.083 2
  23306369.030     3782194.389 2   2947158.637 1
  23451012.908    -2051426.643 2  -1598506.570 1
  22849408.886     3132764.302 3   2441113.043 1
  21264682.561     -710247.396 3   -553438.684 2
 91  8  1  0 29 15.0000000  0  5 03 20 23 16 17
  20787783.815     -723931.938 4   -564102.736 3
  23317690.993     3841683.680 2   2993513.837 1
  23443262.062    -2092191.311 2  -1630271.106 1
  22859021.425     3183283.511 3   2480478.620 2
  21262950.068     -719361.820 3   -560540.817 2
 91  8  1  0 29 30.0000000  0  5 03 20 23 16 17
  20786124.474     -732644.446 4   -570891.697 2
  23329021.646     3901199.512 2   3039889.664 1
  23435506.138    -2132910.614 2  -1662000.266 1
  22868645.674     3233861.724 3   2519890.177 2
  21261224.765     -728426.651 3   -567604.300 2
 91  8  1  0 29 45.0000000  0  5 03 20 23 16 17
  20784478.308     -741291.452 4   -577629.618 3
  23340347.815     3960737.732 2   3086282.982 1
  23427766.687    -2173587.996 2  -1693696.785 1
  22878281.004     3284495.009 3   2559344.677 2
  21259508.449     -737445.583 3   -574632.021 3
 91  8  1  0 30  0.0000000  0  5 03 20 23 16 17
  20782847.428     -749869.217 4   -584313.585 2
  23351685.361     4020301.949 2   3132696.524 1
  23420033.850    -2214219.289 2  -1725357.381 1
  22887928.025     3335186.697 3   2598844.650 1
  21257801.731     -746414.831 3   -581621.034 3
 91  8  1  0 30 15.0000000  0  5 03 20 23 16 17
  20781226.460     -758376.574 4   -590942.677 2
  23363016.014     4079892.306 2   3179130.455 1
  23412307.592    -2254803.648 2  -1756981.430 1
  22897584.923     3385937.578 3   2638390.751 1
  21256102.812     -755333.875 3   -588570.915 3
 91  8  1  0 30 30.0000000  0  5 03 20 23 16 17
  20779620.760     -766816.154 4   -597518.952 2
  23374367.067     4139505.419 2   3225582.112 1
  23404594.229    -2295343.996 2  -1788571.190 1
  22907255.346     3436743.725 3   2677979.932 2
  21254416.476     -764205.786 3   -595484.072 2
 91  8  1  0 30 45.0000000  0  5 03 20 23 16 17
  20778030.365     -775185.887 4   -604040.815 2
  23385709.412     4199142.740 2   3272052.628 1
  23396887.480    -2335838.077 2  -1820124.851 1
  22916929.345     3487607.088 2   2717613.698 1
  21252735.845     -773028.351 3   -602358.784 2
 91  8  1  0 31  0.0000000  0  5 03 20 23 16 17
  20776449.567     -783491.525 4   -610512.733 2
  23397074.250     4258798.137 2   3318537.226 1
  23389191.201    -2376291.519 2  -1851646.877 1
  22926625.820     3538521.675 3   2757287.356 1
  21251064.202     -781807.608 3   -609199.750 3
 91  8  1  0 31 15.0000000  0  5 03 20 23 16 17
  20774881.054     -791730.885 4   -616933.003 2
  23408421.079     4318472.768 2   3365036.810 1
  23381500.628    -2416702.650 2  -1883135.933 1
  22936318.718     3589488.652 3   2797001.866 1
  21249403.046     -790542.262 3   -616005.962 3
 91  8  1  0 31 30.0000000  0  5 03 20 23 16 17
  20773325.123     -799898.009 4   -623296.985 2
  23419786.511     4378172.011 2   3411555.592 1
  23373818.746    -2457065.577 2  -1914587.405 1
  22946031.701     3640513.203 3   2836761.214 2
  21247749.690     -799226.405 3   -622772.809 2
 91  8  1  0 31 45.0000000  0  5 03 20 23 16 17
  20771788.091     -807990.373 4   -629602.711 2
  23431152.257     4437897.914 2   3458095.123 1
  23366146.758    -2497377.516 2  -1945999.139 1
  22955753.357     3691597.530 3   2876567.150 1
  21246108.619     -807857.615 3   -629498.410 2
 91  8  1  0 32  0.0000000  0  5 03 20 23 16 17
  20770260.045     -816009.613 4   -635851.458 2
  23442517.985     4497648.058 2   3504653.560 1
  23358489.463    -2537640.267 2  -1977372.592 1
  22965483.127     3742739.235 2   2916417.812 1
  21244475.348     -816438.257 3   -636184.606 3
 91  8  1  0 32 15.0000000  0  5 03 20 23 16 17
  20768750.601     -823956.904 4   -642044.144 2
  23453893.904     4557420.460 2   3551229.326 1
  23350835.448    -2577855.175 2  -2008708.756 1
  22975229.388     3793936.394 3   2956311.673 1
  21242849.878     -824969.737 3   -642832.501 3
 91  8  1  0 32 30.0000000  0  5 03 20 23 16 17
  20767248.033     -831835.254 4   -648183.112 2
  23465276.733     4617211.763 2   3597819.836 1
  23343192.846    -2618024.852 2  -2040009.651 1
  22984974.427     3845185.826 2   2996246.248 1
  21241237.897     -833454.815 3   -649444.238 2
 91  8  1  0 32 45.0000000  0  5 03 20 23 16 17
  20765763.455     -839644.374 4   -654268.130 2
  23476654.746     4677021.741 2   3644424.898 1
  23335559.824    -2658148.949 2  -2071275.024 1
  22994740.180     3896487.474 2   3036221.524 1
  21239632.215     -841893.745 3   -656020.011 2
 91  8  1  0 33  0.0000000  0  5 03 20 23 16 17
  20764292.681     -847380.283 4   -660296.099 3
  23488031.869     4736853.041 2   3691046.550 1
  23327929.210    -2698224.209 2  -2102502.374 1
  23004511.900     3947844.050 2   3076239.620 1
  21238034.613     -850283.295 3   -662557.301 3
 91  8  1  0 33 15.0000000  0  5 03 20 23 16 17
  20762832.691     -855043.579 4   -666267.485 2
  23499422.796     4796704.854 2   3737684.189 1
  23320309.992    -2738250.996 2  -2133691.938 1
  23014295.330     3999254.555 2   3116299.701 1
  21236448.719     -858624.134 3   -669056.645 3
 91  8  1  0 33 30.0000000  0  5 03 20 23 16 17
  20761389.785     -862633.860 4   -672181.986 2
  23510819.097     4856577.229 2   3784337.895 1
  23312699.446    -2778228.639 2  -2164843.240 1
  23024086.560     4050719.311 2   3156402.088 1
  21234870.312     -866915.906 3   -675517.750 2
 91  8  1  0 33 45.0000000  0  5 03 20 23 16 17
  20759958.274     -870147.775 4   -678036.969 2
  23522225.606     4916472.285 2   3831009.201 1
  23305109.613    -2818154.385 2  -2195954.036 1
  23033891.262     4102240.483 2   3196548.416 1
  21233301.189     -875155.948 3   -681938.550 2
 91  8  1  0 34  0.0000000  0  5 03 20 23 16 17
  20758539.955     -877590.090 4   -683836.171 2
  23533619.813     4976385.036 2   3877694.368 1
  23297520.356    -2858032.590 2  -2227027.837 1
  23043710.377     4153812.863 2   3236734.676 1
  21231741.977     -883349.060 3   -688322.773 2
 91  8  1  0 34 15.0000000  0  5 03 20 23 16 17
  20757139.034     -884958.620 4   -689577.868 2
  23545025.711     5036316.730 2   3924394.229 1
  23289934.118    -2897861.531 2  -2258063.236 1
  23053527.974     4205437.919 2   3276961.932 1
  21230193.846     -891493.377 3   -694668.974 2
 91  8  1  0 34 30.0000000  0  5 03 20 23 16 17
  20755750.992     -892252.700 4   -695261.564 2
  23556427.422     5096267.424 2   3971108.935 1
  23282368.856    -2937640.330 2  -2289059.579 1
  23063365.360     4257116.031 2   3317230.536 1
  21228653.812     -899588.652 3   -700976.971 3
 91  8  1  0 34 45.0000000  0  5 03 20 23 16 17
  20754378.549     -899471.109 4   -700886.294 3
  23567844.419     5156238.027 2   4017839.141 1
  23274813.487    -2977367.431 2  -2320015.623 1
  23073210.843     4308848.068 2   3357541.188 1
  21227122.171     -907633.646 3   -707245.785 2
 91  8  1  0 35  0.0000000  0  5 03 20 23 16 17
  20753020.783     -906612.223 4   -706450.796 2
  23579263.213     5216228.910 2   4064585.157 1
  23267262.010    -3017041.959 2  -2350930.699 1
  23083061.421     4360634.178 2   3397893.966 1
  21225596.830     -915627.585 3   -713474.802 2
 91  8  1  0 35 15.0000000  0  5 03 20 23 16 17
  20751673.818     -913678.678 4   -711957.120 2
  23590687.400     5276237.431 2   4111344.913 1
  23259718.927    -3056665.970 2  -2381806.416 1
  23092929.990     4412471.660 2   3438286.781 1
  21224087.666     -923572.716 3   -719665.802 2
 91  8  1  0 35 30.0000000  0  5 03 20 23 16 17
  20750343.937     -920667.733 4   -717403.132 2
  23602105.304     5336265.255 2   4158119.702 1
  23252195.632    -3096237.267 2  -2412641.053 1
  23102804.859     4464362.702 2   3478721.330 1
  21222587.505     -931467.126 3   -725817.272 3
 91  8  1  0 35 45.0000000  0  5 03 20 23 16 17
  20749029.342     -927581.115 4   -722790.185 2
  23613527.100     5396309.978 2   4204907.679 1
  23244666.648    -3135757.641 2  -2443436.010 1
  23112690.215     4516304.984 2   3519195.780 1
  21221092.737     -939312.821 3   -731930.781 2
 91  8  1  0 36  0.0000000  0  5 03 20 23 16 17
  20747728.254     -934415.750 4   -728115.869 3
  23624957.882     5456374.109 2   4251710.760 1
  23237160.140    -3175223.947 2  -2474188.852 1
  23122577.666     4568300.877 2   3559712.040 2
  21219612.365     -947107.123 3   -738004.248 2
 91  8  1  0 36 15.0000000  0  5 03 20 23 16 17
  20746443.639     -941171.246 4   -733379.892 3
  23636401.264     5516457.345 2   4298528.736 1
  23229661.433    -3214635.816 2  -2504899.277 1
  23132485.515     4620350.051 2   3600269.797 1
  21218136.182     -954849.799 3   -744037.473 3
 91  8  1  0 36 30.0000000  0  5 03 20 23 16 17
  20745171.623     -947850.214 4   -738584.281 2
  23647830.842     5576556.449 2   4345359.068 1
  23222163.336    -3253995.846 2  -2535569.299 1
  23142402.055     4672449.502 2   3640866.742 2
  21216673.801     -962543.549 3   -750032.589 3
 91  8  1  0 36 45.0000000  0  5 03 20 23 16 17
  20743915.783     -954451.576 4   -743728.194 2
  23659274.521     5636671.835 2   4392202.095 1
  23214692.496    -3293303.196 2  -2566198.246 1
  23152325.471     4724599.725 2   3681503.241 1
  21215218.610     -970188.099 3   -755989.359 3
 91  8  1  0 37  0.0000000  0  5 03 20 23 16 17
  20742677.637     -960973.801 4   -748810.448 2
  23670708.305     5696804.593 2   4439058.655 1
  23207216.282    -3332556.109 2  -2596784.812 1
  23162260.298     4776801.961 2   3722180.284 2
  21213773.906     -977781.765 3   -761906.486 2
 91  8  1  0 37 15.0000000  0  5 03 20 23 16 17
  20741449.386     -967418.267 4   -753832.109 3
  23682154.391     5756952.455 2   4485926.984 1
  23199758.635    -3371756.055 2  -2627330.095 1
  23172198.424     4829054.206 2   3762896.273 1
  21212336.410     -985326.346 3   -767785.356 2
 91  8  1  0 37 30.0000000  0  5 03 20 23 16 17
  20740239.423     -973780.289 4   -758789.527 3
  23693610.651     5817119.783 2   4532810.484 1
  23192312.697    -3410898.460 2  -2657830.548 1
  23182153.634     4881360.320 2   3803654.220 1
  21210911.495     -992817.432 3   -773622.546 3
 91  8  1  0 37 45.0000000  0  5 03 20 23 16 17
  20739042.356     -980061.618 4   -763684.071 3
  23705061.519     5877303.822 2   4579707.030 1
  23184876.042    -3449985.504 2  -2688287.856 1
  23192113.031     4933717.932 2   3844452.334 1
  21209496.474    -1000257.527 3   -779420.009 3
 91  8  1  0 38  0.0010000  0  5 03 20 23 16 17
  20737862.375     -986267.923 4   -768520.157 2
  23716517.189     5937502.586 2   4626615.023 1
  23177440.298    -3489024.865 2  -2718708.007 1
  23202097.316     4986124.511 2   3885288.602 1
  21208088.646    -1007652.430 3   -785182.241 3
 91  8  1  0 38 15.0010000  0  5 03 20 23 16 17
  20736698.289     -992397.217 4   -773296.227 2
  23727974.373     5997708.902 2   4673528.901 1
  23170021.932    -3528009.995 2  -2749085.907 1
  23212073.519     5038573.961 2   3926158.273 1
  21206689.819    -1014999.865 3   -790907.493 3
 91  8  1  0 38 30.0010000  0  5 03 20 23 16 17
  20735542.875     -998451.446 4   -778013.801 2
  23739432.431     6057924.551 2   4720450.051 1
  23162612.848    -3566945.043 2  -2779424.785 1
  23222063.803     5091067.709 2   3967062.451 1
  21205300.573    -1022302.314 3   -796597.696 3
 91  8  1  0 38 45.0010000  0  5 03 20 23 16 17
  20734407.860    -1004421.628 4   -782665.895 3
  23750893.803     6118157.377 2   4767384.567 1
  23155214.881    -3605821.592 2  -2809718.066 1
  23232061.574     5143613.624 2   4008007.279 1
  21203925.426    -1029551.667 3   -802246.521 2
 91  8  1  0 39  0.0010000  0  5 03 20 23 16 17
  20733287.539    -1010311.938 4   -787255.748 2
  23762360.568     6178403.126 2   4814329.173 1
  23147832.496    -3644643.329 2  -2839968.676 1
  23242072.554     5196207.459 2   4048989.433 1
  21202551.186    -1036751.854 3   -807857.035 3
 91  8  1  0 39 15.0010000  0  5 03 20 23 16 17
  20732181.317    -1016121.284 4   -791782.513 2
  23773824.018     6238662.334 2   4861284.278 1
  23140450.095    -3683409.308 2  -2870175.804 1
  23252092.818     5248849.661 2   4090009.280 1
  21201192.826    -1043901.980 3   -813428.541 2
 91  8  1  0 39 30.0010000  0  5 03 20 23 16 17
  20731088.567    -1021848.602 4   -796245.358 2
  23785295.285     6298935.282 2   4908250.080 1
  23133087.795    -3722118.694 2  -2900338.821 1
  23262108.877     5301540.488 2   4131067.041 1
  21199840.155    -1051001.697 4   -818960.774 3
 91  8  1  0 39 45.0010000  0  5 03 20 23 16 17
  20730019.200    -1027494.514 4   -800644.761 2
  23796765.645     6359220.308 2   4955225.294 1
  23125733.890    -3760772.260 2  -2930458.368 1
  23272153.432     5354278.624 2   4172161.635 1
  21198496.785    -1058051.999 3   -824454.497 2
 91  8  1  0 40  0.0010000  0  5 03 20 23 16 17
  20728958.245    -1033058.516 4   -804980.345 2
  23808237.505     6419517.562 2   5002210.052 1
  23118379.077    -3799369.285 2  -2960533.863 1
  23282200.970     5407064.219 2   4213293.240 1
  21197164.513    -1065052.336 3   -829909.280 3
 91  8  1  0 40 15.0010000  0  5 03 20 23 16 17
  20727914.058    -1038543.092 4   -809254.039 3
  23819715.961     6479823.955 2   5049201.895 1
  23111053.946    -3837912.239 2  -2990567.222 1
  23292245.508     5459894.253 2   4254459.442 1
  21195841.822    -1072005.569 4   -835327.363 3
 91  8  1  0 40 30.0010000  0  5 03 20 23 16 17
  20726886.677    -1043943.252 4   -813461.953 2
  23831194.104     6540143.705 2   5096204.182 1
  23103726.425    -3876396.490 2  -3020554.851 1
  23302315.540     5512773.125 2   4295663.731 1
  21194528.134    -1078907.248 4   -840705.282 3
 91  8  1  0 40 45.0010000  0  5 03 20 23 16 17
  20725876.972    -1049258.104 4   -817603.398 3
  23842672.561     6600477.097 2   5143217.073 1
  23096420.473    -3914821.254 2  -3050496.131 1
  23312378.382     5565701.221 2   4336906.338 1
  21193225.528    -1085756.701 4   -846042.498 2
 91  8  1  0 41  0.0010000  0  5 03 20 23 16 17
  20724878.663    -1054495.052 4   -821684.137 2
  23854155.205     6660816.194 2   5190234.430 1
  23089115.131    -3953193.968 2  -3080396.826 1
  23322457.401     5618670.221 2   4378180.858 1
  21191931.036    -1092561.462 4   -851344.892 3
 91  8  1  0 41 15.0010000  0  5 03 20 23 16 17
  20723899.845    -1059650.646 4   -825701.481 2
  23865647.151     6721163.906 2   5237258.473 1
  23081823.889    -3991510.938 2  -3110254.088 1
  23332546.018     5671683.473 2   4419489.820 1
  21190645.513    -1099318.267 4   -856609.907 2
 91  8  1  0 41 30.0010000  0  5 03 20 23 16 17
  20722931.515    -1064720.379 4   -829651.910 2
  23877130.406     6781523.799 2   5284291.990 1
  23074539.523    -4029767.911 2  -3140064.614 1
  23342640.323     5724744.456 2   4460836.006 1
  21189367.808    -1106023.345 4   -861834.625 2
 91  8  1  0 41 45.0010000  0  5 03 20 23 16 17
  20721986.272    -1069704.463 4   -833535.611 3
  23888618.757     6841894.893 2   5331334.320 1
  23067275.259    -4067965.257 2  -3169828.666 1
  23352751.119     5777852.496 2   4502218.854 1
  21188102.388    -1112677.155 4   -867019.401 3
 91  8  1  0 42  0.0010000  0  5 03 20 23 16 17
  20721049.422    -1074605.382 4   -837354.507 2
  23900100.512     6902274.338 2   5378383.079 1
  23060013.386    -4106105.281 2  -3199548.062 1
  23362861.635     5831004.927 2   4543636.292 1
  21186848.957    -1119281.975 4   -872165.998 2
 91  8  1  0 42 15.0010000  0  5 03 20 23 16 17
  20720135.048    -1079422.504 4   -841108.102 2
  23911599.647     6962662.181 2   5425438.419 1
  23052768.596    -4144187.353 2  -3229222.311 1
  23372991.312     5884201.577 2   4585088.188 2
  21185600.917    -1125837.594 4   -877274.246 3
 91  8  1  0 42 30.0010000  0  5 03 20 23 16 17
  20719233.273    -1084156.676 4   -844797.064 2
  23923090.982     7023056.549 2   5472498.835 1
  23045530.403    -4182212.897 2  -3258852.507 2
  23383119.209     5937440.526 2   4626573.038 1
  21184360.974    -1132345.748 4   -882345.517 3
 91  8  1  0 42 45.0010000  0  5 03 20 23 16 17
  20718351.287    -1088804.342 4   -848418.606 3
  23934586.522     7083460.848 2   5519566.983 1
  23038306.606    -4220177.977 2  -3288435.590 1
  23393260.578     5990725.319 2   4668093.604 1
  21183132.723    -1138802.748 4   -887376.932 3
 91  8  1  0 43  0.0010000  0  5 03 20 23 16 17
  20717484.883    -1093366.078 4   -851973.206 3
  23946082.970     7143873.645 2   5566641.773 1
  23031090.906    -4258083.277 2  -3317972.060 1
  23403411.247     6044054.835 2   4709649.031 1
  21181910.161    -1145209.607 3   -892369.272 2
 91  8  1  0 43 15.0010000  0  5 03 20 23 16 17
  20716627.484    -1097843.364 4   -855461.996 3
  23957574.025     7204292.851 2   5613721.507 1
  23023889.289    -4295930.272 2  -3347463.146 1
  23413561.620     6097426.693 2   4751237.456 1
  21180699.011    -1151567.958 4   -897323.814 3
 91  8  1  0 43 30.0010000  0  5 03 20 23 16 17
  20715790.764    -1102234.693 4   -858883.801 2
  23969080.350     7264718.992 2   5660806.700 1
  23016702.975    -4333718.014 2  -3376908.052 1
  23423731.781     6150841.706 2   4792859.482 1
  21179501.333    -1157876.913 4   -902239.868 3
 91  8  1  0 43 45.0010000  0  5 03 20 23 16 17
  20714975.629    -1106538.895 4   -862237.714 3
  23980583.987     7325153.047 2   5707898.034 1
  23009518.441    -4371444.892 2  -3406305.516 2
  23433905.241     6204300.909 2   4834515.962 1
  21178315.050    -1164135.157 4   -907116.408 3
 91  8  1  0 44  0.0010000  0  5 03 20 23 16 17
  20714172.780    -1110755.304 4   -865523.221 3
  23992085.234     7385595.097 2   5754995.563 1
  23002350.101    -4409110.212 2  -3435655.032 1
  23444081.702     6257804.414 2   4876206.956 1
  21177128.173    -1170342.310 4   -911953.135 3
 91  8  1  0 44 15.0010000  0  5 03 20 23 16 17
  20713385.513    -1114889.658 4   -868744.785 3
  24003582.868     7446038.570 2   5802094.266 1
  22995191.952    -4446720.101 2  -3464961.334 1
  23454265.056     6311345.614 2   4917927.344 1
  21175960.492    -1176504.824 4   -916755.071 3
 91  8  1  0 44 30.0010000  0  5 03 20 23 16 17
  20712612.660    -1118942.410 4   -871902.774 3
  24015086.209     7506482.505 2   5849193.261 1
  22988052.701    -4484275.021 2  -3494224.790 1
  23464463.696     6364923.488 2   4959676.242 1
  21174793.090    -1182623.094 4   -921522.538 3
 91  8  1  0 44 45.0010000  0  5 03 20 23 16 17
  20711863.470    -1122904.514 4   -874990.115 2
  24026593.737     7566935.068 2   5896299.037 1
  22980918.546    -4521766.047 2  -3523438.484 2
  23474674.028     6418546.405 2   5001460.296 1
  21173637.100    -1188688.639 4   -926248.923 3
 91  8  1  0 45  0.0010000  0  5 03 20 23 16 17
  20711122.080    -1126779.201 4   -878009.333 2
  24038090.778     7627392.578 2   5943408.615 1
  22973796.973    -4559196.200 2  -3552604.740 1
  23484888.844     6472211.052 2   5043276.862 1
  21172494.285    -1194704.630 4   -930936.693 3
 91  8  1  0 45 15.0010000  0  5 03 20 23 16 17
  20710401.386    -1130569.433 4   -880962.755 3
  24049599.808     7687851.211 2   5990519.101 1
  22966678.401    -4596568.639 2  -3581726.049 2
  23495103.678     6525913.349 2   5085122.779 1
  21171358.678    -1200674.702 4   -935588.684 3
 91  8  1  0 45 30.0010000  0  5 03 20 23 16 17
  20709697.183    -1134270.855 4   -883846.973 3
  24061105.242     7748314.850 2   6037633.501 1
  22959576.912    -4633879.124 2  -3610799.048 2
  23505329.593     6579657.286 2   5127001.124 1
  21170233.557    -1206594.613 4   -940201.580 3
 91  8  1  0 45 45.0010000  0  5 03 20 23 16 17
  20709008.545    -1137885.291 4   -886663.406 2
  24072610.084     7808781.008 2   6084749.834 1
  22952496.417    -4671129.507 2  -3639825.211 1
  23515565.105     6633440.464 2   5168910.088 1
  21169113.532    -1212466.692 4   -944777.212 3
 91  8  1  0 46  0.0010000  0  5 03 20 23 16 17
  20708339.120    -1141411.804 4   -889411.324 2
  24084117.612     7869250.155 2   6131868.514 1
  22945415.921    -4708318.831 2  -3668803.812 2
  23525807.825     6687263.407 2   5210849.965 1
  21168005.793    -1218290.000 4   -949314.846 3
 91  8  1  0 46 15.0010000  0  5 03 20 23 16 17
  20707684.667    -1144850.234 4   -892090.611 2
  24095633.849     7929721.481 2   6178988.890 1
  22938349.211    -4745447.120 2  -3697734.858 1
  23536056.233     6741125.539 2   5252820.424 2
  21166906.150    -1224065.039 4   -953814.862 3
 91  8  1  0 46 30.0010000  0  5 03 20 23 16 17
  20707047.315    -1148198.266 4   -894699.459 3
  24107132.984     7990196.809 2   6226112.395 1
  22931304.384    -4782512.254 2  -3726616.682 2
  23546312.424     6795028.554 2   5294822.705 1
  21165817.012    -1229789.667 4   -958275.591 3
 91  8  1  0 46 45.0010000  0  5 03 20 23 16 17
  20706427.047    -1151457.226 4   -897238.910 3
  24118645.014     8050674.384 2   6273237.630 1
  22924253.868    -4819515.267 2  -3755450.107 1
  23556582.418     6848970.668 2   5336855.482 1
  21164735.360    -1235465.261 4   -962698.121 3
 91  8  1  0 47  0.0010000  0  5 03 20 23 16 17
  20705822.362    -1154629.971 4   -899711.181 3
  24130156.749     8111150.573 2   6320361.785 1
  22917224.030    -4856459.177 2  -3784237.469 1
  23566849.707     6902948.577 2   5378916.130 1
  21163666.290    -1241094.805 4   -967084.764 3
 91  8  1  0 47 15.0010000  0  5 03 20 23 16 17
  20705237.762    -1157712.092 4   -902112.823 2
  24141657.384     8171629.118 2   6367487.801 1
  22910211.590    -4893339.916 2  -3812975.628 1
  23577129.299     6956966.004 2   5421007.620 1
  21162602.333    -1246674.548 4   -971432.605 3
 91  8  1  0 47 30.0010000  0  5 03 20 23 16 17
  20704668.449    -1160703.756 4   -904443.982 3
  24153175.104     8232109.252 2   6414615.018 1
  22903204.839    -4930157.592 2  -3841664.625 1
  23587422.973     7011022.157 2   5463129.220 1
  21161552.754    -1252204.968 4   -975742.006 3
 91  8  1  0 47 45.0010000  0  5 03 20 23 16 17
  20704114.736    -1163605.244 4   -906704.883 2
  24164679.038     8292590.361 2   6461743.021 1
  22896205.888    -4966912.270 2  -3870304.535 2
  23597710.941     7065116.433 2   5505280.569 1
  21160508.882    -1257686.225 4   -980013.099 3
 91  8  1  0 48  0.0010000  0  5 03 20 23 16 17
  20703583.202    -1166412.711 4   -908892.518 2
  24176193.773     8353075.142 2   6508873.903 1
  22889224.615    -5003600.666 2  -3898892.812 2
  23608008.820     7119251.547 2   5547463.719 1
  21159477.295    -1263115.498 4   -984243.687 3
 91  8  1  0 48 15.0010000  0  5 03 20 23 16 17
  20703066.065    -1169127.615 4   -911008.029 3
  24187695.002     8413561.767 2   6556006.182 1
  22882256.847    -5040223.944 2  -3927430.347 2
  23618317.484     7173426.159 2   5589677.643 1
  21158450.804    -1268494.134 4   -988434.829 3
 91  8  1  0 48 30.0010000  0  5 03 20 23 16 17
  20702566.012    -1171749.765 4   -913051.260 3
  24199209.738     8474049.895 2   6603139.612 1
  22875298.364    -5076782.059 2  -3955917.097 2
  23628648.624     7227639.468 2   5631921.753 1
  21157440.209    -1273822.265 4   -992586.604 3
 91  8  1  0 48 45.0010000  0  5 03 20 23 16 17
  20702083.653    -1174278.877 4   -915021.999 2
  24210717.563     8534539.088 2   6650273.882 1
  22868353.962    -5113274.743 2  -3984352.873 1
  23638952.489     7281891.284 2   5674195.850 1
  21156432.599    -1279099.797 4   -996698.956 3
 91  8  1  0 49  0.0010000  0  5 03 20 23 16 17
  20701624.066    -1176713.764 4   -916919.305 2
  24222232.596     8595029.899 2   6697409.463 1
  22861423.661    -5149701.012 2  -4012736.882 1
  23649292.040     7336182.122 2   5716500.340 1
  21155438.495    -1284325.796 4  -1000771.146 3
 91  8  1  0 49 15.0010000  0  5 03 20 23 16 17
  20701176.765    -1179052.418 4   -918741.635 2
  24233745.534     8655523.670 2   6744547.292 1
  22854505.958    -5186058.845 2  -4041067.566 2
  23659636.372     7390513.581 2   5758836.524 1
  21154451.284    -1289498.725 4  -1004801.991 3
 91  8  1  0 49 30.0010000  0  5 03 20 23 16 17
  20700747.472    -1181298.459 4   -920491.801 3
  24245256.954     8716016.154 2   6791684.216 1
  22847593.944    -5222351.977 2  -4069347.834 2
  23669975.311     7444881.205 2   5801200.869 1
  21153478.155    -1294622.488 3  -1008794.520 3
 91  8  1  0 49 45.0010000  0  5 03 20 23 16 17
  20700336.450    -1183450.665 4   -922168.840 2
  24256765.093     8776508.124 2   6838820.628 1
  22840703.202    -5258579.066 2  -4097576.654 1
  23680315.752     7499285.908 2   5843594.084 1
  21152516.124    -1299695.951 4  -1012747.858 3
 91  8  1  0 50  0.0010000  0  5 03 20 23 16 17
  20699945.827    -1185510.485 4   -923773.900 2
  24268276.827     8836997.368 2   6885954.972 1
  22833822.372    -5294741.853 2  -4125755.364 1
  23690686.783     7553725.767 2   5886014.663 1
  21151556.781    -1304721.134 4  -1016663.570 3
 91  8  1  0 50 15.0010000  0  5 03 20 23 16 17
  20699573.177    -1187477.025 4   -925306.270 3
  24279786.153     8897484.014 2   6933087.259 1
  22826955.327    -5330839.350 2  -4153883.188 1
  23701050.904     7608201.097 2   5928462.924 1
  21150611.241    -1309697.113 4  -1020540.948 3
 91  8  1  0 50 30.0010000  0  5 03 20 23 16 17
  20699214.628    -1189351.679 4   -926767.041 2
  24291294.589     8957965.936 2   6980215.874 1
  22820096.973    -5366873.291 2  -4181961.494 2
  23711426.419     7662709.811 2   5970937.219 1
  21149672.891    -1314625.775 4  -1024381.453 3
 91  8  1  0 50 45.0010000  0  5 03 20 23 16 17
  20698876.774    -1191131.978 4   -928154.288 3
  24302810.512     9018445.337 2   7027342.565 1
  22813253.015    -5402841.018 2  -4209988.204 2
  23721813.033     7717253.950 2   6013439.086 1
  21148744.731    -1319505.021 4  -1028183.447 3
 91  8  1  0 51  0.0010000  0  5 03 20 23 16 17
  20698554.783    -1192815.511 3   -929466.135 2
  24314312.055     9078924.001 2   7074468.625 1
  22806420.452    -5438740.179 3  -4237961.490 1
  23732202.038     7771835.250 2   6055969.908 1
  21147823.761    -1324332.317 4  -1031944.963 3
 91  8  1  0 51 15.0010000  0  5 03 20 23 16 17
  20698253.505    -1194404.699 4   -930704.469 2
  24325827.977     9139398.715 2   7121591.684 1
  22799603.158    -5474573.470 3  -4265883.452 2
  23742598.842     7826450.590 2   6098527.283 1
  21146918.391    -1329110.998 4  -1035668.597 3
 91  8  1  0 51 30.0010000  0  5 03 20 23 16 17
  20697972.888    -1195893.485 4   -931864.567 2
  24337335.820     9199874.866 2   7168715.803 1
  22792797.277    -5510334.892 2  -4293749.389 1
  23752984.846     7881105.530 2   6141115.485 1
  21146017.210    -1333835.169 4  -1039349.757 3
 91  8  1  0 51 45.0010000  0  5 03 20 23 16 17
  20697705.184    -1197287.505 4   -932950.814 2
  24348832.861     9260346.514 2   7215836.422 1
  22786006.385    -5546029.751 2  -4321563.500 2
  23763397.844     7935794.327 2   6183730.054 1
  21145128.924    -1338510.095 4  -1042992.546 3
 91  8  1  0 52  0.0010000  0  5 03 20 23 16 17
  20697460.846    -1198582.126 4   -933959.611 2
  24360339.185     9320817.407 2   7262956.469 1
  22779228.964    -5581653.781 3  -4349322.384 2
  23773813.530     7990520.566 2   6226373.810 1
  21144246.641    -1343132.058 4  -1046594.063 3
 91  8  1  0 52 15.0010000  0  5 03 20 23 16 17
  20697230.608    -1199781.466 4   -934894.162 2
  24371862.611     9381283.076 2   7310072.426 1
  22772456.657    -5617210.973 2  -4377029.198 2
  23784223.527     8045279.957 2   6269043.421 1
  21143379.347    -1347705.173 4  -1050157.514 3
 91  8  1  0 52 30.0010000  0  5 03 20 23 16 17
  20697021.659    -1200879.514 4   -935749.786 3
  24383356.354     9441748.673 2   7357188.326 1
  22765706.826    -5652695.814 2  -4404679.626 2
  23794668.285     8100077.478 2   6311742.718 1
  21142521.634    -1352223.771 4  -1053678.486 3
 91  8  1  0 52 45.0010000  0  5 03 20 23 16 17
  20696831.574    -1201880.882 4   -936530.076 2
  24394866.291     9502209.047 2   7404300.167 1
  22758960.606    -5688112.722 2  -4432277.141 2
  23805097.774     8154908.109 2   6354467.826 1
  21141667.830    -1356692.828 4  -1057160.856 3
 91  8  1  0 53  0.0010000  0  5 03 20 23 16 17
  20696660.404    -1202783.155 4   -937233.151 2
  24406363.629     9562665.993 2   7451409.348 1
  22752237.753    -5723459.257 2  -4459819.790 2
  23815534.750     8209774.170 2   6397220.554 1
  21140824.810    -1361110.003 4  -1060602.803 3
 91  8  1  0 53 15.0010000  0  5 03 20 23 16 17
  20696505.411    -1203585.918 4   -937858.676 2
  24417886.740     9623119.580 2   7498515.868 1
  22745527.795    -5758734.984 2  -4487307.302 2
  23825979.211     8264675.364 2   6440000.627 1
  21139998.577    -1365475.474 4  -1064004.447 3
 91  8  1  0 53 30.0010000  0  5 03 20 23 16 17
  20696374.692    -1204289.107 4   -938406.620 2
  24429384.985     9683568.728 2   7545618.975 1
  22738825.341    -5793940.293 2  -4514739.907 2
  23836432.973     8319610.676 2   6482807.334 1
  21139174.456    -1369789.311 4  -1067365.865 3
 91  8  1  0 53 45.0010000  0  5 03 20 23 16 17
  20696258.980    -1204893.620 4   -938877.662 2
  24440873.336     9744012.191 2   7592717.659 1
  22732138.767    -5829075.946 2  -4542118.259 2
  23846896.333     8374578.978 2   6525639.715 1
  21138362.323    -1374052.623 4  -1070687.918 3
 91  8  1  0 54  0.0010000  0  5 03 20 23 16 17
  20696160.648    -1205399.257 4   -939271.679 3
  24452386.257     9804449.530 2   7639811.482 1
  22725471.684    -5864141.813 2  -4569442.212 2
  23857357.599     8429579.849 2   6568497.462 1
  21137561.567    -1378265.553 4  -1073970.703 3
 91  8  1  0 54 15.0010000  0  5 03 20 23 16 17
  20696084.198    -1205806.227 4   -939588.802 2
  24463884.502     9864879.964 2   7686900.004 1
  22718808.196    -5899138.067 3  -4596711.937 2
  23867834.134     8484612.879 2   6611380.270 1
  21136767.425    -1382428.570 4  -1077214.601 3
 91  8  1  0 54 30.0010000  0  5 03 20 23 16 17
  20696025.740    -1206112.948 4   -939827.802 2
  24475387.546     9925304.586 2   7733983.957 1
  22712159.402    -5934063.278 3  -4623926.302 2
  23878319.691     8539679.058 2   6654288.963 1
  21135988.866    -1386540.412 4  -1080418.616 3
 91  8  1  0 54 45.0010000  0  5 03 20 23 16 17
  20695986.774    -1206319.715 4   -939988.917 2
  24486884.587     9985722.241 2   7781062.509 1
  22705528.598    -5968918.057 3  -4651085.780 2
  23888796.522     8594777.243 2   6697222.540 1
  21135213.902    -1390601.694 4  -1083583.234 3
 91  8  1  0 55  0.0010000  0  5 03 20 23 16 17
  20695968.172    -1206426.601 4   -940072.204 3
  24498368.139    10046132.290 2   7828135.116 1
  22698912.470    -6003702.328 3  -4678190.317 1
  23899288.064     8649906.979 2   6740180.688 1
  21134451.519    -1394612.650 4  -1086708.646 3
 91  8  1  0 55 15.0010000  0  5 03 20 23 16 17
  20695965.484    -1206429.936 4   -940074.800 2
  24509865.180    10106537.998 2   7875204.386 1
  22692309.535    -6038412.514 3  -4705237.128 2
  23909791.891     8705071.540 2   6783166.038 1
  21133695.750    -1398569.843 4  -1089792.157 3
 91  8  1  0 55 30.0010000  0  5 03 20 23 16 17
  20695983.772    -1206330.701 4   -939997.468 2
  24521363.705    10166937.652 2   7922268.887 1
  22685712.916    -6073049.623 3  -4732227.000 2
  23920296.329     8760269.259 2   6826177.181 1
  21132954.064    -1402474.628 4  -1092834.826 3
 91  8  1  0 55 45.0010000  0  5 03 20 23 16 17
  20696023.035    -1206132.585 4   -939843.102 3
  24532851.165    10227326.998 2   7969325.368 1
  22679136.662    -6107617.275 3  -4759162.743 2
  23930789.965     8815495.967 2   6869210.907 1
  21132222.865    -1406330.790 4  -1095839.613 3
 91  8  1  0 56  0.0010000  0  5 03 20 23 16 17
  20696080.603    -1205832.111 4   -939608.960 3
  24544336.218    10287708.851 2   8016376.042 1
  22672571.209    -6142112.188 3  -4786041.814 2
  23941318.066     8870754.227 2   6912269.237 1
  21131496.761    -1410135.242 4  -1098804.114 3
 91  8  1  0 56 15.0010000  0  5 03 20 23 16 17
  20696158.554    -1205430.052 4   -939295.675 2
  24555826.052    10348081.774 2   8063419.710 1
  22666021.340    -6176535.359 3  -4812864.979 2
  23951833.898     8926042.897 2   6955351.266 1
  21130784.461    -1413889.122 4  -1101729.199 3
 91  8  1  0 56 30.0010000  0  5 03 20 23 16 17
  20696252.383    -1204925.817 4   -938902.762 2
  24567318.295    10408445.987 2   8110456.633 1
  22659484.366    -6210886.058 3  -4839631.673 2
  23962356.013     8981362.234 2   6998457.223 1
  21130081.741    -1417592.166 4  -1104614.669 3
 91  8  1  0 56 45.0010000  0  5 03 20 23 16 17
  20696368.706    -1204320.386 4   -938430.993 2
  24578790.766    10468799.645 2   8157485.359 1
  22652961.789    -6245165.505 3  -4866342.850 2
  23972891.320     9036710.517 2   7041585.725 1
  21129381.725    -1421245.786 4  -1107461.623 3
 91  8  1  0 57  0.0010000  0  5 03 20 23 16 17
  20696503.911    -1203611.574 4   -937878.667 2
  24590278.209    10529144.752 2   8204507.380 1
  22646454.184    -6279371.266 3  -4892996.614 2
  23983431.409     9092089.726 2   7084738.311 1
  21128699.404    -1424847.662 4  -1110268.269 3
 91  8  1  0 57 15.0010000  0  5 03 20 23 16 17
  20696658.310    -1202792.178 4   -937240.186 2
  24601759.964    10589487.672 2   8251527.705 1
  22639961.289    -6313496.553 3  -4919587.660 2
  23993976.907     9147506.216 2   7127919.881 1
  21128025.180    -1428390.885 4  -1113029.211 3
 91  8  1  0 57 30.0010000  0  5 03 20 23 16 17
  20696834.575    -1201864.687 4   -936517.456 2
  24613234.215    10649825.191 2   8298543.800 1
  22633481.273    -6347543.814 3  -4946117.917 2
  24004531.113     9202957.306 2   7171128.463 1
  21127361.740    -1431878.229 4  -1115746.606 3
 91  8  1  0 57 45.0010000  0  5 03 20 23 16 17
  20697029.145    -1200832.480 4   -935713.132 3
  24624727.365    10710153.352 2   8345552.692 1
  22627014.153    -6381516.366 3  -4972589.966 2
  24015091.601     9258438.693 2   7214360.629 1
  21126707.287    -1435313.567 4  -1118423.475 3
 91  8  1  0 58  0.0010000  0  5 03 20 23 16 17
  20697246.191    -1199692.724 4   -934825.015 2
  24636192.315    10770474.333 2   8392555.888 1
  22620564.709    -6415411.801 3  -4999001.903 2
  24025652.682     9313952.703 2   7257618.247 1
  21126064.229    -1438694.222 4  -1121057.741 3
 91  8  1  0 58 15.0010000  0  5 03 20 23 16 17
  20697485.137    -1198445.210 4   -933852.924 3
  24647675.570    10830787.964 2   8439553.370 1
  22614135.054    -6449229.755 3  -5025353.480 2
  24036214.374     9369499.267 2   7300901.263 1
  21125429.565    -1442020.274 4  -1123649.455 3
 91  8  1  0 58 30.0010000  0  5 03 20 23 16 17
  20697742.946    -1197092.273 4   -932798.683 2
  24659163.624    10891091.315 2   8486542.892 1
  22607709.012    -6482972.465 3  -5051646.427 2
  24046793.446     9425075.363 2   7344207.284 1
  21124808.407    -1445294.031 4  -1126200.426 3
 91  8  1  0 58 45.0010000  0  5 03 20 23 16 17
  20698020.562    -1195634.290 4   -931662.586 2
  24670617.179    10951383.331 2   8533523.533 1
  22601297.051    -6516640.646 3  -5077881.292 2
  24057370.128     9480680.097 2   7387535.565 1
  21124195.328    -1448516.437 4  -1128711.374 3
 91  8  1  0 59  0.0010000  0  5 03 20 23 16 17
  20698317.652    -1194067.377 4   -930441.607 2
  24682107.938    11011667.317 2   8580497.927 1
  22594908.178    -6550230.474 3  -5104055.104 2
  24067961.189     9536316.754 2   7430888.736 1
  21123589.143    -1451683.708 4  -1131179.361 3
 91  8  1  0 59 15.0010000  0  5 03 20 23 16 17
  20698638.439    -1192392.226 4   -929136.293 2
  24693577.094    11071942.178 2   8627465.232 1
  22588531.292    -6583742.526 3  -5130168.318 2
  24078557.955     9591984.455 2   7474266.154 1
  21123000.058    -1454796.968 4  -1133605.271 3
 91  8  1  0 59 30.0010000  0  5 03 20 23 16 17
  20698977.497    -1190606.733 4   -927744.993 2
  24705036.355    11132209.098 2   8674426.334 1
  22582170.880    -6617174.769 3  -5156219.342 2
  24089162.523     9647684.573 2   7517668.733 1
  21122416.663    -1457854.452 4  -1135987.709 3
 91  8  1  0 59 45.0010000  0  5 03 20 23 16 17
  20699336.954    -1188714.819 4   -926270.772 2
  24716486.926    11192463.656 2   8721377.827 1
  22575821.583    -6650531.523 3  -5182211.529 2
  24099764.682     9703412.549 2   7561093.111 1
  21121842.254    -1460860.322 4  -1138329.934 3
 91  8  1  1  0  0.0010000  0  5 03 20 23 16 17
  20699717.979    -1186716.038 4   -924713.266 2
  24727967.180    11252705.784 2   8768319.582 1
  22569486.666    -6683812.246 3  -5208144.482 2
  24110381.534     9759168.519 2   7604539.289 1
  21121284.039    -1463814.325 4  -1140631.734 3
 91  8  1  1  0 15.0010000  0  5 03 20 23 16 17
  20700117.607    -1184611.261 4   -923073.184 2
  24739433.649    11312934.031 2   8815250.581 1
  22563170.036    -6717017.655 3  -5234018.752 2
  24120983.396     9814951.009 2   7648006.145 1
  21120730.029    -1466717.418 4  -1142893.883 3
 91  8  1  1  0 30.0010000  0  5 03 20 23 16 17
  20700538.820    -1182398.129 4   -921348.667 2
  24750900.414    11373150.091 2   8862172.098 1
  22556866.912    -6750145.684 3  -5259832.731 2
  24131607.734     9870761.812 2   7691495.065 1
  21120189.805    -1469567.781 4  -1145114.932 3
 91  8  1  1  0 45.0010000  0  5 03 20 23 16 17
  20700981.602    -1180075.974 4   -919539.188 2
  24762344.685    11433354.271 2   8909084.251 1
  22550575.463    -6783195.447 3  -5285585.717 2
  24142234.777     9926601.095 2   7735006.131 1
  21119655.864    -1472364.650 4  -1147294.292 3
 91  8  1  1  1  0.0010000  0  5 03 20 23 16 17
  20701441.781    -1177642.847 4   -917643.241 2
  24773802.760    11493547.627 2   8955988.038 1
  22544300.801    -6816165.418 3  -5311276.522 2
  24152863.618     9982469.685 2   7778540.002 1
  21119134.521    -1475106.751 4  -1149430.979 3
 91  8  1  1  1 15.0010000  0  5 03 20 23 16 17
  20701928.660    -1175100.806 4   -915662.428 2
  24785274.306    11553727.896 2   9002881.597 1
  22538042.036    -6849057.461 3  -5336906.618 2
  24163505.354    10038365.912 2   7822095.433 1
  21118621.275    -1477795.974 4  -1151526.467 3
 91  8  1  1  1 30.0010000  0  5 03 20 23 16 17
  20702429.307    -1172450.564 4   -913597.299 2
  24796716.484    11613893.418 2   9049763.644 1
  22531800.355    -6881872.598 3  -5362476.779 2
  24174153.075    10094288.059 2   7865671.078 1
  21118122.129    -1480433.685 4  -1153581.813 3
 91  8  1  1  1 45.0010000  0  5 03 20 23 16 17
  20702958.136    -1169689.385 4   -911445.722 2
  24808149.378    11674046.669 2   9096636.259 1
  22525567.975    -6914607.956 3  -5387984.780 2
  24184790.326    10150238.545 2   7909268.810 1
  21117629.562    -1483017.136 4  -1155594.870 3
 91  8  1  1  2  0.0010000  0  5 03 20 23 16 17
  20703502.268    -1166815.776 4   -909206.541 2
  24819613.735    11734188.281 2   9143499.644 1
  22519356.570    -6947262.345 3  -5413429.690 2
  24195446.738    10206218.142 2   7952889.182 1
  21117146.610    -1485545.300 4  -1157564.853 3
 91  8  1  1  2 15.0010000  0  5 03 20 23 16 17
  20704072.175    -1163832.888 4   -906882.212 2
  24831027.730    11794314.520 2   9190351.140 1
  22513155.967    -6979838.683 3  -5438813.780 2
  24206111.561    10262223.308 2   7996529.576 1
  21116676.536    -1488021.123 4  -1159494.051 3
 91  8  1  1  2 30.0010000  0  5 03 20 23 16 17
  20704658.869    -1160740.096 3   -904472.254 2
  24842480.413    11854425.601 2   9237190.824 1
  22506975.449    -7012336.815 3  -5464136.934 2
  24216778.181    10318254.141 2   8040189.867 1
  21116216.356    -1490444.595 4  -1161382.466 3
 91  8  1  1  2 45.0010000  0  5 03 20 23 16 17
  20705271.947    -1157537.229 3   -901976.508 2
  24853916.884    11914521.064 2   9284018.276 1
  22500801.823    -7044756.475 3  -5489398.935 2
  24227439.392    10374310.147 2   8083869.783 1
  21115762.458    -1492815.843 4  -1163230.178 3
 91  8  1  1  3  0.0010000  0  5 03 20 23 16 17
  20705898.811    -1154221.898 3   -899393.125 2
  24865347.370    11974602.887 2   9330835.141 1
  22494640.186    -7077095.045 3  -5514597.753 2
  24238097.321    10430393.701 2   8127571.180 1
  21115324.161    -1495132.558 4  -1165035.396 3
 91  8  1  1  3 15.0010000  0  5 03 20 23 16 17
  20706552.060    -1150794.283 3   -896722.251 2
  24876761.680    12034670.149 2   9377640.759 1
  22488509.122    -7109353.143 3  -5539733.859 2
  24248781.915    10486503.901 2   8171293.371 1
  21114890.960    -1497395.263 4  -1166798.525 3
 91  8  1  1  3 30.0010000  0  5 03 20 23 16 17
  20707226.284    -1147254.569 4   -893964.027 2
  24888199.355    12094721.937 2   9424434.211 1
  22482386.172    -7141530.922 3  -5564807.390 2
  24259466.212    10542639.852 2   8215035.597 1
  21114469.450    -1499604.474 4  -1168519.978 3
 91  8  1  1  3 45.0010000  0  5 03 20 23 16 17
  20707922.112    -1143609.469 3   -891123.687 2
  24899622.058    12154751.197 2   9471210.145 1
  22476277.305    -7173634.929 3  -5589823.433 2
  24270154.418    10598794.611 2   8258792.502 1
  21114060.835    -1501766.769 4  -1170204.870 3
 91  8  1  1  4  0.0010000  0  5 03 20 23 16 17
  20708636.803    -1139850.929 3   -888194.948 2
  24911053.434    12214765.259 2   9517974.221 1
  22470185.521    -7205657.595 3  -5614776.088 2
  24280836.622    10654975.484 2   8302569.826 1
  21113660.911    -1503874.815 4  -1171847.487 3
 91  8  1  1  4 15.0010000  0  5 03 20 23 16 17
  20709370.393    -1135980.345 3   -885178.911 2
  24922466.539    12274762.373 2   9564725.089 1
  22464103.632    -7237600.178 3  -5639666.350 2
  24291537.723    10711180.650 2   8346365.971 1
  21113269.695    -1505930.026 4  -1173448.941 3
 91  8  1  1  4 30.0010000  0  5 03 20 23 16 17
  20710130.978    -1131997.789 3   -882075.628 2
  24933889.225    12334741.911 2   9611462.260 1
  22458042.124    -7269462.852 3  -5664494.343 2
  24302240.902    10767409.650 2   8390180.722 1
  21112887.744    -1507932.646 4  -1175009.407 3
 91  8  1  1  4 45.0010000  0  5 03 20 23 16 17
  20710907.146    -1127903.918 3   -878885.591 2
  24945287.934    12394702.562 2   9658184.715 1
  22451994.105    -7301246.387 3  -5689260.655 2
  24312938.705    10823661.280 2   8434013.132 1
  21112516.316    -1509883.837 4  -1176529.805 3
 91  8  1  1  5  0.0010000  0  5 03 20 23 16 17
  20711707.587    -1123695.822 3   -875606.547 2
  24956708.229    12454646.593 2   9704894.238 1
  22445963.781    -7332947.812 3  -5713962.996 2
  24323656.577    10879938.144 2   8477865.185 1
  21112157.156    -1511780.906 4  -1178008.028 3
 91  8  1  1  5 15.0010000  0  5 03 20 23 16 17
  20712531.412    -1119373.406 3   -872238.438 2
  24968100.342    12514573.603 2   9751590.525 1
  22439946.649    -7364567.074 3  -5738601.318 2
  24334368.166    10936239.701 2   8521736.494 1
  21111805.203    -1513623.688 4  -1179443.950 3
 91  8  1  1  5 30.0010000  0  5 03 20 23 16 17
  20713377.730    -1114937.525 3   -868781.911 2
  24979501.459    12574482.097 2   9798272.308 1
  22433941.803    -7396105.302 3  -5763176.490 2
  24345085.741    10992564.488 2   8565625.894 1
  21111464.330    -1515413.742 4  -1180838.781 3
 91  8  1  1  5 45.0010000  0  5 03 20 23 16 17
  20714239.335    -1110390.435 3   -865238.722 2
  24990903.449    12634369.567 2   9844937.827 1
  22427955.854    -7427564.652 3  -5787690.203 2
  24355793.735    11048909.735 2   8609531.219 1
  21111133.369    -1517153.086 4  -1182194.108 3
 91  8  1  1  6  0.0010000  0  5 03 20 23 16 17
  20715127.324    -1105728.879 3   -861606.346 2
  25002302.769    12694238.414 2   9891588.670 1
  22421987.583    -7458942.237 3  -5812140.203 2
  24366531.709    11105278.123 2   8653454.590 1
  21110813.489    -1518838.861 4  -1183507.695 3
 91  8  1  1  6 15.0010000  0  5 03 20 23 16 17
  20716036.882    -1100953.859 3   -857885.552 2
  25013682.283    12754087.278 2   9938224.109 1
  22416031.911    -7490238.687 3  -5836526.986 2
  24377265.478    11161668.130 2   8697394.821 1
  21110500.206    -1520472.323 4  -1184780.500 3
 91  8  1  1  6 30.0010000  0  5 03 20 23 16 17
  20716969.544    -1096067.276 3   -854077.826 2
  25025043.230    12813913.275 2   9984841.594 1
  22410090.618    -7521456.452 3  -5860852.438 2
  24388004.028    11218077.356 2   8741350.064 1
  21110203.116    -1522055.814 4  -1186014.371 3
 91  8  1  1  6 45.0010000  0  5 03 20 23 16 17
  20717917.492    -1091065.898 3   -850180.658 2
  25036434.138    12873719.516 2  10031443.793 1
  22404164.315    -7552591.884 3  -5885113.746 2
  24398729.403    11274508.852 2   8785322.624 1
  21109906.916    -1523586.039 4  -1187206.743 3
 91  8  1  1  7  0.0010000  0  5 03 20 23 16 17
  20718890.917    -1085951.211 3   -846195.196 2
  25047820.563    12933503.831 2  10078028.801 1
  22398255.706    -7583646.627 3  -5909312.182 2
  24409475.770    11330960.447 2   8829310.786 1
  21109627.206    -1525064.855 4  -1188359.050 3
 91  8  1  1  7 15.0010000  0  5 03 20 23 16 17
  20719886.819    -1080720.072 3   -842118.987 2
  25059198.872    12993268.957 2  10124598.891 1
  22392361.494    -7614617.722 3  -5933445.431 2
  24420221.824    11387434.776 2   8873316.701 1
  21109356.797    -1526489.283 4  -1189468.988 3
 91  8  1  1  7 30.0010000  0  5 03 20 23 16 17
  20720904.917    -1075375.282 3   -837954.227 2
  25070581.405    13053011.117 2  10171151.152 1
  22386483.458    -7645508.428 3  -5957516.052 2
  24430974.491    11443928.452 2   8917337.656 1
  21109096.580    -1527862.386 4  -1190538.918 3
 91  8  1  1  7 45.0010000  0  5 03 20 23 16 17
  20721942.803    -1069915.164 3   -833699.600 2
  25081924.343    13112731.947 2  10217686.717
  22380617.724    -7676316.580 3  -5981522.338 2
  24441731.346    11500443.137 2   8961375.032 1
  21108844.459    -1529182.804 4  -1191567.800 3
 91  8  1  1  8  0.0010000  0  5 03 20 23 16 17
  20723005.556    -1064341.180 3   -829356.247 2
  25093280.788    13172429.112 2  10264203.905 1
  22374773.873    -7707044.026 3  -6005465.734 2
  24452487.590    11556976.573 2   9005426.964 1
  21108599.214    -1530452.320 4  -1192557.025 3
 91  8  1  1  8 15.0010000  0  5 03 20 23 16 17
  20724087.505    -1058651.024 3   -824922.349 2
  25104651.018    13232104.562 2  10310704.080 1
  22368939.899    -7737688.302 3  -6029344.320 2
  24463243.556    11613530.557 2   9049494.922 1
  21108373.181    -1531668.546 4  -1193504.714 3
 91  8  1  1  8 30.0010000  0  5 03 20 23 16 17
  20725192.854    -1052846.614 3   -820399.448 2
  25116002.053    13291755.803 2  10357185.525 1
  22363126.324    -7768251.441 3  -6053159.694 2
  24474009.398    11670102.481 2   9093576.921 1
  21108147.428    -1532833.804 4  -1194412.699 3
 91  8  1  1  8 45.0010000  0  5 03 20 23 16 17
  20726317.974    -1046928.212 3   -815787.717 2
  25127347.993    13351381.970 2  10403647.322
  22357327.442    -7798733.814 3  -6076912.139 2
  24484780.946    11726692.072 2   9137672.683 1
  21107934.587    -1533948.412 4  -1195281.207 3
 91  8  1  1  9  0.0010000  0  5 03 20 23 16 17
  20727468.275    -1040894.917 3   -811086.448 2
  25138689.151    13410983.319 2  10450089.817 1
  22351537.547    -7829134.702 3  -6100601.074 2
  24495549.475    11783299.405 2   9181782.242 1
  21107732.217    -1535012.041 4  -1196109.999 3
 91  8  1  1  9 15.0010000  0  5 03 20 23 16 17
  20728634.770    -1034742.225 3   -806292.152 2
  25150035.387    13470564.029 2  10496516.239 1
  22345768.051    -7859449.425 3  -6124222.895 2
  24506330.325    11839928.808 2   9225908.954 1
  21107540.352    -1536020.021 4  -1196895.427 3
 91  8  1  1  9 30.0010000  0  5 03 20 23 16 17
  20729829.743    -1028469.853 3   -801404.594 2
  25161361.259    13530123.618 2  10542926.252 1
  22340015.622    -7889677.845 3  -6147777.446 2
  24517120.457    11896579.702 2   9270052.468 1
  21107362.883    -1536972.614 4  -1197637.687 3
 91  8  1  1  9 45.0010000  0  5 03 20 23 16 17
  20731045.692    -1022080.077 3   -796425.558 2
  25172675.125    13589659.238 2  10589317.483 1
  22334280.608    -7919822.314 3  -6171266.576 2
  24527893.785    11953249.320 2   9314210.554 1
  21107191.400    -1537872.197 4  -1198338.650 3
 91  8  1  1 10  0.0010000  0  5 03 20 23 16 17
  20732284.431    -1015572.386 3   -791354.636 2
  25184027.365    13649171.080 2  10635690.255 1
  22328562.363    -7949882.411 3  -6194689.968 2
  24538684.529    12009938.054 2   9358383.529 1
  21107030.108    -1538718.381 4  -1198998.000 3
 91  8  1  1 10 15.0010000  0  5 03 20 23 16 17
  20733547.757    -1008949.071 3   -786193.616 2
  25195303.451    13708656.119 2  10682042.076 1
  22322858.812    -7979860.699 3  -6218049.613 2
  24549467.158    12066642.832 2   9402569.052 1
  21106879.303    -1539513.964 4  -1199617.927 3
 91  8  1  1 10 30.0010000  0  5 03 20 23 16 17
  20734831.168    -1002204.072 3   -780937.784 2
  25206646.110    13768120.291 2  10728377.709 1
  22317169.046    -8009750.891 3  -6241340.603 2
  24560272.281    12123369.530 2   9446771.596 1
  21106736.612    -1540252.787 4  -1200193.614 3
 91  8  1  1 10 45.0010000  0  5 03 20 23 16 17
  20736134.978     -995338.865 3   -775588.276 2
  25217959.069    13827561.207 2  10774695.154 1
  22311496.068    -8039554.684 3  -6264564.286 2
  24571066.601    12180116.097 2   9490989.677 1
  21106607.394    -1540936.910 4  -1200726.681 3
 91  8  1  1 11  0.0010000  0  5 03 20 23 16 17
  20737465.453     -988356.639 3   -770147.585 2
  25229266.635    13886975.322 2  10820991.852 1
  22305840.487    -8069275.122 3  -6287723.003 2
  24581868.722    12236879.058 2   9535220.514 1
  21106488.086    -1541569.279 4  -1201219.421 3
 91  8  1  1 11 15.0010000  0  4 03 23 16 17
  20738813.325     -981255.392 3   -764614.160 2
  22300205.288    -8098910.821 3  -6310815.691 2
  24592668.749    12293659.563 2   9579465.064 1
  21106377.452    -1542148.502 4  -1201670.752 3
 91  8  1  1 11 30.0010000  0  4 03 23 16 17
  20740187.564     -974033.836 3   -758986.974 2
  22294578.186    -8128460.090 3  -6333841.039 2
  24603487.658    12350458.586 2   9623723.924 1
  21106277.933    -1542673.317 4  -1202079.683 3
 91  8  1  1 11 45.0010000  0  4 03 23 16 17
  20741587.892     -966695.529 3   -753268.816 2
  22288971.466    -8157926.795 3  -6356802.049 2
  24614280.792    12407272.009 2   9667994.143 1
  21106186.198    -1543147.647 4  -1202449.278 3
 91  8  1  1 12  0.0010000  0  4 03 23 16 17
  20743006.211     -959234.136 3   -747454.750 2
  22283385.425    -8187304.364 3  -6379693.593 2
  24625111.095    12464106.115 2   9712280.390 1
  21106106.153    -1543565.080 4  -1202774.533 3
 91  8  1  1 12 15.0010000  0  4 03 23 16 17
  20744448.524     -951655.789 3   -741549.549 2
  22277808.388    -8216599.168 3  -6402520.655 2
  24635921.313    12520954.078 2   9756577.446 1
  21106035.689    -1543932.082 4  -1203060.496 3
 91  8  1  1 12 30.0010000  0  4 03 23 16 17
  20745913.295     -943957.751 3   -735551.083 2
  22272248.137    -8245808.621 3  -6425281.204 2
  24646740.221    12577817.922 2   9800886.863 1
  21105975.434    -1544246.247 4  -1203305.288 3
 91  8  1  1 12 45.0010000  0  4 03 23 16 17
  20747400.280     -936140.593 3   -729459.802 2
  22266709.770    -8274933.284 3  -6447975.699 2
  24657572.915    12634696.836 2   9845208.040 1
  21105928.074    -1544508.211 4  -1203509.401 3
 91  8  1  1 13  0.0010000  0  4 03 23 16 17
  20748911.522     -928205.731 3   -723276.789 2
  22261181.907    -8303974.589 3  -6470605.229 2
  24668403.218    12691589.291 2   9889539.759 1
  21105885.495    -1544719.807 4  -1203674.262 3
 91  8  1  1 13 15.0010000  0  4 03 23 16 17
  20750441.661     -920149.460 3   -716999.185 2
  22255671.111    -8332928.852 3  -6493166.933 2
  24679223.033    12748498.313 2   9933884.415 1
  21105856.127    -1544877.351 4  -1203797.010 3
 91  8  1  1 13 30.0010000  0  4 03 23 16 17
  20751998.186     -911971.512 3   -710626.768 2
  22250180.418    -8361795.841 3  -6515660.633 2
  24690062.620    12805423.582 2   9978241.723 1
  21105838.136    -1544980.875 4  -1203877.662 3
 91  8  1  1 13 45.0010000  0  4 03 23 16 17
  20753579.594     -903670.196 3   -704158.215 2
  22244702.306    -8390574.100 3  -6538085.202 2
  24700895.035    12862366.406 2  10022612.697 1
  21105827.945    -1545028.756 4  -1203914.958 3
 91  8  1  1 14  0.0010000  0  4 03 23 16 17
  20755182.589     -895249.959 3   -697596.978 2
  22239240.387    -8419268.179 3  -6560444.167 2
  24711727.135    12919321.600 2  10066993.309 1
  21105830.039    -1545025.877 4  -1203912.692 3
 91  8  1  1 14 15.0010000  0  4 03 23 16 17
  20756808.967     -886709.066 3   -690941.740 2
  22233796.461    -8447876.150 3  -6582736.041 2
  24722565.832    12976290.836 2  10111384.930 1
  21105837.839    -1544970.450 4  -1203869.490 3
 91  8  1  1 14 30.0010000  0  4 03 23 16 17
  20758453.021     -878051.126 3   -684195.295 2
  22228366.930    -8476402.038 3  -6604963.949 2
  24733417.110    13033269.856 2  10155784.075 1
  21105860.908    -1544866.515 4  -1203788.491 3
 91  8  1  1 14 45.0010000  0  4 03 23 16 17
  20760125.869     -869271.127 3   -677353.737 2
  22222955.373    -8504840.704 3  -6627123.895 2
  24744261.496    13090262.923 2  10200194.164 1
  21105888.200    -1544709.244 4  -1203665.932 3
 91  8  1  1 15  0.0010000  0  4 03 23 16 17
  20761818.784     -860367.567 3   -670415.915 2
  22217562.104    -8533190.794 3  -6649214.821 2
  24755108.603    13147271.678 2  10244616.538 1
  21105928.074    -1544497.039 4  -1203500.557 3
 91  8  1  1 15 15.0010000  0  4 03 23 16 17
  20763535.711     -851344.954 3   -663385.305 2
  22212182.324    -8561456.794 3  -6671240.225 2
  24765958.678    13204290.854 2  10289046.978 1
  21105979.936    -1544234.951 4  -1203296.322 3
 91  8  1  1 15 30.0010000  0  4 03 23 16 17
  20765278.691     -842198.692 3   -656258.350 2
  22206819.942    -8589634.082 3  -6693196.498 2
  24776817.460    13261325.022 2  10333489.113 1
  21106037.487    -1543918.321 4  -1203049.582 3
 91  8  1  1 15 45.0010000  0  4 03 23 16 17
  20767038.773     -832931.653 3   -649037.283 2
  22201474.644    -8617725.688 3  -6715086.013 2
  24787669.645    13318370.523 2  10377940.112 1
  21106109.748    -1543550.251 4  -1202762.762 3
 91  8  1  1 16  0.0010000  0  4 03 23 16 17
  20768825.239     -823540.404 3   -641719.422 2
  22196146.429    -8645728.087 3  -6736906.019 2
  24798523.646    13375430.437 2  10422402.364 1
  21106190.386    -1543127.520 4  -1202433.342 3
 91  8  1  1 16 15.0010000  0  4 03 23 16 17
  20770637.479     -814026.252 3   -634305.794 2
  22190833.798    -8673642.848 3  -6758657.720 2
  24809383.928    13432502.558 2  10466874.091 1
  21106281.528    -1542651.830 4  -1202062.663 3
 91  8  1  1 16 30.0010000  0  4 03 23 16 17
  20772470.415     -804388.182 3   -626795.609 2
  22185536.173    -8701469.029 3  -6780340.415 2
  24820250.493    13489587.725 2  10511356.008 1
  21106378.953    -1542122.206 4  -1201649.958 3
 91  8  1  1 16 45.0010000  0  4 03 23 16 17
  20774330.329     -794629.801 3   -619191.688 2
  22180260.117    -8729210.222 3  -6801956.877 2
  24831115.871    13546682.229 2  10555845.146 1
  21106491.088    -1541542.363 4  -1201198.126 3
 91  8  1  1 17  0.0010000  0  4 03 23 16 17
  20776208.827     -784747.999 3   -611491.579 2
  22174996.975    -8756863.397 3  -6823504.753 2
  24841984.251    13603788.604 2  10600343.482 1
  21106610.692    -1540909.367 4  -1200704.865 3
 91  8  1  1 17 15.0010000  0  4 03 23 16 17
  20778113.414     -774739.793 3   -603692.978 2
  22169751.195    -8784425.614 3  -6844981.756 2
  24852854.724    13660909.399 2  10644853.161 1
  21106742.912    -1540220.464 4  -1200168.040 3
 91  8  1  1 17 30.0010000  0  4 03 23 16 17
  20780040.773     -764608.877 3   -595798.765 2
  22164524.924    -8811900.741 3  -6866390.892 2
  24863722.510    13718040.616 2  10689370.979 1
  21106885.602    -1539479.611 4  -1199590.738 3
 91  8  1  1 17 45.0010000  0  4 03 23 16 17
  20781993.330     -754352.466 3   -587806.748 2
  22159313.330    -8839285.883 3  -6887729.902 2
  24874599.266    13775184.467 2  10733898.559 1
  21107038.798    -1538684.269 4  -1198970.980 3
 91  8  1  1 18  0.0010000  0  4 03 23 16 17
  20783968.660     -743972.860 3   -579718.756 2
  22154118.225    -8866583.418 3  -6909000.664 2
  24885472.148    13832338.045 2  10778433.789 1
  21107195.885    -1537836.873 4  -1198310.659 3
 91  8  1  1 18 15.0010000  0  4 03 23 16 17
  20785967.670     -733471.071 3   -571535.551 2
  22148942.613    -8893794.410 3  -6930203.984 2
  24896350.107    13889499.893 2  10822975.409 1
  21107364.070    -1536938.406 4  -1197610.547 3
 91  8  1  1 18 30.0010000  0  4 03 23 16 17
  20787988.876     -722840.986 3   -563252.374 2
  22143781.676    -8920913.056 3  -6951335.339 2
  24907232.883    13946676.101 2  10867528.269 1
  21107548.745    -1535983.032 4  -1196866.085 3
 91  8  1  1 18 45.0010000  0  4 03 23 16 17
  20790037.060     -712084.720 3   -554870.875 2
  22138636.043    -8947941.600 3  -6972396.495 2
  24918114.752    14003863.581 2  10912089.849 1
  21107742.722    -1534973.252 4  -1196079.233 3
 91  8  1  1 19  0.0010000  0  4 03 23 16 17
  20792108.925     -701202.856 3   -546391.505 2
  22133512.293    -8974880.387 3  -6993387.701 2
  24928998.418    14061061.913 2  10956659.919 1
  21107939.979    -1533909.685 4  -1195250.468 3
 91  8  1  1 19 15.0010000  0  4 03 23 16 17
  20794201.782     -690195.873 3   -537814.641 2
  22128402.328    -9001730.024 3  -7014309.433 2
  24939879.972    14118270.027 2  11001237.664 1
  21108157.322    -1532792.927 4  -1194380.257 3
 91  8  1  1 19 30.0010000  0  4 03 23 16 17
  20796320.709     -679064.271 3   -529140.662 2
  22123310.355    -9028491.184 3  -7035162.236 2
  24950772.032    14175486.869 2  11045822.079 1
  21108377.369    -1531624.016 4  -1193469.412 3
 91  8  1  1 19 45.0010000  0  4 03 23 16 17
  20798463.020     -667804.024 3   -520366.458 2
  22118232.760    -9055159.768 3  -7055942.892 2
  24961665.295    14232716.002 2  11090416.061 1
  21108610.015    -1530398.528 4  -1192514.474 3
 91  8  1  1 20  0.0010000  0  4 03 23 16 17
  20800632.920     -656418.999 3   -511495.012 2
  22113176.472    -9081739.739 3  -7076654.504 2
  24972554.964    14289953.621 2  11135016.758 1
  21108851.038    -1529121.061 4  -1191519.037 3
 91  8  1  1 20 15.0010000  0  4 03 23 16 17
  20802818.717     -644907.146 3   -502524.749 2
  22108136.361    -9108228.837 3  -7097295.301 2
  24983448.524    14347201.389 2  11179625.449 1
  21109107.661    -1527789.425 4  -1190481.391 3
 91  8  1  1 20 30.0010000  0  4 03 23 16 17
  20805035.069     -633267.821 3   -493455.160 2
  22103110.331    -9134626.725 3  -7117865.034 2
  24994344.178    14404459.069 2  11224241.787 1
  21109370.583    -1526403.173 4  -1189401.184 3
 91  8  1  1 20 45.0010000  0  4 03 23 16 17
  20807276.322     -621504.025 3   -484288.566 2
  22098106.499    -9160936.460 3  -7138366.069 2
  25005249.133    14461723.278 2  11268863.257
  21109645.791    -1524965.518 4  -1188280.924 3
 91  8  1  1 21  0.0010000  0  4 03 23 16 17
  20809534.660     -609614.762 3   -475024.203 2
  22093114.655    -9187157.002 3  -7158797.610 2
  25016137.284    14518994.625 2  11313490.214 1
  21109930.002    -1523475.422 4  -1187119.802 3
 91  8  1  1 21 15.0010000  0  4 03 23 16 17
  20811822.977     -597597.341 3   -465659.990 2
  22088143.489    -9213285.777 3  -7179157.633 2
  25027044.944    14576275.419 2  11358124.505 1
  21110223.497    -1521930.257 4  -1185915.770 3
 91  8  1  1 21 30.0010000  0  4 03 23 16 17
  20814133.176     -585449.514 3   -456194.166 2
  22083189.128    -9239320.747 3  -7199444.579 2
  25037945.694    14633567.292 2  11402767.466 1
  21110527.480    -1520328.361 4  -1184667.530 3
 91  8  1  1 21 45.0010000  0  4 03 23 16 17
  20816472.151     -573171.738 3   -446627.066 2
  22078250.943    -9265262.289 3  -7219658.724 2
  25048851.539    14690869.808 2  11447418.773 1
  21110845.266    -1518670.357 4  -1183375.570 3
 91  8  1  1 22  0.0010000  0  4 03 23 16 17
  20818830.932     -560765.159 3   -436959.616 2
  22073333.454    -9291111.694 3  -7239801.062 2
  25059756.494    14748181.186 2  11492076.972 1
  21111169.037    -1516957.331 4  -1182040.734 3
 91  8  1  1 22 15.0010000  0  4 03 23 16 17
  20821216.673     -548230.452 3   -427192.334 2
  22068430.641    -9316869.572 3  -7259872.085 2
  25070668.342    14805500.352 2  11536741.223 1
  21111507.502    -1515190.221 4  -1180663.757 3
 91  8  1  1 22 30.0010000  0  4 03 23 16 17
  20823625.798     -535566.219 3   -417324.104 2
  22063547.320    -9342534.665 3  -7279870.821 2
  25081563.700    14862828.437 2  11581412.358 1
  21111851.969    -1513367.887 4  -1179243.745 3
 91  8  1  1 22 45.0010000  0  4 03 23 16 17
  20826061.918     -522775.096 3   -407356.992 2
  22058678.098    -9368109.609 3  -7299799.295 2
  25092483.627    14920162.245 2  11626087.805 1
  21112209.629    -1511492.714 4  -1177782.564 3
 91  8  1  1 23  0.0010000  0  4 03 23 16 17
  20828519.624     -509855.050 3   -397289.433 2
  22053828.351    -9393592.434 3  -7319655.988 2
  25103399.384    14977503.705 2  11670769.474 1
  21112578.666    -1509563.232 4  -1176279.065 3
 91  8  1  1 23 15.0010000  0  4 03 23 16 17
  20831002.494     -496806.233 3   -387121.534 2
  22049000.801    -9418983.239 3  -7339440.997 2
  25114309.417    15034852.047 2  11715456.420 1
  21112954.614    -1507579.695 4  -1174733.452 3
 91  8  1  1 23 30.0010000  0  4 03 23 16 17
  20833512.358     -483626.624 3   -376851.712 2
  22044186.722    -9444280.225 3  -7359152.878 2
  25125217.077    15092208.886 2  11760150.043 1
  21113342.235    -1505540.185 4  -1173144.214 3
 91  8  1  1 23 45.0010000  0  4 03 23 16 17
  20836042.605     -470319.095 3   -366482.218 2
  22039390.355    -9469486.333 3  -7378793.949 2
  25136136.708    15149571.163 2  11804847.916 1
  21113742.456    -1503447.509 4  -1171513.547 3
 91  8  1  1 24  0.0010000  0  4 03 23 16 17
  20838600.441     -456880.253 3   -356010.402 2
  22034609.851    -9494598.116 3  -7398361.537 2
  25147058.450    15206941.609 2  11849552.065 1
  21114150.774    -1501298.535 4  -1169839.023 3
 91  8  1  1 24 15.0010000  0  4 03 23 16 17
  20841182.846     -443310.487 3   -345436.561 2
  22029852.747    -9519616.143 3  -7417856.046 2
  25157979.896    15264319.891 2  11894262.320 1
  21114566.298    -1499093.977 4  -1168121.177 3
 91  8  1  1 24 30.0010000  0  4 03 23 16 17
  20843789.839     -429611.249 3   -334761.840 2
  22025107.335    -9544541.935 3  -7437278.694 2
  25168894.431    15321703.834 2  11938977.032 1
  21114998.592    -1496835.464 4  -1166361.294 3
 91  8  1  1 24 45.0010000  0  4 03 23 16 17
  20846424.123     -415780.725 3   -323984.818 2
  22020381.414    -9569373.512 3  -7456627.932 2
  25179817.377    15379094.790 2  11983697.208 1
  21115437.186    -1494521.211 4  -1164557.974 3
 91  8  1  1 25  0.0010000  0  4 03 23 16 17
  20849077.290     -401817.280 3   -313104.221 2
  22015674.061    -9594109.470 3  -7475902.660 2
  25190734.914    15436493.992 2  12028423.785 1
  21115890.473    -1492149.641 4  -1162709.988 3
 91  8  1  1 25 15.0010000  0  4 03 23 16 17
  20851760.435     -387721.488 3   -302120.495 2
  22010984.106    -9618750.427 3  -7495103.346 2
  25201666.847    15493900.751 2  12073156.265 1
  21116351.857    -1489721.525 4  -1160817.944 3
 91  8  1  1 25 30.0010000  0  4 03 23 16 17
  20854467.557     -373497.256 3   -291036.687 2
  22006313.642    -9643300.285 3  -7514233.065 2
  25212587.996    15551310.879 2  12117891.474 1
  21116824.321    -1487240.820 4  -1158884.919 3
 91  8  1  1 25 45.0010000  0  3 03 23 17
  20857200.156     -359140.443 3   -279849.563 2
  22001658.465    -9667755.029 3  -7533288.651 2
  21117306.995    -1484703.698 4  -1156907.929 3
 91  8  1  1 26  0.0010000  0  3 03 23 17
  20859954.656     -344653.788 3   -268561.278 2
  21997026.078    -9692117.406 3  -7552272.261 2
  21117795.356    -1482113.210 4  -1154889.364 3
 91  8  1  1 26 15.0010000  0  3 03 23 17
  20862740.025     -330035.957 3   -257170.768 2
  21992405.382    -9716385.982 3  -7571182.793 2
  21118305.304    -1479467.910 4  -1152828.081 3
 91  8  1  1 26 30.0010000  0  3 03 23 17
  20865543.681     -315288.252 3   -245679.060 2
  21987805.959    -9740562.334 3  -7590021.449 2
  21118816.456    -1476769.275 4  -1150725.243 3
 91  8  1  1 26 45.0010000  0  3 03 23 17
  20868375.520     -300405.996 3   -234082.506 2
  21983223.340    -9764641.736 3  -7608784.573 2
  21119340.486    -1474012.528 4  -1148577.123 3
 91  8  1  1 27  0.0010000  0  3 03 23 17
  20871232.243     -285394.993 3   -222385.630 2
  21978658.083    -9788630.079 3  -7627476.738 2
  21119875.021    -1471203.757 4  -1146388.470 3
 91  8  1  1 27 15.0010000  0  3 03 23 17
  20874115.054     -270253.792 3   -210587.309 2
  21974110.836    -9812525.874 3  -7646096.783 2
  21120421.841    -1468341.793 4  -1144158.357 3
 91  8  1  1 27 30.0010000  0  3 03 23 17
  20877020.934     -254981.132 3   -198686.536 2
  21969578.281    -9836328.019 3  -7664643.860 2
  21120975.850    -1465425.764 4  -1141886.115 3
 91  8  1  1 27 45.0010000  0  3 03 23 17
  20879952.309     -239575.436 3   -186682.099 2
  21965069.407    -9860034.764 3  -7683116.608 2
  21121542.459    -1462453.830 4  -1139570.311 3
 91  8  1  1 28  0.0010000  0  3 03 23 17
  20882907.364     -224039.467 3   -174576.177 2
  21960575.208    -9883649.135 3  -7701517.356 2
  21122118.054    -1459428.629 4  -1137213.013 3
 91  8  1  1 28 15.0010000  0  3 03 23 17
  20885891.490     -208373.851 3   -162369.194 2
  21956099.000    -9907171.795 3  -7719846.658 2
  21122702.061    -1456351.337 4  -1134815.116 3
 91  8  1  1 28 30.0010000  0  3 03 23 17
  20888897.814     -192575.212 3   -150058.576 2
  21951639.894    -9930599.489 3  -7738101.957 2
  21123298.352    -1453218.672 4  -1132374.070 3
 91  8  1  1 28 45.0010000  0  3 03 23 17
  20891925.427     -176644.285 3   -137644.867 2
  21947200.872    -9953933.016 3  -7756283.877 2
  21123903.020    -1450031.404 4  -1129890.477 3
 91  8  1  1 29  0.0010000  0  3 03 23 17
  20894983.909     -160581.122 3   -125128.123 2
  21942778.638    -9977172.075 3  -7774392.191 2
  21124523.602    -1446789.614 4  -1127364.408 3
 91  8  1  1 29 15.0010000  0  3 03 23 17
  20898069.666     -144383.498 3   -112506.612 2
  21938375.582   -10000314.636 3  -7792425.316 2
  21125150.466    -1443491.100 4  -1124794.125 3
 91  8  1  1 29 30.0010000  0  3 03 23 17
  20901171.913     -128053.252 3    -99781.748 2
  21933987.812   -10023362.860 3  -7810384.924 2
  21125787.818    -1440138.196 4  -1122181.466 3
 91  8  1  1 29 45.0010000  0  3 03 23 17
  20904305.955     -111591.262 3    -86954.220 2
  21929620.145   -10046317.500 3  -7828271.604 2
  21126435.081    -1436731.853 4  -1119527.170 3
 91  8  1  1 30  0.0010000  0  3 03 23 17
  20907466.067      -94996.539 3    -74023.279 2
  21925268.950   -10069177.818 3  -7846084.808 2
  21127093.426    -1433271.010 4  -1116830.402 3
 91  8  1  1 30 15.0010000  0  3 03 23 17
  20910646.265      -78269.093 3    -60988.910 2
  21920936.951   -10091943.625 3  -7863824.342 2
  21127765.852    -1429755.794 4  -1114091.265 3
 91  8  1  1 30 30.0010000  0  3 03 23 17
  20913855.534      -61409.715 3    -47851.747 2
  21916623.833   -10114615.585 3  -7881490.764 2
  21128442.485    -1426187.082 4  -1111310.438 3
 91  8  1  1 30 45.0010000  0  3 03 23 17
  20917090.595      -44416.209 3    -34610.060 2
  21912329.614   -10137191.877 3  -7899082.636 2
  21129132.012    -1422562.964 4  -1108486.448 3
 91  8  1  1 31  0.0010000  0  3 03 23 17
  20920351.151      -27287.616 3    -21263.108 2
  21908047.976   -10159671.368 3  -7916599.074 2
  21129831.714    -1418882.340 4  -1105618.419 3
 91  8  1  1 31 15.0010000  0  3 03 23 17
  20923632.368      -10027.108 3     -7813.366 2
  21903791.222   -10182057.504 3  -7934042.767 2
  21130541.624    -1415148.766 4  -1102709.131 3
 91  8  1  1 31 30.0010000  0  3 03 23 17
  20926942.971        7367.569 3      5740.912 2
  21899549.755   -10204347.804 3  -7951411.791 2
  21131265.336    -1411359.802 4  -1099756.682 3
 91  8  1  1 31 45.0010000  0  3 03 23 17
  20930278.772       24895.938 3     19399.373 2
  21895326.872   -10226542.777 3  -7968706.526 2
  21131998.019    -1407516.156 4  -1096761.622 3
 91  8  1  1 32  0.0010000  0  3 03 23 17
  20933639.439       42555.738 3     33160.256 2
  21891119.590   -10248644.946 3  -7985928.951 2
  21132738.815    -1403620.264 4  -1093725.853 3
 91  8  1  1 32 15.0010000  0  3 03 23 17
  20937024.694       60353.214 3     47028.414 2
  21886932.689   -10270648.099 3  -8003074.225 2
  21133487.691    -1399666.079 4  -1090644.657 3
 91  8  1  1 32 30.0010000  0  3 03 23 17
  20940437.538       78281.555 3     60998.554 2
  21882761.372   -10292558.937 3  -8020147.563 2
  21134250.371    -1395660.150 4  -1087523.148 3
 91  8  1  1 32 45.0010000  0  3 03 23 17
  20943875.859       96342.947 3     75072.355 2
  21878608.656   -10314375.586 3  -8037147.494 2
  21135024.131    -1391600.549 4  -1084359.818 3
 91  8  1  1 33  0.0010000  0  3 03 23 17
  20947336.953      114537.887 3     89250.221 2
  21874475.118   -10336097.357 3  -8054073.505 2
  21135806.581    -1387487.095 4  -1081154.519 3
 91  8  1  1 33 15.0010000  0  3 03 23 17
  20950826.246      132867.928 3    103533.367 2
  21870361.666   -10357722.756 3  -8070924.412 2
  21136601.630    -1383318.232 4  -1077906.035 3
 91  8  1  1 33 30.0010000  0  3 03 23 17
  20954341.016      151331.821 3    117920.809 2
  21866265.000   -10379252.843 3  -8087701.059 2
  21137404.480    -1379094.971 4  -1074615.175 3
 91  8  1  1 33 45.0010000  0  3 03 23 17
  20957878.856      169930.059 3    132412.931 2
  21862184.528   -10400687.352 3  -8104403.229 2
  21138217.817    -1374817.325 4  -1071281.943 3
 91  8  1  1 34  0.0010000  0  3 03 23 17
  20961444.895      188662.580 3    147009.686 2
  21858124.142   -10422026.542 3  -8121031.129 2
  21139042.253    -1370485.386 4  -1067906.392 3
 91  8  1  1 34 15.0010000  0  3 03 23 17
  20965034.004      207531.069 3    161712.410 2
  21854080.839   -10443268.627 3  -8137583.356 2
  21139875.972    -1366097.377 4  -1064487.155 3
 91  8  1  1 34 30.0010000  0  3 03 23 17
  20968650.701      226534.917 3    176520.585 2
  21850058.512   -10464414.215 3  -8154060.390 2
  21140722.290    -1361654.008 4  -1061024.784 3
 91  8  1  1 34 45.0020000  0  3 03 23 17
  20972294.990      245675.479 3    191435.294 2
  21846053.585   -10485464.873 3  -8170463.452 2
  21141577.598    -1357155.109 4  -1057519.136 3
 91  8  1  1 35  0.0020000  0  3 03 23 17
  20975959.937      264948.778 3    206453.439 2
  21842065.460   -10506418.959 3  -8186791.265 2
  21142443.984    -1352602.702 4  -1053971.792 3
 91  8  1  1 35 15.0020000  0  3 03 23 17
  20979651.897      284352.471 3    221573.196 2
  21838094.105   -10527281.846 3  -8203048.009 2
  21143318.484    -1348000.294 4  -1050385.498 3
 91  8  1  1 35 30.0020000  0  3 03 23 17
  20983371.708      303890.132 3    236797.330 2
  21834144.632   -10548049.702 3  -8219230.721 2
  21144204.973    -1343344.261 4  -1046757.411 3
 91  8  1  1 35 45.0020000  0  3 03 23 17
  20987115.530      323562.656 3    252126.558 2
  21830209.852   -10568721.800 3  -8235338.796 2
  21145105.544    -1338633.942 4  -1043087.026 3
 91  8  1  1 36  0.0020000  0  3 03 23 17
  20990883.922      343366.871 3    267558.400 2
  21826292.173   -10589301.328 3  -8251374.745 2
  21146009.727    -1333872.563 4  -1039376.848 3
 91  8  1  1 36 15.0020000  0  3 03 23 17
  20994679.292      363307.998 3    283096.924 2
  21822396.377   -10609782.896 3  -8267334.371 2
  21146926.491    -1329054.704 4  -1035622.665 3
 91  8  1  1 36 30.0020000  0  3 03 23 17
  20998497.138      383387.354 3    298743.165 2
  21818517.962   -10630165.535 3  -8283216.899 2
  21147852.539    -1324179.471 4  -1031823.779 3
 91  8  1  1 36 45.0020000  0  3 03 23 17
  21002346.778      403602.298 3    314495.060 2
  21814658.724   -10650451.794 3  -8299024.326 2
  21148791.797    -1319249.308 4  -1027982.087 3
 91  8  1  1 37  0.0020000  0  3 03 23 17
  21006219.191      423955.962 3    330355.048 2
  21810813.883   -10670638.707 3  -8314754.346 2
  21149737.948    -1314261.379 4  -1024095.378 3
 91  8  1  1 37 15.0020000  0  3 03 23 17
  21010116.191      444442.410 3    346318.504 2
  21806991.238   -10690731.827 3  -8330411.274 2
  21150700.572    -1309221.542 4  -1020168.227 3
 91  8  1  1 37 30.0020000  0  3 03 23 17
  21014040.483      465062.650 3    362386.205 2
  21803187.160   -10710730.530 3  -8345994.631 2
  21151668.902    -1304129.029 4  -1016200.030 3
 91  8  1  1 37 45.0020000  0  3 03 23 17
  21017989.642      485819.623 3    378560.467 2
  21799398.090   -10730631.876 3  -8361502.130 3
  21152646.236    -1298980.838 4  -1012188.444 3
 91  8  1  1 38  0.0020000  0  3 03 23 17
  21021966.389      506712.900 3    394840.923 2
  21795628.808   -10750436.233 3  -8376934.053 2
  21153639.136    -1293777.234 4  -1008133.673 3
 91  8  1  1 38 15.0020000  0  3 03 23 17
  21025968.318      527744.562 3    411229.224 2
  21791878.704   -10770141.562 3  -8392288.809 2
  21154639.540    -1288516.524 4  -1004034.412 3
 91  8  1  1 38 30.0020000  0  3 03 23 17
  21029995.130      548913.996 3    427724.867 2
  21788151.076   -10789748.736 3  -8407567.085 2
  21155649.541    -1283199.414 4   -999891.203 3
 91  8  1  1 38 45.0020000  0  3 03 23 17
  21034051.032      570211.820 3    444320.568 2
  21784436.046   -10809266.887 3  -8422775.990 2
  21156671.548    -1277835.253 4   -995711.327 3
 91  8  1  1 39  0.0020000  0  3 03 23 17
  21038127.001      591636.757 3    461015.315 2
  21780738.415   -10828697.313 3  -8437916.538 2
  21157702.228    -1272425.205 4   -991495.697 3
 91  8  1  1 39 15.0020000  0  3 03 23 17
  21042231.764      613197.922 3    477816.197 2
  21777057.850   -10848030.872 3  -8452981.610 3
  21158742.208    -1266960.303 4   -987237.327 3
 91  8  1  1 39 30.0020000  0  3 03 23 17
  21046358.408      634897.570 3    494725.000 2
  21773397.091   -10867265.444 3  -8467969.544 2
  21159794.177    -1261438.402 4   -982934.539 3
 91  8  1  1 39 45.0020000  0  3 03 23 17
  21050514.125      656735.101 3    511741.241 2
  21769754.009   -10886401.764 3  -8482880.916 2
  21160856.948    -1255860.256 4   -978587.924 3
 91  8  1  1 40  0.0020000  0  3 03 23 17
  21054696.245      678709.481 3    528864.134 2
  21766132.216   -10905440.791 3  -8497716.479 2
  21161925.110    -1250226.774 4   -974198.185 3
 91  8  1  1 40 15.0020000  0  3 03 23 17
  21058904.417      700824.646 3    546096.726 2
  21762528.118   -10924378.867 3  -8512473.381 2
  21163008.856    -1244534.444 4   -969762.601 3
 91  8  1  1 40 30.0020000  0  3 03 23 17
  21063138.695      723075.739 3    563435.221 2
  21758944.698   -10943220.495 3  -8527155.120 2
  21164103.404    -1238787.694 4   -965284.607 3
 91  8  1  1 40 45.0020000  0  3 03 23 17
  21067400.544      745468.618 3    580884.198 2
  21755378.363   -10961959.876 3  -8541757.193 2
  21165205.437    -1232980.722 4   -960759.686 3
 91  8  1  1 41  0.0020000  0  3 03 23 17
  21071691.169      768011.100 3    598449.763 2
  21751833.927   -10980589.470 3  -8556273.718 2
  21166326.352    -1227106.121 4   -956182.066 3
 91  8  1  1 41 15.0020000  0  3 03 23 17
  21076005.177      790696.459 3    616126.655 2
  21748307.761   -10999115.795 3  -8570709.767 2
  21167455.678    -1221170.262 4   -951556.722 3
 91  8  1  1 41 30.0020000  0  3 03 23 17
  21080348.571      813516.521 3    633908.518 2
  21744801.681   -11017547.175 3  -8585071.844 2
  21168596.678    -1215181.489 4   -946890.139 3
 91  8  1  1 41 45.0020000  0  3 03 23 17
  21084718.350      836474.690 3    651797.992 2
  21741312.702   -11035880.195 3  -8599357.271 2
  21169745.199    -1209136.724 4   -942179.923 3
 91  8  1  1 42  0.0020000  0  3 03 23 17
  21089113.606      859568.460 3    669793.111 2
  21737840.806   -11054117.296 3  -8613567.946 2
  21170908.081    -1203038.369 4   -937427.953 3
 91  8  1  1 42 15.0020000  0  3 03 23 17
  21093536.154      882797.799 3    687893.896 2
  21734387.792   -11072258.393 3  -8627703.824 3
  21172077.281    -1196886.283 4   -932634.115 3
 91  8  1  1 42 30.0020000  0  3 03 23 17
  21097981.178      906167.192 3    706103.794 2
  21730955.771   -11090299.236 3  -8641761.590 3
  21173258.765    -1190676.105 4   -927795.004 3
 91  8  1  1 42 45.0020000  0  3 03 23 17
  21102452.273      929672.354 3    724419.501 2
  21727540.833   -11108244.107 3  -8655744.549 3
  21174449.830    -1184412.246 4   -922914.063 3
 91  8  1  1 43  0.0020000  0  3 03 23 17
  21106949.770      953312.928 3    742840.707 2
  21724144.183   -11126093.431 3  -8669653.081 2
  21175653.493    -1178095.155 4   -917991.649 3
 91  8  1  1 43 15.0020000  0  3 03 23 17
  21111476.322      977089.762 3    761368.108 2
  21720766.135   -11143846.232 3  -8683486.390 3
  21176865.254    -1171723.641 4   -913026.829 3
 91  8  1  1 43 30.0020000  0  3 03 23 17
  21116029.572     1001002.150 3    780001.114 2
  21717407.247   -11161503.158 3  -8697244.984 3
  21178088.410    -1165298.425 4   -908020.161 3
 91  8  1  1 43 45.0020000  0  4 03 23 21 17
  21120602.908     1025053.542 3    798742.455 2
  21714062.459   -11179060.856 3  -8710926.269 3
  25574088.228           0.805 2         0.350
  21179324.461    -1158816.423 4   -902969.243 3
 91  8  1  1 44  0.0020000  0  4 03 23 21 17
  21125207.130     1049240.673 3    817589.559 2
  21710744.370   -11196522.588 3  -8724532.776 3
  25566041.793      -42233.583 1    -32909.383 1
  21180563.496    -1152280.918 4   -897876.637 3
 91  8  1  1 44 15.0020000  0  4 03 23 21 17
  21129835.923     1073564.116 3    836542.882 2
  21707436.454   -11213888.039 3  -8738064.256 3
  25558009.458      -84439.955 2    -65797.309 1
  21181822.023    -1145691.623 4   -892742.113 3
 91  8  1  1 44 30.0020000  0  3 03 23 17
  21134489.896     1098023.886 3    855602.438 2
  21704151.032   -11231156.846 3  -8751520.424 3
  21183082.959    -1139048.217 4   -887565.435 3
 91  8  1  1 44 45.0020000  0  3 03 23 17
  21139169.363     1122621.125 3    874769.104 2
  21700882.100   -11248328.200 3  -8764900.662 3
  21184358.273    -1132349.415 4   -882345.585 3
 91  8  1  1 45  0.0020000  0  3 03 23 17
  21143878.497     1147355.324 3    894042.495 2
  21697634.144   -11265402.427 3  -8778205.217 3
  21185642.888    -1125595.802 4   -877083.026 3
 91  8  1  1 45 15.0020000  0  3 03 23 17
  21148612.514     1172228.975 3    913424.545 2
  21694406.272   -11282377.211 3  -8791432.276 3
  21186940.381    -1118784.970 4   -871775.880 3
 91  8  1  1 45 30.0020000  0  3 03 23 17
  21153369.321     1197239.426 3    932913.193 2
  21691191.593   -11299255.057 3  -8804583.809 3
  21188245.082    -1111919.602 4   -866426.231 3
 91  8  1  1 45 45.0020000  0  3 03 23 17
  21158154.310     1222386.722 3    952508.483 2
  21687997.610   -11316035.905 3  -8817659.758 3
  21189565.662    -1104999.642 4   -861034.052 3
 91  8  1  1 46  0.0020000  0  3 03 23 17
  21162965.684     1247673.758 3    972212.658 2
  21684824.009   -11332717.065 3  -8830658.019 3
  21190887.446    -1098022.387 4   -855597.225 3
 91  8  1  1 46 15.0020000  0  3 03 23 17
  21167804.333     1273097.486 3    992023.343 2
  21681670.196   -11349301.569 3  -8843580.966 3
  21192227.222    -1090990.870 4   -850118.113 3
 91  8  1  1 46 30.0020000  0  3 03 23 17
  21172669.663     1298658.241 3   1011940.795 2
  21678531.373   -11365788.924 3  -8856428.220 3
  21193577.188    -1083904.536 4   -844596.289 3
 91  8  1  1 46 45.0020000  0  3 03 23 17
  21177560.488     1324357.745 3   1031966.379 2
  21675411.728   -11382177.519 3  -8869198.518 3
  21194934.954    -1076761.824 4   -839030.531 3
 91  8  1  1 47  0.0020000  0  3 03 23 17
  21182476.180     1350193.746 3   1052098.308 2
  21672313.075   -11398469.574 3  -8881893.580 3
  21196305.896    -1069565.025 4   -833422.637 3
 91  8  1  1 47 15.0020000  0  3 03 23 17
  21187418.849     1376170.357 3   1072339.812 2
  21669232.710   -11414661.039 4  -8894510.269 3
  21197683.451    -1062310.118 4   -827769.459 3
 91  8  1  1 47 30.0020000  0  3 03 23 17
  21192388.811     1402288.720 3   1092691.769 2
  21666169.726   -11430750.417 4  -8907047.405 3
  21199077.182    -1054995.540 4   -822069.784 3
 91  8  1  1 47 45.0020000  0  3 03 23 17
  21197386.047     1428545.254 3   1113151.391 2
  21663125.623   -11446741.500 3  -8919507.951 3
  21200479.011    -1047624.967 4   -816326.471 3
 91  8  1  1 48  0.0020000  0  4 03 23 21 17
  21202408.481     1454940.205 3   1133718.873 2
  21660101.325   -11462634.456 3  -8931892.037 2
  25438230.082      637266.49112    496571.228 1
  21201892.531    -1040198.284 4   -810539.443 3
 91  8  1  1 48 15.0020000  0  4 03 23 21 17
  21207457.283     1481469.883 3   1154391.336 2
  21657097.096   -11478432.699 4  -8944202.316 3
  25430283.183      595553.007 1    464067.402 1
  21203317.742    -1032719.386 4   -804711.719 3
 91  8  1  1 48 30.0020000  0  4 03 23 21 17
  21212532.173     1508139.342 3   1175172.721 2
  21654108.467   -11494131.072 4  -8956434.774 3
  25422356.666      553873.420 2    431590.032 1
  21204750.754    -1025182.965 4   -798839.178 3
 91  8  1  1 48 45.0020000  0  4 03 23 21 17
  21217634.041     1534947.997 3   1196062.555 2
  21651140.831   -11509730.243 4  -8968589.934 3
  25414449.937      512227.012 2    399138.483 1
  21206195.458    -1017589.694 4   -792922.336 3
 91  8  1  1 49  0.0020000  0  4 03 23 21 17
  21222763.183     1561892.352 3   1217058.155 2
  21648187.276   -11525233.724 3  -8980670.537 2
  25406526.125      470610.438 2    366710.157 1
  21207650.649    -1009943.004 4   -786963.872 3
 91  8  1  1 49 15.0020000  0  4 03 23 21 17
  21227912.114     1588972.666 3   1238159.683 2
  21645257.106   -11540641.021 3  -8992676.181 3
  25398605.907      429024.340 2    334305.620 1
  21209116.328    -1002242.502 4   -780963.473 3
 91  8  1  1 49 30.0020000  0  4 03 23 21 17
  21233093.433     1616191.121 3   1259368.842 2
  21642344.909   -11555950.247 3  -9004605.412 3
  25390697.678      387470.647 2    301926.363 1
  21210589.807     -994486.187 4   -774919.579 3
 91  8  1  1 49 45.0020000  0  4 03 23 21 17
  21238298.728     1643547.885 3   1280685.792 2
  21639451.017   -11571160.981 3  -9016457.897 3
  25382790.653      345949.857 2    269572.641 1
  21212076.478     -986673.611 4   -768831.852 3
 91  8  1  1 50  0.0020000  0  4 03 23 21 17
  21243531.001     1671042.320 3   1302110.002 2
  21636574.209   -11586274.235 3  -9028234.419 3
  25374906.121      304461.168 2    237243.566 1
  21213575.748     -978805.834 4   -762701.111 3
 91  8  1  1 50 15.0020000  0  4 03 23 21 17
  21248790.863     1698674.933 3   1323641.894 2
  21633717.783   -11601289.291 3  -9039934.429 3
  25367012.585      263005.720 2    204940.806 1
  21215083.098     -970882.031 4   -756526.711 3
 91  8  1  1 50 30.0020000  0  4 03 23 21 17
  21254073.219     1726444.536 3   1345280.539 2
  21630877.254   -11616207.497 3  -9051558.967 3
  25359131.630      221582.154 2    172662.933 1
  21216603.344     -962903.467 4   -750309.635 3
 91  8  1  1 50 45.0020000  0  4 03 23 21 17
  21259382.832     1754349.826 3   1367024.899 2
  21628057.107   -11631029.984 3  -9063108.921 3
  25351250.100      180189.346 2    140408.944 1
  21218132.593     -954871.600 4   -744051.035 3
 91  8  1  1 51  0.0020000  0  4 03 23 21 17
  21264719.143     1782392.539 3   1388876.345 2
  21625254.043   -11645755.013 3  -9074582.935 3
  25343388.044      138829.101 2    108179.946 1
  21219669.329     -946784.530 4   -737749.417 3
 91  8  1  1 51 15.0020000  0  4 03 23 21 17
  21270083.026     1810571.403 3   1410833.880 2
  21622472.880   -11660383.828 3  -9085981.969 3
  25335507.700       97500.405 2     75975.995
  21221218.664     -938643.348 4   -731405.623 3
 91  8  1  1 51 30.0020000  0  4 03 23 21 17
  21275473.904     1838888.901 3   1432899.449 2
  21619705.781   -11674913.935 3  -9097304.105 3
  25327662.431       56205.942 2     43798.668 1
  21222778.173     -930445.387 4   -725017.594 3
 91  8  1  1 51 45.0020000  0  4 03 23 21 17
  21280886.351     1867344.582 3   1455072.691 2
  21616958.786   -11689345.699 3  -9108549.589 3
  25319817.459       14945.189 2     11647.543 1
  21224350.891     -922191.376 4   -718585.892 3
 91  8  1  1 52  0.0020000  0  4 03 23 21 17
  21286330.278     1895936.734 3   1477352.262 2
  21614231.282   -11703680.890 3  -9119719.834 3
  25311960.498      -26283.427 2    -20478.442 1
  21225931.986     -913882.938 4   -712111.784 3
 91  8  1  1 52 15.0020000  0  4 03 23 21 17
  21291795.197     1924665.610 3   1499738.379 2
  21611523.845   -11717919.250 3  -9130814.630 2
  25304130.219      -67479.425 2    -52579.035 1
  21227518.786     -905519.890 4   -705595.109 3
 91  8  1  1 52 30.0020000  0  4 03 23 21 17
  21297285.594     1953530.515 3   1522230.490 2
  21608833.511   -11732061.643 4  -9141834.640 2
  25296284.043     -108643.400 2    -84654.624 1
  21229126.283     -897102.801 4   -699036.332 3
 91  8  1  1 52 45.0020000  0  4 03 23 21 17
  21302805.081     1982533.468 3   1544830.185 2
  21606159.369   -11746106.018 3  -9152778.276 3
  25288459.766     -149773.324 2   -116703.786 1
  21230735.559     -888629.680 4   -692433.897 3
 91  8  1  1 53  0.0020000  0  4 03 23 21 17
  21308353.639     2011673.710 3   1567536.845 2
  21603507.111   -11760052.791 4  -9163645.855 3
  25280634.879     -190869.672 2   -148726.718 1
  21232358.639     -880101.281 4   -685788.381 3
 91  8  1  1 53 15.0020000  0  4 03 23 21 17
  21313921.672     2040949.431 3   1590349.069 2
  21600868.638   -11773903.973 3  -9174438.954 2
  25272818.700     -231933.899 2   -180725.065 1
  21233994.614     -871519.237 4   -679101.066 3
 91  8  1  1 53 30.0020000  0  4 03 23 21 17
  21319519.109     2070363.456 3   1613269.070 2
  21598252.641   -11787656.809 3  -9185155.408 3
  25265030.685     -272963.179 2   -212695.719 1
  21235633.870     -862880.803 4   -672369.812 3
 91  8  1  1 53 45.0020000  0  4 03 23 21 17
  21325145.007     2099916.654 3   1636297.523 2
  21595652.541   -11801310.415 4  -9195794.543 3
  25257210.004     -313956.700 2   -244638.511 1
  21237291.728     -854185.123 4   -665593.953 3
 91  8  1  1 54  0.0020000  0  4 03 23 21 17
  21330793.694     2129606.729 3   1659432.625 2
  21593074.324   -11814866.851 4  -9206357.975 3
  25249431.587     -354916.343 2   -276554.888 1
  21238955.868     -845434.160 4   -658775.009 3
 91  8  1  1 54 15.0020000  0  4 03 23 21 17
  21336469.971     2159433.493 3   1682674.238 2
  21590512.893   -11828326.321 4  -9216845.836 3
  25241644.776     -395842.018 2   -308444.862 1
  21240631.421     -836628.290 4   -651913.289 3
 91  8  1  1 54 30.0020000  0  4 03 23 21 17
  21342172.022     2189396.765 3   1706022.228 2
  21587969.158   -11841689.234 4  -9227258.457 3
  25233843.272     -436734.107 1   -340308.650 1
  21242318.647     -827767.620 4   -645008.865 3
 91  8  1  1 54 45.0020000  0  4 03 23 21 17
  21347898.660     2219496.803 3   1729476.774 2
  21585446.415   -11854955.387 4  -9237595.692 3
  25226069.061     -477592.125 2   -372145.901 1
  21244012.174     -818851.690 4   -638061.383 3
 91  8  1  1 55  0.0020000  0  3 03 23 17
  21353656.464     2249735.389 3   1753039.295 2
  21582940.441   -11868122.837 4  -9247856.006 3
  21245720.096     -809878.688 4   -631069.429 3
 91  8  1  1 55 15.0020000  0  3 03 23 17
  21359433.166     2280111.501 3   1776708.984 2
  21580452.459   -11881192.402 4  -9258040.053 3
  21247438.803     -800849.727 4   -624033.863 3
 91  8  1  1 55 30.0020000  0  3 03 23 17
  21365242.257     2310627.519 3   1800487.685 2
  21577983.969   -11894161.858 4  -9268146.092 3
  21249168.905     -791762.416 4   -616952.841 3
 91  8  1  1 55 45.0020000  0  3 03 23 17
  21371074.713     2341279.928 3   1824372.645 2
  21575531.969   -11907034.621 4  -9278176.779 2
  21250908.901     -782619.883 4   -609828.782 3
 91  8  1  1 56  0.0020000  0  3 03 23 17
  21376934.164     2372070.600 3   1848365.360 2
  21573103.055   -11919808.667 4  -9288130.536 3
  21252657.884     -773420.445 4   -602660.385 3
 91  8  1  1 56 15.0020000  0  3 03 23 17
  21382818.779     2403000.234 3   1872466.368 2
  21570691.819   -11932483.473 4  -9298006.980 3
  21254420.967     -764163.152 4   -595446.907 3
 91  8  1  1 56 30.0020000  0  3 03 23 17
  21388733.094     2434067.301 3   1896674.450 2
  21568298.871   -11945060.667 4  -9307807.361 3
  21256191.553     -754849.739 4   -588189.701 3
 91  8  1  1 56 45.0020000  0  3 03 23 17
  21394668.088     2465270.135 3   1920988.330 2
  21565921.820   -11957541.802 4  -9317532.889 3
  21257977.408     -745481.634 4   -580889.875 3
 91  8  1  1 57  0.0020000  0  3 03 23 17
  21400633.357     2496611.689 3   1945410.304 2
  21563567.855   -11969923.883 4  -9327181.226 3
  21259769.563     -736055.836 4   -573545.095 3
 91  8  1  1 57 15.0020000  0  3 03 23 17
  21406624.401     2528091.679 3   1969940.143 2
  21561228.566   -11982207.299 4  -9336752.686 3
  21261575.521     -726572.800 4   -566155.706 3
 91  8  1  1 57 30.0020000  0  3 03 23 17
  21412639.142     2559709.808 3   1994577.630 2
  21558910.270   -11994392.101 4  -9346247.308 3
  21263389.262     -717032.476 4   -558721.690 3
 91  8  1  1 57 45.0020000  0  3 03 23 17
  21418677.860     2591463.181 3   2019320.502 2
  21556610.261   -12006481.195 4  -9355667.345 3
  21265214.991     -707437.831 4   -551245.350 3
 91  8  1  1 58  0.0020000  0  3 03 23 17
  21424750.448     2623351.185 3   2044168.282 2
  21554329.448   -12018475.155 4  -9365013.251 3
  21267049.428     -697789.186 4   -543726.914 3
 91  8  1  1 58 15.0020000  0  3 03 23 17
  21430846.734     2655377.576 3   2069123.892 2
  21552066.923   -12030370.455 4  -9374282.289 3
  21268896.149     -688083.177 4   -536163.788 3
 91  8  1  1 58 30.0020000  0  3 03 23 17
  21436964.903     2687539.641 3   2094185.218 2
  21549820.574   -12042169.434 4  -9383476.264 3
  21270756.657     -678321.917 4   -528557.616 3
 91  8  1  1 58 45.0020000  0  3 03 23 17
  21443110.049     2719838.553 3   2119353.193 2
  21547593.106   -12053871.149 4  -9392594.448 3
  21272624.964     -668504.684 4   -520907.821 3
 91  8  1  1 59  0.0020000  0  3 03 23 17
  21449285.472     2752275.484 3   2144628.701 2
  21545385.444   -12065474.188 4  -9401635.744 3
  21274501.665     -658629.895 4   -513213.174 3
 91  8  1  1 59 15.0020000  0  3 03 23 17
  21455483.074     2784847.555 3   2170009.514 2
  21543196.052   -12076981.567 4  -9410602.508 3
  21276392.152     -648700.256 4   -505475.791 3
 91  8  1  1 59 30.0020000  0  3 03 23 17
  21461705.263     2817557.492 3   2195497.764 2
  21541023.762   -12088390.447 4  -9419492.503 3
  21278293.441     -638713.207 4   -497693.679 3
 91  8  1  1 59 45.0020000  0  3 03 23 17
  21467956.245     2850403.691 3   2221092.186 2
  21538870.353   -12099702.327 3  -9428306.926 3
  21280207.921     -628670.101 4   -489867.878 3
 91  8  1  2  0  0.0020000  0  3 03 23 17
  21474235.688     2883387.299 3   2246793.676 2
  21536735.824   -12110916.207 3  -9437044.986 3
  21282125.997     -618569.729 4   -481997.455 3
 91  8  1  2  0 15.0020000  0  3 03 23 17
  21480537.328     2916508.193 3   2272602.150 2
  21534620.195   -12122032.200 3  -9445706.766 3
  21284059.656     -608412.613 4   -474082.820 3
 91  8  1  2  0 30.0020000  0  3 03 23 17
  21486865.947     2949765.516 3   2298516.933 2
  21532524.947   -12133050.888 4  -9454292.715 3
  21285999.317     -598198.655 4   -466123.895 3
 91  8  1  2  0 45.0020000  0  3 03 23 17
  21493218.559     2983156.083 3   2324535.538 2
  21530444.986   -12143975.817 4  -9462805.624 3
  21287956.656     -587931.556 4   -458123.562 3
 91  8  1  2  1  0.0020000  0  3 03 23 17
  21499601.133     3016683.512 3   2350660.773 2
  21528385.703   -12154803.033 4  -9471242.383 3
  21289923.295     -577607.178 4   -450078.601 3
 91  8  1  2  1 15.0020000  0  3 03 23 17
  21506005.607     3050346.740 3   2376891.848 2
  21526345.023   -12165533.872 4  -9479604.042 3
  21291896.234     -567226.925 4   -441990.082 3
 91  8  1  2  1 30.0020000  0  3 03 23 17
  21512437.042     3084145.938 3   2403228.875 2
  21524318.424   -12176167.760 4  -9487890.154 3
  21293882.645     -556790.288 4   -433857.637 3
 91  8  1  2  1 45.0020000  0  3 03 23 17
  21518894.286     3118080.475 3   2429671.327 2
  21522314.319   -12186705.459 3  -9496101.324 3
  21295878.967     -546297.920 4   -425681.772 3
 91  8  1  2  2  0.0020000  0  3 03 23 17
  21525379.397     3152150.743 3   2456219.567 2
  21520326.687   -12197146.422 4  -9504237.104 3
  21297886.388     -535749.250 4   -417462.027 3
 91  8  1  2  2 15.0020000  0  3 03 23 17
  21531889.690     3186358.245 3   2482874.739 2
  21518360.640   -12207489.050 3  -9512296.262 3
  21299902.185     -525142.637 4   -409197.133 3
 91  8  1  2  2 30.0020000  0  3 03 23 17
  21538420.067     3220699.937 3   2509634.483 2
  21516409.008   -12217736.408 3  -9520281.189 3
  21301934.472     -514480.880 4   -400889.269 3
 91  8  1  2  2 45.0020000  0  3 03 23 17
  21544983.426     3255180.935 3   2536502.783 2
  21514478.037   -12227883.634 3  -9528188.092 3
  21303974.263     -503759.166 4   -392534.693 3
 91  8  1  2  3  0.0020000  0  3 03 23 17
  21551571.057     3289798.248 3   2563477.281 2
  21512564.463   -12237933.328 4  -9536018.989 3
  21306024.838     -492980.048 4   -384135.378 3
 91  8  1  2  3 15.0020000  0  3 03 23 17
  21558186.871     3324550.429 3   2590556.873 2
  21510672.179   -12247887.112 4  -9543775.154 3
  21308085.621     -482145.068 4   -375692.529 3
 91  8  1  2  3 30.0020000  0  3 03 23 17
  21564821.583     3359435.675 3   2617740.159 2
  21508794.571   -12257746.655 3  -9551457.895 3
  21310160.191     -471255.921 4   -367207.487 3
 91  8  1  2  3 45.0020000  0  3 03 23 17
  21571485.979     3394454.992 3   2645027.912 2
  21506937.955   -12267511.016 4  -9559066.462 3
  21312239.244     -460311.325 4   -358679.229 3
 91  8  1  2  4  0.0020000  0  3 03 23 17
  21578179.446     3429615.225 3   2672425.473 2
  21505098.737   -12277173.248 4  -9566595.438 3
  21314338.383     -449304.543 4   -350102.514 3
 91  8  1  2  4 15.0020000  0  3 03 23 17
  21584895.686     3464913.097 3   2699930.282 2
  21503278.993   -12286736.611 4  -9574047.386 3
  21316445.340     -438238.567 4   -341479.669 3
 91  8  1  2  4 30.0020000  0  3 03 23 17
  21591636.827     3500347.767 3   2727541.686 2
  21501478.131   -12296201.866 4  -9581422.885 3
  21318558.562     -427114.150 4   -332811.300 3
 91  8  1  2  4 45.0020000  0  3 03 23 17
  21598407.337     3535919.310 3   2755259.743 2
  21499693.776   -12305568.947 4  -9588721.878 3
  21320685.900     -415931.127 4   -324097.253 3
 91  8  1  2  5  0.0020000  0  3 03 23 17
  21605200.323     3571625.985 3   2783083.103 2
  21497934.585   -12314839.362 4  -9595945.560 3
  21322825.524     -404691.072 4   -315338.770 3
 91  8  1  2  5 15.0020000  0  3 03 23 17
  21612023.602     3607466.928 3   2811011.090 2
  21496186.195   -12324014.132 4  -9603094.699 3
  21324974.727     -393394.815 4   -306536.487 3
 91  8  1  2  5 30.0020000  0  3 03 23 17
  21618868.171     3643443.836 3   2839045.014 2
  21494460.002   -12333091.358 4  -9610167.835 3
  21327135.326     -382040.593 4   -297689.039 3
 91  8  1  2  5 45.0020000  0  3 03 23 17
  21625742.405     3679555.447 3   2867183.907 2
  21492748.188   -12342072.314 4  -9617165.957 3
  21329306.133     -370629.264 4   -288797.099 3
 91  8  1  2  6  0.0020000  0  3 03 23 17
  21632637.038     3715804.054 3   2895429.561 2
  21491058.257   -12350954.629 4  -9624087.211 3
  21331488.021     -359158.597 4   -279858.916 3
 91  8  1  2  6 15.0020000  0  3 03 23 17
  21639558.650     3752188.407 3   2923780.970 2
  21489390.208   -12359739.601 4  -9630932.623 3
  21333685.492     -347629.629 4   -270875.301 3
 91  8  1  2  6 30.0020000  0  3 03 23 17
  21646509.333     3788707.961 3   2952237.744 2
  21487735.945   -12368427.754 4  -9637702.591 3
  21335887.169     -336042.818 4   -261846.619 3
 91  8  1  2  6 45.0020000  0  3 03 23 17
  21653486.402     3825363.494 3   2980800.480 2
  21486100.580   -12377018.123 3  -9644396.353 3
  21338103.538     -324397.346 4   -252772.225 3
 91  8  1  2  7  0.0020000  0  3 03 23 17
  21660489.558     3862155.595 3   3009469.626 2
  21484482.910   -12385510.177 4  -9651013.516 3
  21340332.804     -312692.546 4   -243651.597 3
 91  8  1  2  7 15.0020000  0  3 03 23 17
  21667514.597     3899083.792 3   3038244.816 2
  21482884.400   -12393904.183 3  -9657554.282 3
  21342572.242     -300928.764 4   -234485.012 3
 91  8  1  2  7 30.0020000  0  3 03 23 17
  21674567.207     3936146.117 3   3067124.535 2
  21481308.698   -12402202.324 4  -9664020.344 3
  21344821.890     -289107.829 4   -225273.888 3
 91  8  1  2  7 45.0020000  0  3 03 23 17
  21681646.813     3973346.732 3   3096112.013 1
  21479745.280   -12410400.232 3  -9670408.291 3
  21347082.024     -277225.191 4   -216014.692 3
 91  8  1  2  8  0.0020000  0  3 03 23 17
  21688752.786     4010682.507 3   3125204.777 2
  21478203.449   -12418500.941 3  -9676720.519 3
  21349354.147     -265283.855 4   -206709.750 3
 91  8  1  2  8 15.0020000  0  3 03 23 17
  21695881.252     4048150.263 3   3154400.428 2
  21476680.499   -12426507.685 4  -9682959.516 3
  21351638.573     -253286.975 4   -197361.526 3
 91  8  1  2  8 30.0020000  0  3 03 23 17
  21703037.307     4085753.449 3   3183701.563 2
  21475176.447   -12434416.906 4  -9689122.517 3
  21353931.985     -241231.022 4   -187967.280 3
 91  8  1  2  8 45.0020000  0  3 03 23 17
  21710218.229     4123493.007 3   3213108.995 2
  21473687.071   -12442227.682 4  -9695208.816 3
  21356238.276     -229114.854 4   -178526.110 3
 91  8  1  2  9  0.0020000  0  3 03 23 17
  21717423.738     4161363.760 3   3242618.653 2
  21472220.799   -12449944.967 4  -9701222.263 3
  21358555.682     -216943.461 4   -169041.902 3
 91  8  1  2  9 15.0020000  0  3 03 23 17
  21724655.928     4199368.332 3   3272232.564 2
  21470771.297   -12457566.197 4  -9707160.863 3
  21360880.871     -204714.266 4   -159512.655 3
 91  8  1  2  9 30.0020000  0  3 03 23 17
  21731916.615     4237510.140 3   3301953.441 2
  21469340.379   -12465087.818 4  -9713021.838 3
  21363216.845     -192423.569 4   -149935.491 3
 91  8  1  2  9 45.0020000  0  3 03 23 17
  21739198.573     4275787.286 3   3331779.757 2
  21467926.859   -12472511.802 4  -9718806.734 3
  21365568.419     -180073.010 4   -140311.678 3
 91  8  1  2 10  0.0020000  0  3 03 23 17
  21746508.399     4314199.900 3   3361711.632 2
  21466532.831   -12479837.834 4  -9724515.302 3
  21367931.387     -167662.368 4   -130641.042 3
 91  8  1  2 10 15.0020000  0  3 03 23 17
  21753843.127     4352745.688 3   3391747.293 2
  21465156.480   -12487068.134 4  -9730149.288 3
  21370303.047     -155193.847 4   -120925.308 3
 91  8  1  2 10 30.0020000  0  3 03 23 17
  21761203.629     4391424.630 3   3421886.707 1
  21463797.823   -12494202.821 4  -9735708.754 3
  21372688.788     -142667.484 4   -111164.506 3
 91  8  1  2 10 45.0020000  0  3 03 23 17
  21768590.812     4430237.794 3   3452130.703 2
  21462461.346   -12501240.569 4  -9741192.692 3
  21375083.237     -130081.712 4   -101357.410 3
 91  8  1  2 11  0.0020000  0  3 03 23 17
  21776001.082     4469186.844 3   3482480.569 2
  21461139.265   -12508179.889 4  -9746599.934 3
  21377487.580     -117434.853 4    -91502.703 3
 91  8  1  2 11 15.0020000  0  3 03 23 17
  21783440.738     4508268.744 3   3512933.979 2
  21459835.472   -12515023.451 4  -9751932.555 3
  21379907.489     -104729.699 4    -81602.581 3
 91  8  1  2 11 30.0020000  0  3 03 23 17
  21790901.980     4547482.993 3   3543490.495 2
  21458551.747   -12521771.832 4  -9757191.007 3
  21382334.012      -91966.623 4    -71657.329 3
 91  8  1  2 11 45.0020000  0  3 03 23 17
  21798386.291     4586829.235 3   3574149.884 2
  21457286.327   -12528425.580 4  -9762375.720 3
  21384774.320      -79145.965 4    -61667.205 3
 91  8  1  2 12  0.0020000  0  3 03 23 17
  21805902.379     4626309.586 3   3604913.766 2
  21456038.287   -12534982.202 3  -9767484.756 3
  21387227.227      -66265.609 4    -51630.553 3
 91  8  1  2 12 15.0020000  0  3 03 23 17
  21813439.774     4665927.632 3   3635784.948 2
  21454808.850   -12541438.021 4  -9772515.246 3
  21389687.324      -53321.484 4    -41544.218 3
 91  8  1  2 12 30.0020000  0  3 03 23 17
  21821005.037     4705680.856 3   3666761.461 2
  21453598.590   -12547795.614 3  -9777469.190 3
  21392167.210      -40316.109 4    -31410.157 3
 91  8  1  2 12 45.0020000  0  3 03 23 17
  21828596.073     4745566.910 3   3697841.469 2
  21452409.898   -12554057.226 3  -9782348.343 3
  21394650.690      -27251.505 4    -21229.942 3
 91  8  1  2 13  0.0020000  0  3 03 23 17
  21836210.214     4785583.560 3   3729023.256 2
  21451233.823   -12560225.092 3  -9787154.448 3
  21397149.160      -14129.823 4    -11005.245 3
 91  8  1  2 13 15.0020000  0  3 03 23 17
  21843849.518     4825731.117 3   3760307.039 2
  21450079.614   -12566298.826 3  -9791887.207 3
  21399656.023        -950.613 4      -735.725 3
 91  8  1  2 13 30.0020000  0  3 03 23 17
  21851514.910     4866013.891 3   3791696.162 1
  21448941.615   -12572274.197 3  -9796543.314 3
  21402176.986       12290.672 4      9582.157 3
 91  8  1  2 13 45.0020000  0  3 03 23 17
  21859207.280     4906430.614 3   3823189.697 2
  21447823.388   -12578152.002 3  -9801123.398 3
  21404707.826       25593.186 4     19947.758 3
 91  8  1  2 14  0.0020000  0  3 03 23 17
  21866923.644     4946976.325 3   3854783.727 2
  21446722.541   -12583937.162 4  -9805631.295 3
  21407249.171       38951.839 4     30357.104 3
 91  8  1  2 14 15.0020000  0  3 03 23 17
  21874664.578     4987652.909 3   3886479.747 2
  21445642.983   -12589627.892 3  -9810065.611 3
  21409800.096       52368.504 4     40811.654 3
 91  8  1  2 14 30.0020000  0  3 03 23 17
  21882429.803     5028462.359 3   3918279.299 2
  21444574.838   -12595222.170 4  -9814424.762 3
  21412368.419       65845.652 4     51313.330 3
 91  8  1  2 14 45.0020000  0  3 03 23 17
  21890218.725     5069405.515 3   3950183.009 2
  21443529.448   -12600719.111 4  -9818708.071 3
  21414943.339       79384.314 4     61862.947 3
 91  8  1  2 15  0.0020000  0  3 03 23 17
  21898035.812     5110481.709 3   3982190.416 2
  21442502.659   -12606119.202 4  -9822915.911 3
  21417527.855       92984.043 4     72460.145 3
 91  8  1  2 15 15.0020000  0  3 03 23 17
  21905878.080     5151684.564 3   4014296.509 1
  21441489.971   -12611428.892 4  -9827053.311 3
  21420127.659      106638.501 4     83099.985 3
 91  8  1  2 15 30.0020000  0  3 03 23 17
  21913743.137     5193018.885 3   4046505.023 2
  21440498.258   -12616642.983 4  -9831116.212 3
  21422737.949      120352.887 4     93786.523 3
 91  8  1  2 15 45.0020000  0  3 03 23 17
  21921636.970     5234488.438 3   4078818.956 2
  21439526.629   -12621758.081 4  -9835101.978 3
  21425357.227      134130.492 4    104522.331 3
 91  8  1  2 16  0.0020000  0  3 03 23 17
  21929552.092     5276090.160 3   4111235.843 2
  21438570.584   -12626776.908 4  -9839012.733 3
  21427992.402      147968.985 4    115305.580 3
 91  8  1  2 16 15.0020000  0  3 03 23 17
  21937491.191     5317821.419 3   4143753.693 1
  21437631.030   -12631702.035 4  -9842850.465 3
  21430638.675      161866.014 4    126134.442 3
 91  8  1  2 16 30.0020000  0  3 03 23 17
  21945458.175     5359685.487 3   4176375.010 2
  21436713.078   -12636530.031 4  -9846612.517 3
  21433295.436      175824.938 4    137011.532 3
 91  8  1  2 16 45.0020000  0  3 03 23 17
  21953449.746     5401682.310 3   4209099.782 1
  21435814.898   -12641261.067 3  -9850299.022 3
  21435962.388      189845.488 4    147936.649 3
 91  8  1  2 17  0.0020000  0  3 03 23 17
  21961467.388     5443806.221 3   4241923.571 2
  21434929.910   -12645900.565 3  -9853914.194 3
  21438639.530      203922.683 4    158905.895 3
 91  8  1  2 17 15.0020000  0  3 03 23 17
  21969507.821     5486061.724 3   4274849.905 1
  21434066.212   -12650444.100 4  -9857454.590 3
  21441331.069      218061.034 4    169922.796 3
 91  8  1  2 17 30.0020000  0  3 03 23 17
  21977572.543     5528450.693 3   4307880.243 2
  21433221.098   -12654889.505 4  -9860918.518 3
  21444036.097      232262.656 4    180989.001 3
 91  8  1  2 17 45.0020000  0  3 03 23 17
  21985666.635     5570968.713 3   4341011.150 1
  21432393.958   -12659241.181 4  -9864309.413 3
  21446747.425      246523.396 4    192101.278 3
 91  8  1  2 18  0.0020000  0  3 03 23 17
  21993780.829     5613612.679 3   4374240.172 2
  21431582.121   -12663502.136 3  -9867629.617 3
  21449471.648      260840.357 4    203257.355 3
 91  8  1  2 18 15.0020000  0  3 03 23 17
  22001920.483     5656385.603 3   4407569.707 1
  21430787.683   -12667669.485 3  -9870876.872 3
  21452208.750      275216.746 4    214459.733 3
 91  8  1  2 18 30.0020000  0  3 03 23 17
  22010087.133     5699290.227 3   4441001.848 1
  21430012.404   -12671740.317 4  -9874048.925 3
  21454954.838      289655.370 4    225710.622 3
 91  8  1  2 18 45.0020000  0  3 03 23 17
  22018274.757     5742325.587 3   4474535.861 2
  21429257.525   -12675715.400 3  -9877146.377 3
  21457716.824      304155.606 4    237009.510 3
 91  8  1  2 19  0.0020000  0  3 03 23 17
  22026488.488     5785493.644 3   4508173.278 1
  21428521.545   -12679592.646 3  -9880167.587 3
  21460483.922      318719.579 4    248358.067 3
 91  8  1  2 19 15.0020000  0  3 03 23 17
  22034726.770     5828789.498 3   4541910.290 2
  21427799.036   -12683377.006 3  -9883116.415 3
  21463268.994      333342.447 4    259752.512 3
 91  8  1  2 19 30.0020000  0  3 03 23 17
  22042988.454     5872211.161 3   4575745.321 2
  21427097.537   -12687070.346 3  -9885994.315 3
  21466061.849      348022.652 4    271191.644 3
 91  8  1  2 19 45.0020000  0  3 03 23 17
  22051277.412     5915763.124 3   4609681.874 2
  21426411.901   -12690668.049 4  -9888797.706 3
  21468869.118      362764.780 4    282679.014 3
 91  8  1  2 20  0.0020000  0  3 03 23 17
  22059589.457     5959444.190 3   4643719.044 2
  21425745.756   -12694171.351 3  -9891527.527 3
  21471683.856      377567.562 4    294213.652 3
 91  8  1  2 20 15.0020000  0  3 03 23 17
  22067927.886     6003257.677 3   4677859.396 2
  21425098.510   -12697576.717 4  -9894181.032 3
  21474514.805      392435.002 4    305798.678 3
 91  8  1  2 20 30.0020000  0  3 03 23 17
  22076287.012     6047197.534 3   4712098.225 2
  21424466.254   -12700889.961 4  -9896762.759 3
  21477353.833      407361.327 4    317429.590 3
 91  8  1  2 20 45.0020000  0  3 03 23 17
  22084673.098     6091263.130 3   4746435.014 2
  21423854.083   -12704112.147 4  -9899273.539 3
  21480206.071      422345.773 4    329105.782 3
 91  8  1  2 21  0.0020000  0  3 03 23 17
  22093083.474     6135453.795 3   4780869.280 1
  21423257.495   -12707243.392 4  -9901713.444 3
  21483070.280      437387.902 4    340826.923 3
 91  8  1  2 21 15.0020000  0  3 03 23 17
  22101519.032     6179770.826 3   4815401.998 1
  21422679.491   -12710282.441 4  -9904081.511 3
  21485942.289      452489.364 4    352594.298 3
 91  8  1  2 21 30.0020000  0  3 03 23 17
  22109973.488     6224212.908 3   4850032.162 2
  21422120.072   -12713230.363 4  -9906378.573 3
  21488825.100      467649.161 4    364407.138 3
 91  8  1  2 21 45.0020000  0  3 03 23 17
  22118455.219     6268780.498 3   4884760.129 2
  21421575.660   -12716086.690 4  -9908604.268 3
  21491721.382      482867.628 4    376265.683 3
 91  8  1  2 22  0.0020000  0  3 03 23 17
  22126961.816     6313473.719 3   4919585.989 1
  21421048.018   -12718851.350 3  -9910758.522 3
  21494632.672      498145.447 4    388170.481 3
 91  8  1  2 22 15.0020000  0  3 03 23 17
  22135485.218     6358290.340 3   4954507.998 2
  21420541.665   -12721526.475 3  -9912843.016 3
  21497547.853      513480.431 4    400119.821 3
 91  8  1  2 22 30.0020000  0  3 03 23 17
  22144042.490     6403234.948 3   4989529.733 2
  21420047.911   -12724107.372 3  -9914854.079 3
  21500476.837      528877.190 4    412117.299 3
 91  8  1  2 22 45.0020000  0  3 03 23 17
  22152616.568     6448303.950 3   5024648.414 1
  21419573.632   -12726597.419 3  -9916794.363 3
  21503419.590      544332.707 4    424160.562 3
 91  8  1  2 23  0.0020000  0  3 03 23 17
  22161218.809     6493497.643 3   5059864.247 2
  21419120.048   -12728996.277 3  -9918663.582 3
  21506371.346      559847.179 4    436249.767 3
 91  8  1  2 23 15.0020000  0  3 03 23 17
  22169839.932     6538813.746 3   5095175.463 2
  21418677.563   -12731306.002 3  -9920463.346 3
  21509338.093      575419.021 4    448383.666 3
 91  8  1  2 23 30.0020000  0  4 03 23 21 17
  22178489.552     6584257.871 3   5130586.441 2
  21418259.054   -12733520.948 3  -9922189.266 3
  15164809.914      639179.19912    498065.666 1
  21512308.434      591054.106 4    460566.857 3
 91  8  1  2 23 45.0020000  0  4 03 23 21 17
  22187161.053     6629828.795 3   5166096.236 2
  21417854.035   -12735642.337 3  -9923842.272 3
  15157968.364      603214.623 2    470041.438 1
  21515297.674      606751.192 4    472798.352 3
 91  8  1  2 24  0.0020000  0  4 03 23 21 17
  22195861.627     6675523.269 3   5201702.267 1
  21417466.396   -12737673.350 3  -9925424.863 3
  15151127.390      567296.199 2    442053.158 1
  21518294.993      622507.265 4    485075.817 3
 91  8  1  2 24 15.0020000  0  4 03 23 21 17
  22204572.392     6721341.783 3   5237404.983 2
  21417098.859   -12739613.348 3  -9926936.522 3
  15144294.217      531424.685 2    414101.435 1
  21521305.208      638322.948 4    497399.730 3
 91  8  1  2 24 30.0020000  0  4 03 23 21 17
  22213316.434     6767285.762 3   5273205.451 2
  21416746.592   -12741460.844 4  -9928376.111 3
  15137481.739      495601.823 2    386187.653 1
  21524326.818      654200.053 4    509771.499 3
 91  8  1  2 24 45.0020000  0  4 03 23 21 17
  22222083.267     6813359.313 3   5309106.876 1
  21416415.317   -12743211.493 4  -9929740.236 3
  24424831.442      632107.04912    492555.261 1
  21527357.118      670142.915 4    522194.507 3
 91  8  1  2 25  0.0020000  0  4 03 23 21 17
  22230877.077     6859556.492 3   5345104.644 1
  21416098.735   -12744871.321 4  -9931033.588 3
  24418033.046      596384.581 2    464719.707 1
  21530404.816      686145.626 4    534664.158 3
 91  8  1  2 25 15.0020000  0  4 03 23 21 17
  22239687.692     6905880.004 3   5381200.857 2
  21415800.755   -12746437.258 4  -9932253.775 3
  24411240.950      560712.611 2    436923.433 1
  21533462.687      702211.451 4    547182.986 3
 91  8  1  2 25 30.0020000  0  4 03 23 21 17
  22248528.566     6952328.486 3   5417394.454 1
  21415519.248   -12747910.778 4  -9933401.953 3
  24404464.734      525089.851 2    409165.583 1
  21536533.472      718338.988 4    559749.896 3
 91  8  1  2 25 45.0020000  0  4 03 23 21 17
  22257392.526     6998897.756 3   5453682.144 1
  21415253.621   -12749295.980 4  -9934481.311 3
  24397691.833      489512.470 2    381443.001 1
  21539612.039      734524.308 4    572361.836 3
 91  8  1  2 26  0.0020000  0  4 03 23 21 17
  22266276.571     7045595.765 3   5490070.184 2
  21415011.394   -12750584.588 4  -9935485.400 3
  24390931.811      453988.743 2    353762.338 1
  21542703.502      750775.786 4    585025.332 3
 91  8  1  2 26 15.0020000  0  4 03 23 21 17
  22275191.504     7092416.278 3   5526553.642 1
  21414781.453   -12751782.678 4  -9936418.960 3
  24384181.386      418512.801 2    326118.828 1
  21545808.751      767087.555 4    597735.803 3
 91  8  1  2 26 30.0020000  0  4 03 23 21 17
  22284117.831     7139360.188 3   5563133.287 2
  21414571.300   -12752889.542 4  -9937281.433 3
  24377446.544      383085.626 2    298513.351 1
  21548924.487      783460.396 4    610493.861 3
 91  8  1  2 26 45.0020000  0  4 03 23 21 17
  22293076.529     7186427.580 3   5599809.152 1
  21414377.027   -12753904.877 3  -9938072.581 3
  24370711.703      347707.799 2    270946.319 1
  21552050.118      799895.033 4    623300.074 3
 91  8  1  2 27  0.0020000  0  4 03 23 21 17
  22302055.311     7233621.361 3   5636583.487 1
  21414202.856   -12754825.927 3  -9938790.261 3
  24363990.053      312382.250 2    243420.023 1
  21555192.850      816394.094 4    636156.488 3
 91  8  1  2 27 15.0020000  0  4 03 23 21 17
  22311064.370     7280942.049 3   5673456.728 1
  21414045.158   -12755651.957 3  -9939433.902 3
  24357275.908      277109.825 2    215935.135 1
  21558342.178      832958.461 4    649063.792 3
 91  8  1  2 27 30.0020000  0  4 03 23 21 17
  22320090.216     7328384.760 3   5710425.032 2
  21413906.359   -12756387.403 4  -9940006.962 3
  24350566.561      241886.033 2    188488.021 1
  21561506.775      849583.999 4    662018.753 3
 91  8  1  2 27 45.0020000  0  4 03 23 21 17
  22329141.260     7375951.737 3   5747490.177 1
  21413782.847   -12757029.944 3  -9940507.626 3
  24343876.391      206713.394 2    161080.984 1
  21564681.877      866272.945 4    675023.137 3
 91  8  1  2 28  0.0020000  0  4 03 23 21 17
  22338219.875     7423643.194 3   5784652.319 1
  21413678.512   -12757579.342 4  -9940935.709 3
  24337198.211      171592.535 2    133714.212 1
  21567870.782      883025.650 4    688077.193 3
 91  8  1  2 28 15.0020000  0  4 03 23 21 17
  22347312.573     7471455.691 3   5821908.768 2
  21413589.777   -12758039.098 4  -9941293.938 3
  24330527.219      136520.185 2    106385.153 1
  21571072.251      899838.876 4    701178.415 3
 91  8  1  2 28 30.0020000  0  4 03 23 21 17
  22356436.768     7519389.688 3   5859259.906 1
  21413521.722   -12758408.542 4  -9941581.800 3
  24323864.342      101497.191 2     79094.640 1
  21574279.444      916713.422 4    714327.405 3
 91  8  1  2 28 45.0020000  0  3 03 23 17
  22365586.127     7567448.600 3   5896708.364 1
  21413468.656   -12758683.920 4  -9941796.363 3
  21577504.297      933653.207 4    727527.247 3
 91  8  1  2 29  0.0020000  0  3 03 23 17
  22374752.587     7615628.924 3   5934251.440 2
  21413436.582   -12758868.957 4  -9941940.530 3
  21580737.875      950654.501 4    740775.012 3
 91  8  1  2 29 15.0020000  0  3 03 23 17
  22383943.320     7663933.050 3   5971890.989 1
  21413416.793   -12758961.024 4  -9942012.250 3
  21583987.315      967720.276 4    754073.023 3
 91  8  1  2 29 30.0020000  0  3 03 23 17
  22393159.234     7712362.676 3   6009628.329 1
  21413414.106   -12758958.430 4  -9942010.208 3
  21587248.760      984852.412 4    767422.733 3
 91  8  1  2 29 45.0020000  0  3 03 23 17
  22402400.345     7760917.019 3   6047462.873 1
  21413433.581   -12758861.721 4  -9941934.832 3
  21590519.193     1002050.468 4    780823.822 3
 91  8  1  2 30  0.0020000  0  3 03 23 17
  22411659.431     7809589.840 3   6085389.686 1
  21413469.266   -12758677.132 4  -9941790.979 3
  21593804.319     1019308.586 4    794271.704 3
 91  8  1  2 30 15.0020000  0  3 03 23 17
  22420947.309     7858384.823 3   6123411.718 2
  21413523.519   -12758400.681 4  -9941575.536 3
  21597099.042     1036630.725 4    807769.477 3
 91  8  1  2 30 30.0020000  0  3 03 23 17
  22430254.959     7907303.230 3   6161529.909 1
  21413593.372   -12758031.209 4  -9941287.618 3
  21600408.144     1054017.989 4    821317.993 3
 91  8  1  2 30 45.0020000  0  3 03 23 17
  22439588.696     7956339.720 3   6199740.123 1
  21413678.512   -12757573.841 4  -9940931.215 3
  21603728.955     1071465.468 4    834913.436 3
 91  8  1  2 31  0.0020000  0  3 03 23 17
  22448939.221     8005499.847 3   6238046.671 1
  21413784.941   -12757022.858 4  -9940501.858 3
  21607060.551     1088979.120 4    848560.444 3
 91  8  1  2 31 15.0020000  0  3 03 23 17
  22458321.819     8054782.199 3   6276448.493 1
  21413907.563   -12756379.388 4  -9940000.436 3
  21610407.119     1106557.956 4    862258.236 3
 91  8  1  2 31 30.0020000  0  3 03 23 17
  22467720.629     8104183.128 3   6314942.674 1
  21414048.160   -12755647.442 4  -9939430.073 3
  21613763.895     1124198.282 4    876003.954 3
 91  8  1  2 31 45.0020000  0  3 03 23 17
  22477141.600     8153705.771 3   6353531.709 1
  21414204.060   -12754823.192 4  -9938787.789 3
  21617133.567     1141903.688 4    889800.373 3
 91  8  1  2 32  0.0020000  0  3 03 23 17
  22486594.051     8203351.860 3   6392216.927 1
  21414377.637   -12753904.920 4  -9938072.227 3
  21620514.337     1159676.184 4    903649.068 3
 91  8  1  2 32 15.0020000  0  3 03 23 17
  22496062.400     8253118.831 3   6430996.368 1
  21414570.410   -12752895.300 4  -9937285.501 3
  21623910.376     1177513.494 4    917548.266 3
 91  8  1  2 32 30.0020000  0  3 03 23 17
  22505555.632     8303005.928 3   6469869.393 1
  21414779.655   -12751794.711 4  -9936427.889 3
  21627316.327     1195415.098 4    931497.572 3
 91  8  1  2 32 45.0020000  0  3 03 23 17
  22515072.841     8353012.045 3   6508835.161 1
  21415007.503   -12750604.399 4  -9935500.352 3
  21630733.953     1213379.843 4    945496.081 3
 91  8  1  2 33  0.0020000  0  3 03 23 17
  22524611.340     8403137.995 3   6547894.319 1
  21415252.731   -12749323.401 4  -9934502.153 3
  21634168.679     1231409.116 4    959544.861 3
 91  8  1  2 33 15.0020000  0  3 03 23 17
  22534171.110     8453385.975 3   6587048.541 1
  21415513.542   -12747949.194 4  -9933431.327 3
  21637606.703     1249505.461 4    973645.911 3
 91  8  1  2 33 30.0020000  0  3 03 23 17
  22543755.189     8503754.127 3   6626296.405 1
  21415792.361   -12746483.704 4  -9932289.374 3
  21641062.405     1267667.283 4    987797.988 3
 91  8  1  2 33 45.0020000  0  3 03 23 17
  22553364.727     8554243.363 3   6665638.626 1
  21416087.654   -12744925.640 4  -9931075.281 3
  21644534.300     1285895.639 4   1002001.908 3
 91  8  1  2 34  0.0020000  0  3 03 23 17
  22562996.165     8604852.006 3   6705073.889 1
  21416397.936   -12743276.748 4  -9929790.416 3
  21648015.497     1304189.125 4   1016256.568 3
 91  8  1  2 34 15.0020000  0  3 03 23 17
  22572645.577     8655581.250 3   6744603.138 1
  21416729.508   -12741535.500 4  -9928433.590 3
  21651509.274     1322549.567 4   1030563.408 3
 91  8  1  2 34 30.0030000  0  3 03 23 17
  22582327.083     8706432.296 3   6784227.275 1
  21417080.871   -12739704.087 4  -9927006.497 3
  21655014.451     1340975.965 4   1044921.645 3
 91  8  1  2 34 45.0030000  0  3 03 23 17
  22592026.263     8757399.845 3   6823942.221 1
  21417445.703   -12737781.220 4  -9925508.140 3
  21658532.205     1359467.759 4   1059330.833 3
 91  8  1  2 35  0.0030000  0  3 03 23 17
  22601744.638     8808486.795 3   6863750.208 1
  21417827.950   -12735766.908 4  -9923938.537 3
  21662064.967     1378025.813 4   1073791.661 3
 91  8  1  2 35 15.0030000  0  3 03 23 17
  22611486.990     8859691.899 3   6903650.238 1
  21418229.061   -12733662.436 4  -9922298.672 3
  21665609.403     1396649.331 3   1088303.500 3
 91  8  1  2 35 30.0030000  0  3 03 23 17
  22621255.727     8911014.188 3   6943641.591 1
  21418646.383   -12731468.463 4  -9920589.069 3
  21669164.047     1415337.728 3   1102865.894 3
 91  8  1  2 35 45.0030000  0  3 03 23 17
  22631043.048     8962455.012 3   6983725.316 1
  21419081.975   -12729183.767 4  -9918808.777 3
  21672731.883     1434092.372 3   1117479.906 3
 91  8  1  2 36  0.0030000  0  3 03 23 17
  22640856.457     9014012.925 3   7023900.278 1
  21419533.464   -12726809.266 4  -9916958.504 3
  21676316.193     1452912.335 4   1132144.809 3
 91  8  1  2 36 15.0030000  0  3 03 23 17
  22650688.154     9065688.241 3   7064166.725 1
  21420002.648   -12724344.782 4  -9915038.113 3
  21679909.804     1471798.221 3   1146861.090 3
 91  8  1  2 36 30.0030000  0  3 03 23 17
  22660542.938     9117482.545 3   7104525.874 1
  21420490.103   -12721788.407 4  -9913046.118 3
  21683515.420     1490751.626 3   1161629.983 3
 91  8  1  2 36 45.0030000  0  4 03 23 21 17
  22670427.387     9169393.916 3   7144976.252 1
  21420991.360   -12719141.960 4  -9910983.939 3
  24109549.008    -1024675.851 2   -798442.578 1
  21687136.305     1509771.184 3   1176450.421 3
 91  8  1  2 37  0.0030000  0  4 03 23 21 17
  22680328.344     9221425.292 3   7185520.157 1
  21421514.186   -12716402.706 4  -9908849.438 3
  24103235.379    -1057879.916 2   -824315.821 1
  21690769.196     1528860.055 3   1191324.862 3
 91  8  1  2 37 15.0030000  0  4 03 23 21 17
  22690246.663     9273571.474 3   7226153.510 1
  21422050.519   -12713575.413 4  -9906646.341 3
  24096925.642    -1091030.697 2   -850147.511 1
  21694413.168     1548013.336 3   1206249.507 3
 91  8  1  2 37 30.0030000  0  4 03 23 21 17
  22700193.480     9325835.106 3   7266878.368 1
  21422608.437   -12710657.563 4  -9904372.680 3
  24090632.099    -1124125.400 2   -875935.488 1
  21698073.037     1567233.846 3   1221226.525 3
 91  8  1  2 37 45.0030000  0  4 03 23 21 17
  22710163.086     9378213.784 3   7307692.889 1
  21423178.047   -12707651.280 4  -9902030.111 3
  24084339.167    -1157165.998 2   -901681.324 1
  21701739.503     1586519.638 3   1236254.423 3
 91  8  1  2 38  0.0030000  0  4 03 23 21 17
  22720151.573     9430707.032 3   7348596.678 1
  21423768.039   -12704556.755 4  -9899618.784 3
  24078057.908    -1190152.543 2   -927384.997 1
  21705423.052     1605870.854 3   1251333.300 3
 91  8  1  2 38 15.0030000  0  4 03 23 21 17
  22730162.833     9483316.434 3   7389590.980 1
  21424374.521   -12701372.381 4  -9897137.433 3
  24071802.145    -1223083.429 2   -953045.373 1
  21709116.198     1625288.994 3   1266464.324 3
 91  8  1  2 38 30.0030000  0  4 03 23 21 17
  22740196.289     9536040.855 3   7430674.887 1
  21424996.587   -12698099.260 4  -9894586.940 3
  24065537.970    -1255959.517 2   -978663.015 1
  21712825.818     1644773.041 3   1281646.701 3
 91  8  1  2 38 45.0030000  0  3 03 23 17
  22750250.424     9588879.806 3   7471848.073 1
  21425637.847   -12694737.526 4  -9891967.395 3
  21716546.257     1664322.796 4   1296880.278 3
 91  8  1  2 39  0.0030000  0  3 03 23 17
  22760329.460     9641834.285 3   7513111.271 1
  21426293.487   -12691286.246 4  -9889278.063 3
  21720280.167     1683939.881 3   1312166.329 3
 91  8  1  2 39 15.0030000  0  3 03 23 17
  22770425.860     9694903.835 3   7554464.111 1
  21426964.727   -12687745.528 4  -9886519.050 3
  21724024.268     1703623.999 3   1327504.604 3
 91  8  1  2 39 30.0030000  0  3 03 23 17
  22780548.050     9748090.127 3   7595907.937 1
  21427658.146   -12684113.584 4  -9883688.957 3
  21727783.377     1723377.480 3   1342896.929 3
 91  8  1  2 39 45.0030000  0  3 03 23 17
  22790692.438     9801388.491 3   7637439.087 1
  21428365.945   -12680395.040 4  -9880791.371 3
  21731553.252     1743195.637 3   1358339.654 3
 91  8  1  2 40  0.0030000  0  3 03 23 17
  22800854.206     9854802.839 3   7679060.603 1
  21429089.657   -12676585.738 4  -9877823.070 3
  21735340.228     1763082.709 3   1373836.080 3
 91  8  1  2 40 15.0030000  0  3 03 23 17
  22811042.341     9908328.132 3   7720768.572 1
  21429832.531   -12672690.804 4  -9874788.046 3
  21739137.117     1783033.918 4   1389382.477 3
 91  8  1  2 40 30.0030000  0  3 03 23 17
  22821246.076     9961968.613 3   7762566.307 1
  21430591.615   -12668705.641 4  -9871682.718 3
  21742947.476     1803053.868 4   1404982.435 3
 91  8  1  2 40 45.0030000  0  3 03 23 17
  22831476.790    10015725.329 3   7804454.625 1
  21431365.375   -12664629.178 4  -9868506.237 3
  21746769.824     1823143.845 4   1420636.970 3
 91  8  1  2 41  0.0030000  0  3 03 23 17
  22841727.903    10069591.528 3   7846428.236 1
  21432159.517   -12660467.764 4  -9865263.565 3
  21750603.864     1843297.789 4   1436341.350 3
 91  8  1  2 41 15.0030000  0  3 03 23 17
  22851999.084    10123571.957 3   7888490.843 1
  21432964.775   -12656216.692 4  -9861951.033 3
  21754451.114     1863520.335 4   1452099.177 3
 91  8  1  2 41 30.0030000  0  3 03 23 17
  22862291.257    10177665.562 3   7930641.647 1
  21433791.898   -12651876.907 4  -9858569.370 3
  21758313.039     1883810.900 4   1467910.012 3
 91  8  1  2 41 45.0030000  0  3 03 23 17
  22872609.222    10231870.163 3   7972878.964 1
  21434635.808   -12647450.373 4  -9855120.108 3
  21762185.451     1904167.661 3   1483772.428 3
 91  8  1  2 42  0.0030000  0  3 03 23 17
  22882944.270    10286190.401 3   8015206.375 1
  21435495.022   -12642932.570 4  -9851599.730 3
  21766075.559     1924595.217 3   1499690.005 3
 91  8  1  2 42 15.0030000  0  3 03 23 17
  22893300.294    10340624.541 3   8057622.540 1
  21436372.506   -12638324.549 4  -9848009.048 3
  21769975.857     1945092.539 4   1515661.941 3
 91  8  1  2 42 30.0030000  0  3 03 23 17
  22903681.516    10395169.358 3   8100124.962 1
  21437264.683   -12633629.902 4  -9844350.864 3
  21773885.159     1965656.452 3   1531685.768 3
 91  8  1  2 42 45.0030000  0  3 03 23 17
  22914083.416    10449827.993 2   8142716.069 1
  21438178.150   -12628845.218 4  -9840622.527 3
  21777813.640     1986290.625 3   1547764.349 3
 91  8  1  2 43  0.0030000  0  3 03 23 17
  22924507.199    10504594.034 3   8185390.843 1
  21439100.620   -12623976.561 4  -9836828.760 3
  21781753.497     2006989.117 3   1563893.047 3
 91  8  1  2 43 15.0030000  0  3 03 23 17
  22934947.769    10559471.687 2   8228152.595 1
  21440045.567   -12619019.574 4  -9832966.155 3
  21785702.970     2027756.317 3   1580075.273 3
 91  8  1  2 43 30.0030000  0  3 03 23 17
  22945411.722    10614459.342 3   8271000.075 2
  21441006.394   -12613975.880 4  -9829035.989 3
  21789670.417     2048590.941 4   1596310.044 3
 91  8  1  2 43 45.0030000  0  3 03 23 17
  22955895.761    10669555.042 3   8313931.767 1
  21441982.821   -12608847.106 4  -9825039.527 3
  21793645.978     2069491.292 3   1612596.031 3
 91  8  1  2 44  0.0030000  0  3 03 23 17
  22966401.699    10724761.152 3   8356949.438 1
  21442971.236   -12603630.842 4  -9820974.901 3
  21797637.401     2090460.116 3   1628935.370 3
 91  8  1  2 44 15.0030000  0  3 03 23 17
  22976927.112    10780075.302 3   8400051.347 1
  21443983.331   -12598329.374 4  -9816843.866 3
  21801639.643     2111495.398 3   1645326.499 3
 91  8  1  2 44 30.0030000  0  3 03 23 17
  22987473.797    10835501.307 3   8443240.368 1
  21445010.137   -12592938.631 4  -9812643.275 3
  21805656.561     2132601.115 4   1661772.504 3
 91  8  1  2 44 45.0030000  0  3 03 23 17
  22998042.381    10891036.733 2   8486514.683 1
  21446051.007   -12587460.851 4  -9808374.864 3
  21809684.578     2153775.049 4   1678271.672 3
 91  8  1  2 45  0.0030000  0  3 03 23 17
  23008631.348    10946680.705 3   8529873.576 1
  21447109.572   -12581896.866 4  -9804039.282 3
  21813727.566     2175016.812 4   1694823.692 3
 91  8  1  2 45 15.0030000  0  3 03 23 17
  23019237.416    11002431.779 3   8573315.925 1
  21448184.035   -12576248.107 4  -9799637.634 3
  21817783.171     2196325.167 4   1711427.600 3
 91  8  1  2 45 30.0030000  0  3 03 23 17
  23029871.055    11058288.310 3   8616840.437 1
  21449272.876   -12570515.872 4  -9795170.946 3
  21821851.044     2217699.075 4   1728082.587 3
 91  8  1  2 45 45.0030000  0  3 03 23 17
  23040518.777    11114253.715 2   8660449.792 1
  21450381.209   -12564696.579 4  -9790636.425 3
  21825930.626     2239142.245 4   1744791.557 3
 91  8  1  2 46  0.0030000  0  3 03 23 17
  23051190.492    11170329.632 3   8704145.270 1
  21451507.533   -12558788.498 4  -9786032.713 3
  21830021.585     2260656.796 4   1761556.129 3
 91  8  1  2 46 15.0030000  0  3 03 23 17
  23061882.293    11226512.241 2   8747923.881 1
  21452646.439   -12552795.301 4  -9781362.675 3
  21834129.942     2282238.743 3   1778373.226 3
 91  8  1  2 46 30.0030000  0  3 03 23 17
  23072595.069    11282803.460 3   8791787.112 1
  21453802.446   -12546714.727 4  -9776624.558 3
  21838250.898     2303890.710 4   1795244.882 2
 91  8  1  2 46 45.0030000  0  3 03 23 17
  23083326.150    11339199.686 2   8835732.214 1
  21454978.225   -12540550.588 4  -9771821.324 3
  21842381.731     2325609.154 4   1812168.342 3
 91  8  1  2 47  0.0030000  0  3 03 23 17
  23094076.112    11395702.167 2   8879760.041 1
  21456164.804   -12534301.185 4  -9766951.644 3
  21846528.758     2347395.775 3   1829144.930 3
 91  8  1  2 47 15.0030000  0  3 03 23 17
  23104852.739    11452310.943 2   8923870.729 1
  21457372.377   -12527966.404 4  -9762015.438 3
  21850691.089     2369251.112 3   1846175.052 3
 91  8  1  2 47 30.0030000  0  3 03 23 17
  23115639.573    11509023.501 2   8968062.291 1
  21458592.531   -12521548.634 4  -9757014.568 3
  21854859.701     2391172.875 3   1863256.944 2
 91  8  1  2 47 45.0030000  0  3 03 23 17
  23126452.182    11565843.345 2   9012337.454 1
  21459828.565   -12515044.233 4  -9751946.189 3
  21859044.194     2413164.842 4   1880393.534 3
 91  8  1  2 48  0.0030000  0  3 03 23 17
  23137284.597    11622767.095 2   9056693.559 1
  21461084.108   -12508456.415 4  -9746812.805 3
  21863244.287     2435224.115 3   1897582.571 3
 91  8  1  2 48 15.0030000  0  3 03 23 17
  23148139.470    11679795.415 2   9101131.176 1
  21462354.013   -12501784.160 4  -9741613.637 3
  21867455.478     2457351.511 3   1914824.684 3
 91  8  1  2 48 30.0030000  0  3 03 23 17
  23159011.147    11736925.543 2   9145648.107 1
  21463638.628   -12495030.148 4  -9736350.766 3
  21871678.657     2479544.294 3   1932117.761 3
 91  8  1  2 48 45.0030000  0  3 03 23 17
  23169904.411    11794161.070 2   9190247.175 1
  21464941.234   -12488190.516 4  -9731021.160 3
  21875915.012     2501806.924 3   1949465.260 3
 91  8  1  2 49  0.0030000  0  3 03 23 17
  23180814.758    11851498.236 2   9234925.401 1
  21466256.126   -12481269.015 4  -9725627.773 3
  21880163.075     2524136.042 3   1966864.571 3
 91  8  1  2 49 15.0030000  0  3 03 23 17
  23191743.986    11908938.510 2   9279684.004 1
  21467588.398   -12474264.050 4  -9720169.350 3
  21884425.535     2546533.473 3   1984317.104 3
 91  8  1  2 49 30.0030000  0  3 03 23 17
  23202693.614    11966480.406 2   9324521.808 1
  21468938.661   -12467176.887 4  -9714646.874 3
  21888701.467     2568997.719 3   2001821.704 3
 91  8  1  2 49 45.0030000  0  3 03 23 17
  23213663.310    12024125.405 2   9369439.963 1
  21470304.524   -12460005.986 4  -9709059.144 3
  21892989.701     2591530.867 3   2019379.995 2
 91  8  1  2 50  0.0030000  0  3 03 23 17
  23224646.215    12081872.670 2   9414437.755 1
  21471684.156   -12452751.980 4  -9703406.662 3
  21897287.829     2614132.424 3   2036991.600 2
 91  8  1  2 50 15.0030000  0  3 03 23 17
  23235658.786    12139723.100 2   9459515.988 1
  21473079.702   -12445413.654 4  -9697688.482 3
  21901603.931     2636803.311 3   2054657.222 3
 91  8  1  2 50 30.0030000  0  3 03 23 17
  23246690.255    12197678.645 2   9504676.105 1
  21474493.222   -12437989.033 4  -9691903.042 3
  21905932.946     2659545.971 3   2072378.767 3
 91  8  1  2 50 45.0030000  0  3 03 23 17
  23257736.400    12255735.303 2   9549915.013 1
  21475923.232   -12430481.902 4  -9686053.320 3
  21910272.135     2682356.816 3   2090153.446 2
 91  8  1  2 51  0.0030000  0  3 03 23 17
  23268805.335    12313895.726 2   9595234.730 1
  21477367.622   -12422889.648 4  -9680137.269 3
  21914628.721     2705238.684 3   2107983.468 3
 91  8  1  2 51 15.0030000  0  3 03 23 17
  23279896.466    12372156.891 2   9640633.033 1
  21478829.112   -12415214.777 4  -9674156.835 3
  21918994.591     2728189.152 3   2125866.944 3
 91  8  1  2 51 30.0030000  0  3 03 23 17
  23290996.270    12430517.965 2   9686109.104 1
  21480304.703   -12407457.990 4  -9668112.569 3
  21923374.264     2751207.656 3   2143803.435 2
 91  8  1  2 51 45.0030000  0  3 03 23 17
  23302128.776    12488982.695 2   9731666.009 1
  21481797.360   -12399615.390 4  -9662001.447 3
  21927765.629     2774298.488 3   2161796.287 2
 91  8  1  2 52  0.0030000  0  3 03 23 17
  23313267.565    12547549.209 2   9777302.183 1
  21483306.210   -12391688.768 4  -9655824.848 3
  21932174.671     2797459.957 3   2179844.187 2
 91  8  1  2 52 15.0030000  0  3 03 23 17
  23324429.439    12606214.557 2   9823015.383 1
  21484827.066   -12383680.959 4  -9649584.980 3
  21936594.811     2820689.143 3   2197944.837 3
 91  8  1  2 52 30.0030000  0  3 03 23 17
  23335611.992    12664979.510 2   9868806.231 1
  21486367.990   -12375590.778 4  -9643280.933 3
  21941031.442     2843987.559 3   2216099.445 3
 91  8  1  2 52 45.0030000  0  3 03 23 17
  23346815.538    12723846.732 2   9914676.716 1
  21487925.126   -12367415.544 4  -9636910.616 3
  21945474.668     2867358.075 3   2234310.230 2
 91  8  1  2 53  0.0030000  0  3 03 23 17
  23358037.075    12782806.772 2   9960619.540 1
  21489491.841   -12359164.809 4  -9630481.461 3
  21949935.869     2890791.669 3   2252570.175 3
 91  8  1  2 53 15.0030000  0  3 03 23 17
  23369277.179    12841866.813 2  10006640.299 1
  21491079.532   -12350830.920 4  -9623987.505 3
  21954405.777     2914295.808 3   2270885.079 3
 91  8  1  2 53 30.0030000  0  3 03 23 17
  23380530.790    12901026.394 2  10052738.642 1
  21492683.434   -12342414.098 4  -9617428.943 3
  21958892.769     2937870.398 3   2289254.891 3
 91  8  1  2 53 45.0030000  0  3 03 23 17
  23391811.378    12960287.266 2  10098915.878 1
  21494301.400   -12333912.581 4  -9610804.377 3
  21963395.362     2961517.501 3   2307681.197 2
 91  8  1  2 54  0.0030000  0  3 03 23 17
  23403105.770    13019647.203 2  10145170.340 1
  21495932.577   -12325328.377 4  -9604115.375 3
  21967906.627     2985235.424 3   2326162.701 2
 91  8  1  2 54 15.0030000  0  3 03 23 17
  23414424.138    13079104.583 2  10191500.737 1
  21497578.743   -12316663.016 4  -9597363.140 3
  21972434.400     3009022.624 3   2344698.177 2
 91  8  1  2 54 30.0030000  0  3 03 23 17
  23425753.884    13138658.472 2  10237906.289 1
  21499243.791   -12307917.072 4  -9590548.114 3
  21976975.051     3032878.563 3   2363287.218 2
 91  8  1  2 54 45.0030000  0  3 03 23 17
  23437099.231    13198312.217 2  10284389.670 1
  21500926.812   -12299087.168 4  -9583667.667 3
  21981526.504     3056807.135 3   2381932.858 2
 91  8  1  2 55  0.0030000  0  3 03 23 17
  23448475.760    13258064.580 2  10330949.914 1
  21502623.950   -12290174.239 4  -9576722.513 3
  21986092.354     3080807.392 3   2400634.355 3
 91  8  1  2 55 15.0030000  0  3 03 23 17
  23459863.074    13317914.273 2  10377585.956 1
  21504335.450   -12281179.346 4  -9569713.502 3
  21990674.065     3104878.375 3   2419390.965 3
 91  8  1  2 55 30.0030000  0  3 03 23 17
  23471271.085    13377860.573 2  10424297.316 1
  21506061.660   -12272103.284 4  -9562641.238 3
  21995268.690     3129019.628 3   2438202.331 2
 91  8  1  2 55 45.0030000  0  3 03 23 17
  23482700.663    13437904.355 2  10471084.606 1
  21507802.861   -12262944.860 4  -9555504.791 3
  21999877.101     3153232.499 3   2457069.506 2
 91  8  1  2 56  0.0030000  0  3 03 23 17
  23494141.340    13498045.832 2  10517948.031 1
  21509561.738   -12253703.757 4  -9548303.925 3
  22004497.203     3177517.403 3   2475992.807 2
 91  8  1  2 56 15.0030000  0  3 03 23 17
  23505603.306    13558283.904 2  10564886.782 1
  21511335.308   -12244381.007 4  -9541039.440 3
  22009130.498     3201873.495 3   2494971.572 3
 91  8  1  2 56 30.0030000  0  3 03 23 17
  23517082.670    13618611.097 2  10611894.901 1
  21513124.182   -12234983.456 4  -9533716.667 3
  22013776.985     3226294.047 3   2514000.576 3
 91  8  1  2 56 45.0030000  0  3 03 23 17
  23528585.400    13679035.417 2  10658978.724 1
  21514927.418   -12225503.228 4  -9526329.466 3
  22018440.555     3250787.502 3   2533086.393 2
 91  8  1  2 57  0.0030000  0  3 03 23 17
  23540095.930    13739556.145 2  10706137.699 1
  21516747.458   -12215940.855 4  -9518878.256 3
  22023116.411     3275353.336 3   2552228.609 3
 91  8  1  2 57 15.0030000  0  3 03 23 17
  23551634.049    13800172.075 2  10753370.815 1
  21518584.896   -12206297.192 4  -9511363.717 3
  22027801.271     3299990.626 3   2571426.481 2
 91  8  1  2 57 30.0030000  0  3 03 23 17
  23563189.548    13860881.811 2  10800677.078 1
  21520430.414   -12196573.640 4  -9503786.917 3
  22032504.419     3324698.169 3   2590679.109 3
 91  8  1  2 57 45.0030000  0  3 03 23 17
  23574759.130    13921688.456 2  10848058.809 1
  21522301.426   -12186766.949 4  -9496145.335 3
  22037219.258     3349479.752 3   2609989.437 2
 91  8  1  2 58  0.0030000  0  3 03 23 17
  23586346.406    13982590.078 2  10895514.532 1
  21524180.518   -12176878.862 4  -9488440.328 3
  22041948.180     3374333.614 3   2629356.085 2
 91  8  1  2 58 15.0030000  0  3 03 23 17
  23597956.472    14043584.463 2  10943042.562 1
  21526079.102   -12166911.180 4  -9480673.300 3
  22046692.091     3399257.934 3   2648777.634 3
 91  8  1  2 58 30.0030000  0  3 03 23 17
  23609579.730    14104670.918 2  10990642.364 1
  21527988.784   -12156864.676 4  -9472844.852 3
  22051448.305     3424252.242 3   2668253.721 2
 91  8  1  2 58 45.0030000  0  3 03 23 17
  23621218.572    14165849.557 2  11038313.951 1
  21529917.940   -12146738.833 4  -9464954.579 3
  22056220.695     3449317.109 3   2687784.782 2
 91  8  1  2 59  0.0030000  0  3 03 23 17
  23632881.093    14227120.928 2  11086057.835 1
  21531857.305   -12136533.047 4  -9457002.012 3
  22061002.090     3474453.544 3   2707371.608 2
 91  8  1  2 59 15.0030000  0  3 03 23 17
  23644566.998    14288486.477 2  11133875.094 1
  21533818.849   -12126245.546 4  -9448985.779 3
  22065797.567     3499663.446 3   2727015.685 2
 91  8  1  2 59 30.0030000  0  3 03 23 17
  23656250.512    14349941.484 2  11181762.041 1
  21535787.583   -12115881.108 4  -9440909.593 3
  22070609.534     3524942.356 3   2746713.547 2
 91  8  1  2 59 45.0030000  0  3 03 23 17
  23667965.210    14411486.897 2  11229719.439 1
  21537778.199   -12105438.519 4  -9432772.499 3
  22075435.287     3550291.516 3   2766466.134 2
 91  8  1  3  0  0.0030000  0  3 03 23 17
  23679694.880    14473121.191 2  11277746.101 1
  21539779.023   -12094918.922 4  -9424575.410 3
  22080272.139     3575709.771 3   2786272.564 3
 91  8  1  3  0 15.0030000  0  3 03 23 17
  23691435.055    14534846.518 2  11325843.661 1
  21541793.930   -12084320.113 4  -9416316.602 3
  22085120.996     3601199.673 3   2806134.823 2
 91  8  1  3  0 30.0030000  0  3 03 23 17
  23703199.817    14596662.043 2  11374011.578 1
  21543828.312   -12073642.720 4  -9407996.551 3
  22089983.028     3626760.562 3   2826052.402 2
 91  8  1  3  0 45.0030000  0  3 03 23 17
  23714979.255    14658566.728 2  11422248.917 1
  21545872.605   -12062887.507 4  -9399615.858 3
  22094865.145     3652392.132 3   2846025.057 2
 91  8  1  3  1  0.0030000  0  3 03 23 17
  23726780.593    14720557.605 2  11470553.413 1
  21547935.482   -12052057.509 4  -9391176.895 3
  22099752.358     3678091.555 3   2866050.576 3
 91  8  1  3  1 15.0030000  0  3 03 23 17
  23738594.512    14782635.647 2  11518925.880 1
  21550010.034   -12041151.203 4  -9382678.476 3
  22104657.265     3703860.228 3   2886130.063 2
 91  8  1  3  1 30.0030000  0  3 03 23 17
  23750421.031    14844802.573 2  11567367.563 1
  21552098.999   -12030166.938 4  -9374119.300 3
  22109578.366     3729700.298 3   2906265.186 2
 91  8  1  3  1 45.0030000  0  3 03 23 17
  23762269.118    14907058.034 2  11615878.265 1
  21554204.141   -12019104.923 4  -9365499.521 3
  22114505.452     3755611.919 3   2926456.050 2
 91  8  1  3  2  0.0030000  0  3 03 23 17
  23774133.102    14969401.669 2  11664457.675 1
  21556324.866   -12007965.147 4  -9356819.205 3
  22119448.732     3781594.923 3   2946702.544 2
 91  8  1  3  2 15.0030000  0  3 03 23 17
  23786011.186    15031833.715 2  11713105.913 1
  21558458.190   -11996747.396 4  -9348078.100 3
  22124411.487     3807649.749 3   2967005.007 2
 91  8  1  3  2 30.0030000  0  3 03 23 17
  23797909.949    15094355.220 2  11761823.910 1
  21560607.097   -11985450.392 4  -9339275.232 3
  22129380.541     3833777.824 3   2987364.549 2
 91  8  1  3  2 45.0030000  0  3 03 23 17
  23809823.108    15156966.232 2  11810611.664 1
  21562772.809   -11974073.833 4  -9330410.372 3
  22134362.195     3859979.646 3   3007781.554 2
 91  8  1  3  3  0.0030000  0  3 03 23 17
  23821760.540    15219663.988 2  11859467.008 1
  21564952.900   -11962620.331 4  -9321485.569 3
  22139362.746     3886252.885 3   3028254.204 3
 91  8  1  3  3 15.0030000  0  3 03 23 17
  23833700.380    15282449.089 2  11908390.375 1
  21567146.776   -11951088.824 4  -9312499.977 3
  22144377.363     3912598.793 3   3048783.495 2
 91  8  1  3  3 30.0030000  0  3 03 23 17
  23845667.495    15345318.776 2  11957379.672 1
  21569355.345   -11939482.119 4  -9303455.789 3
  22149406.987     3939014.632 3   3069367.262 2
 91  8  1  3  3 45.0030000  0  3 03 23 17
  23857648.396    15408272.725 2  12006434.675 1
  21571581.312   -11927800.372 4  -9294353.120 3
  22154445.598     3965500.502 3   3090005.602 2
 91  8  1  3  4  0.0030000  0  3 03 23 17
  23869643.397    15471313.350 2  12055557.170 1
  21573816.860   -11916040.929 4  -9285189.917 3
  22159500.699     3992059.261 3   3110700.730 2
 91  8  1  3  4 15.0030000  0  3 03 23 17
  23881654.870    15534440.200 2  12104746.881 1
  21576069.491   -11904203.867 4  -9275966.234 3
  22164567.492     4018690.859 3   3131452.636 2
 91  8  1  3  4 30.0030000  0  3 03 23 17
  23893680.443    15597654.272 2  12154004.524 1
  21578338.333   -11892287.993 4  -9266681.130 3
  22169646.570     4045396.632 3   3152262.335 3
 91  8  1  3  4 45.0030000  0  3 03 23 17
  23905730.011    15660955.358 2  12203329.957 1
  21580616.756   -11880293.656 4  -9257334.881 3
  22174747.234     4072176.470 3   3173129.738 2
 91  8  1  3  5  0.0030000  0  3 03 23 17
  23917790.362    15724338.887 2  12252719.642 1
  21582917.358   -11868225.048 4  -9247930.768 3
  22179856.308     4099026.422 3   3194051.784 2
 91  8  1  3  5 15.0030000  0  3 03 23 17
  23929874.987    15787809.036 2  12302176.827 1
  21585228.150   -11856077.715 4  -9238465.316 3
  22184977.965     4125951.108 3   3215032.056 2
 91  8  1  3  5 30.0030000  0  3 03 23 17
  23941962.020    15851358.867 2  12351696.156 1
  21587554.840   -11843858.561 4  -9228943.888 3
  22190116.705     4152943.698 3   3236065.236 2
 91  8  1  3  5 45.0030000  0  3 03 23 17
  23954074.844    15914991.802 2  12401280.220 1
  21589893.833   -11831563.782 4  -9219363.535 3
  22195264.432     4180008.318 3   3257154.553 2
 91  8  1  3  6  0.0030000  0  3 03 23 17
  23966198.139    15978706.327 2  12450927.786 1
  21592247.501   -11819194.667 4  -9209725.266 3
  22200429.871     4207143.743 3   3278299.049 2
 91  8  1  3  6 15.0030000  0  3 03 23 17
  23978339.738    16042502.544 2  12500639.070 1
  21594617.362   -11806751.153 4  -9200029.016 3
  22205603.389     4234350.349 3   3299498.997 3
 91  8  1  3  6 30.0030000  0  3 03 23 17
  23990496.921    16106378.988 2  12550412.854 1
  21596995.914   -11794234.683 4  -9190275.918 3
  22210796.679     4261626.865 3   3320753.427 2
 91  8  1  3  6 45.0030000  0  3 03 23 17
  24002667.296    16170337.359 2  12600250.496 1
  21599393.051   -11781643.045 4  -9180464.245 3
  22216003.178     4288975.877 3   3342064.355 2
 91  8  1  3  7  0.0030000  0  3 03 23 17
  24014852.661    16234377.717 2  12650151.968 1
  21601800.989   -11768975.750 4  -9170593.632 3
  22221213.865     4316397.636 3   3363431.952 2
 91  8  1  3  7 15.0030000  0  3 03 23 17
  24027055.721    16298504.478 2  12700120.851 1
  21604228.401   -11756228.149 3  -9160660.431 3
  22226453.642     4343896.964 3   3384860.004 2
 91  8  1  3  7 30.0030000  0  3 03 23 17
  24039272.566    16362709.164 2  12750150.361 1
  21606669.006   -11743409.072 4  -9150671.527 3
  22231698.811     4371465.384 3   3406341.889 2
 91  8  1  3  7 45.0030000  0  3 03 23 17
  24051498.991    16426995.243 2  12800243.353 1
  21609120.116   -11730514.383 4  -9140623.715 3
  22236959.581     4399107.064 3   3427880.863 2
 91  8  1  3  8  0.0030000  0  3 03 23 17
  24063755.117    16491359.377 2  12850397.156 1
  21611591.015   -11717547.481 4  -9130519.639 3
  22242230.820     4426818.775 3   3449474.406 2
 91  8  1  3  8 15.0030000  0  3 03 23 17
  24076019.915    16555805.500 2  12900614.863 1
  21614069.993   -11704504.252 4  -9120356.070 3
  22247519.161     4454605.019 3   3471126.023 2
 91  8  1  3  8 30.0030000  0  3 03 23 17
  24088300.314    16620331.568 2  12950894.903 1
  21616567.258   -11691386.539 3  -9110134.472 3
  22252821.898     4482463.961 3   3492834.294 2
 91  8  1  3  8 45.0030000  0  3 03 23 17
  24100589.717    16684937.885 2  13001237.409 1
  21619077.716   -11678193.839 4  -9099854.442 3
  22258135.717     4510396.604 3   3514599.988 2
 91  8  1  3  9  0.0030000  0  3 03 23 17
  24112899.484    16749622.506 2  13051640.933 1
  21621600.477   -11664927.790 4  -9089517.256 3
  22263465.118     4538401.396 3   3536421.913 2
 91  8  1  3  9 15.0030000  0  3 03 23 17
  24125220.664    16814379.359 2  13102100.685 1
  21624141.525   -11651594.165 3  -9079127.407 3
  22268803.227     4566472.642 3   3558295.612 2
 91  8  1  3  9 30.0030000  0  3 03 23 17
  24137561.022    16879214.653 2  13152621.660 1
  21626691.246   -11638186.743 4  -9068680.060 3
  22274161.717     4594616.445 3   3580225.854 2
 91  8  1  3  9 45.0030000  0  3 03 23 17
  24149913.961    16944126.067 2  13203201.933 1
  21629256.271   -11624707.349 3  -9058176.634 3
  22279530.696     4622831.230 3   3602211.396 2
 91  8  1  3 10  0.0030000  0  3 03 23 17
  24162282.204    17009114.752 2  13253842.403 1
  21631834.192   -11611154.875 4  -9047616.258 3
  22284911.976     4651118.403 3   3624253.343 2
 91  8  1  3 10 15.0030000  0  3 03 23 17
  24174659.138    17074177.055 2  13304540.262 1
  21634427.992   -11597532.853 4  -9037001.686 3
  22290309.747     4679474.685 3   3646349.154 2
 91  8  1  3 10 30.0030000  0  3 03 23 17
  24187058.547    17139317.027 2  13355298.590 1
  21637032.298   -11583836.868 4  -9026329.486 3
  22295719.786     4707904.756 3   3668502.455 2
 91  8  1  3 10 45.0030000  0  3 03 23 17
  24199470.259    17204533.849 2  13406116.807 1
  21639651.872   -11570067.508 3  -9015600.114 3
  22301142.738     4736408.119 3   3690712.871 2
 91  8  1  3 11  0.0030000  0  3 03 23 17
  24211892.755    17269824.871 2  13456992.951 1
  21642286.750   -11556227.174 3  -9004815.422 3
  22306581.866     4764982.312 3   3712978.469 2
 91  8  1  3 11 15.0030000  0  3 03 23 17
  24224329.350    17335191.051 2  13507927.543 1
  21644933.023   -11542314.908 3  -8993974.691 3
  22312031.796     4793628.529 3   3735300.191 2
 91  8  1  3 11 30.0030000  0  3 03 23 17
  24236778.528    17400631.583 2  13558920.137 1
  21647596.380   -11528331.305 3  -8983078.374 3
  22317497.920     4822346.465 3   3757677.812 2
 91  8  1  3 11 45.0030000  0  3 03 23 17
  24249253.200    17466144.020 2  13609968.658 1
  21650269.928   -11514278.336 3  -8972127.999 3
  22322977.532     4851134.205 3   3780109.808 2
 91  8  1  3 12  0.0030000  0  3 03 23 17
  24261731.746    17531731.380 2  13661075.613 1
  21652955.779   -11500153.251 3  -8961121.435 3
  22328467.318     4879995.038 3   3802598.769 2
 91  8  1  3 12 15.0030000  0  3 03 23 17
  24274228.597    17597395.176 2  13712242.115 1
  21655663.791   -11485953.939 3  -8950057.025 3
  22333973.019     4908930.910 3   3825146.197 2
 91  8  1  3 12 30.0030000  0  3 03 23 17
  24286735.343    17663132.762 2  13763466.158 1
  21658374.525   -11471682.838 3  -8938936.688 3
  22339493.989     4937939.396 3   3847750.210 2
 91  8  1  3 12 45.0030000  0  4 03 23 17 11
  24299258.579    17728944.748 2  13814748.146 1
  21661105.624   -11457339.135 4  -8927759.766 3
  22345029.652     4967021.893 3   3870411.890 2
  26212553.832           0.210 2         0.248 1
 91  8  1  3 13  0.0030000  0  4 03 23 17 11
  24311795.897    17794831.520 2  13866088.387 1
  21663849.025   -11442922.262 4  -8916525.832 3
  22350579.118     4996178.914 3   3893131.640 2
  26203057.004      -49913.898 2    -38893.778 1
 91  8  1  3 13 15.0030000  0  4 03 23 17 11
  24324344.314    17860791.002 2  13917485.344 1
  21666604.728   -11428434.137 4  -8905236.375 3
  22356139.961     5025408.621 3   3915908.027 2
  26193559.584      -99814.486 2    -77777.234 1
 91  8  1  3 13 30.0030000  0  4 03 23 17 11
  24336912.501    17926820.592 2  13968936.890 1
  21669374.496   -11413877.098 4  -8893893.225 3
  22361714.608     5054709.127 3   3938739.592 2
  26184061.552     -149703.333 2   -116651.664 1
 91  8  1  3 13 45.0030000  0  4 03 23 17 11
  24349487.896    17992918.999 2  14020442.072 1
  21672158.382   -11399252.360 4  -8882497.318 3
  22367305.134     5084079.334 3   3961625.462 2
  26174573.119     -199581.313 2   -155517.511 1
 91  8  1  3 14  0.0030000  0  4 03 23 17 11
  24362083.987    18059083.837 2  14071999.022 1
  21674954.535   -11384562.001 3  -8871050.273 3
  22372904.054     5113517.278 3   3984564.108 2
  26165080.794     -249449.949 2   -194376.103 1
 91  8  1  3 14 15.0030000  0  4 03 23 17 11
  24374681.857    18125315.965 2  14123608.377 1
  21677763.305   -11369804.862 4  -8859551.201 3
  22378523.373     5143024.169 3   4007556.485 2
  26155595.955     -299307.674 2   -233226.250 1
 91  8  1  3 14 30.0030000  0  4 03 23 17 11
  24387299.516    18191619.381 2  14175273.282 1
  21680585.546   -11354976.690 4  -8847996.780 3
  22384146.880     5172604.409 3   4030606.024 2
  26146106.631     -349149.831 2   -272064.264 1
 91  8  1  3 14 45.0030000  0  4 03 23 17 11
  24399938.482    18257994.813 2  14226994.317 1
  21683418.275   -11340076.586 4  -8836386.292 3
  22389793.177     5202259.086 3   4053713.556 2
  26136623.293     -398974.947 2   -310888.877 1
 91  8  1  3 15  0.0030000  0  4 03 23 17 11
  24412576.820    18324442.691 2  14278771.829 1
  21686268.715   -11325104.038 3  -8824719.360 3
  22395450.852     5231988.927 3   4076879.654 2
  26127151.646     -448781.946 2   -349699.484 1
 91  8  1  3 15 15.0030000  0  4 03 23 17 11
  24425236.464    18390957.461 2  14330601.446 1
  21689129.033   -11310064.449 4  -8813000.202 3
  22401120.235     5261788.777 3   4100100.321 2
  26117674.311     -498575.639 2   -388499.702 1
 91  8  1  3 15 30.0030000  0  4 03 23 17 11
  24437903.595    18457540.338 2  14382484.153 1
  21692005.230   -11294956.197 3  -8801227.531 3
  22406806.389     5291660.329 3   4123376.839 2
  26108205.369     -548354.087 2   -427288.060 1
 91  8  1  3 15 45.0030000  0  4 03 23 17 11
  24450591.107    18524188.415 2  14434417.618 1
  21694891.339   -11279782.261 3  -8789403.676 3
  22412502.454     5321600.864 3   4146707.119 2
  26098731.925     -598119.653 2   -466066.317 1
 91  8  1  3 16  0.0030000  0  4 03 23 17 11
  24463286.123    18590904.010 2  14486403.723 1
  21697790.937   -11264539.922 3  -8777526.530 3
  22418214.399     5351613.042 3   4170093.224 2
  26089267.782     -647869.123 2   -504832.114 1
 91  8  1  3 16 15.0030000  0  4 03 23 17 11
  24475992.517    18657684.369 2  14538440.271 1
  21700707.305   -11249231.539 4  -8765597.911 3
  22423938.332     5381694.593 3   4193533.388 2
  26079803.028     -697604.668 2   -543587.011 1
 91  8  1  3 16 30.0030000  0  4 03 23 17 11
  24488709.119    18724529.119 2  14590527.003 1
  21703633.287   -11233857.334 4  -8753618.005 3
  22429674.864     5411845.752 3   4217027.795 2
  26070340.386     -747325.892 2   -582330.800 1
 91  8  1  3 16 45.0030000  0  4 03 23 17 11
  24501441.303    18791437.869 2  14642663.574 1
  21706571.555   -11218417.639 4  -8741587.066 3
  22435428.777     5442066.426 3   4240576.361 2
  26060879.523     -797032.502 2   -621063.209 1
 91  8  1  3 17  0.0030000  0  4 03 23 17 11
  24514190.572    18858412.296 2  14694851.377 1
  21709520.904   -11202910.424 4  -8729503.515 3
  22441190.193     5472358.790 3   4264180.799 2
  26051418.085     -846722.068 2   -659782.226 1
 91  8  1  3 17 15.0030000  0  4 03 23 17 11
  24526947.344    18925450.766 2  14747089.083 1
  21712484.352   -11187337.434 4  -8717368.720 3
  22446968.083     5502721.468 3   4287840.019 2
  26041975.510     -896395.638 2   -698488.918 1
 91  8  1  3 17 30.0030000  0  4 03 23 17 11
  24539712.807    18992555.704 2  14799378.600 1
  21715461.307   -11171695.813 4  -8705180.427 3
  22452761.276     5533157.069 3   4311556.064 2
  26032526.357     -946049.793 2   -737180.427 1
 91  8  1  3 17 45.0030000  0  4 03 23 17 11
  24552497.465    19059722.089 2  14851715.933 1
  21718451.733   -11155990.272 4  -8692942.339 3
  22458565.864     5563661.220 3   4335325.525 2
  26023075.703     -995689.121 1   -775860.350 1
 91  8  1  3 18  0.0030000  0  4 03 23 17 11
  24565295.001    19126950.665 2  14904101.761 1
  21721451.146   -11140219.942 4  -8680653.772 3
  22464383.330     5594234.962 3   4359149.218 2
  26013635.537    -1045312.060 2   -814527.533 1
 91  8  1  3 18 15.0030000  0  4 03 23 17 11
  24578100.930    19194242.182 2  14956536.675 1
  21724464.973   -11124383.639 4  -8668313.780 3
  22470211.005     5624879.444 3   4383028.034 2
  26004198.668    -1094916.905 2   -853180.695 1
 91  8  1  3 18 30.0030000  0  4 03 23 17 11
  24590915.864    19261599.554 2  15009022.851 1
  21727491.365   -11108478.501 4  -8655920.155 3
  22476058.747     5655597.853 3   4406964.444 2
  25994758.205    -1144500.536 2   -891817.134 1
 91  8  1  3 18 45.0030000  0  4 03 23 17 11
  24603738.581    19329017.823 2  15061556.512 1
  21730529.762   -11092509.218 4  -8643476.557 3
  22481918.495     5686385.720 3   4430954.985 2
  25985324.635    -1194066.823 2   -930440.132 1
 91  8  1  3 19  0.0030000  0  4 03 23 17 11
  24616585.588    19396496.189 2  15114136.977 1
  21733581.962   -11076476.280 4  -8630983.349 3
  22487791.419     5717242.691 3   4454999.367 2
  25975892.269    -1243615.923 2   -969049.888 1
 91  8  1  3 19 15.0030000  0  4 03 23 17 11
  24629435.003    19464037.301 2  15166766.348 1
  21736641.037   -11060376.980 4  -8618438.432 3
  22493677.552     5748171.368 3   4479099.635 2
  25966471.594    -1293144.680 2  -1007643.691 1
 91  8  1  3 19 30.0030000  0  4 03 23 17 11
  24642297.594    19531640.516 2  15219444.054 1
  21739719.901   -11044211.526 4  -8605841.966 3
  22499575.062     5779171.735 3   4503255.756 2
  25957053.607    -1342652.778 2  -1046221.384 1
 91  8  1  3 19 45.0030000  0  4 03 23 17 11
  24655178.175    19599305.950 2  15272170.258 1
  21742810.771   -11027979.552 4  -8593193.674 3
  22505488.766     5810244.582 3   4527468.349 2
  25947632.322    -1392139.542 2  -1084782.330 1
 91  8  1  3 20  0.0030000  0  4 03 23 17 11
  24668058.460    19667030.378 2  15324942.479 1
  21745910.925   -11011684.433 4  -8580496.171 3
  22511414.180     5841386.782 3   4551734.994 2
  25938223.949    -1441607.448 2  -1123328.781 1
 91  8  1  3 20 15.0030000  0  4 03 23 17 11
  24680967.817    19734815.036 2  15377761.641 1
  21749022.473   -10995324.368 4  -8567748.057 3
  22517356.066     5872600.115 3   4576057.064 2
  25928811.651    -1491054.381 2  -1161858.902 1
 91  8  1  3 20 30.0030000  0  4 03 23 17 11
  24693870.596    19802659.709 2  15430627.511 1
  21752148.400   -10978899.385 4  -8554949.368 3
  22523308.440     5903884.655 3   4600434.619 2
  25919405.670    -1540479.984 2  -1200372.227 1
 91  8  1  3 20 45.0030000  0  4 03 23 17 11
  24706794.349    19870562.221 2  15483538.463 1
  21755286.037   -10962411.564 4  -8542101.713 3
  22529275.804     5935238.584 3   4624866.243 2
  25910006.581    -1589885.665 2  -1238870.171 1
 91  8  1  3 21  0.0030000  0  4 03 23 17 11
  24719727.683    19938524.198 2  15536495.740
  21758437.441   -10945858.844 4  -8529203.481 3
  22535253.672     5966663.901 3   4649353.498 2
  25900603.583    -1639268.922 2  -1277350.603 1
 91  8  1  3 21 15.0030000  0  4 03 23 17 11
  24732678.431    20006545.026 2  15589498.894 1
  21761598.758   -10929242.075 4  -8516255.346 3
  22541248.625     5998160.103 3   4673895.981 2
  25891219.485    -1688629.940 2  -1315813.618 1
 91  8  1  3 21 30.0030000  0  4 03 23 17 11
  24745632.758    20074623.573 2  15642547.047 1
  21764773.563   -10912561.859 4  -8503257.773 3
  22547254.955     6029726.715 3   4698493.335 2
  25881825.491    -1737968.899 2  -1354259.598 1
 91  8  1  3 21 45.0030000  0  4 03 23 17 11
  24758596.385    20142760.056 2  15695640.325 1
  21767959.763   -10895817.662 4  -8490210.339 3
  22553276.886     6061364.402 3   4723146.070 2
  25872442.876    -1787285.072 2  -1392687.664 1
 91  8  1  3 22  0.0030000  0  4 03 23 17 11
  24771574.391    20210950.883 2  15748775.921 1
  21771157.045   -10879012.957 4  -8477115.755 3
  22559309.321     6093069.929 3   4747851.662 2
  25863063.576    -1836580.940 2  -1431100.014 1
 91  8  1  3 22 15.0030000  0  4 03 23 17 11
  24784561.698    20279196.412 2  15801954.162 1
  21774367.518   -10862147.226 4  -8463973.620 3
  22565356.729     6124844.036 3   4772610.699 2
  25853685.759    -1885855.885 2  -1469495.982 1
 91  8  1  3 22 30.0030000  0  4 03 23 17 11
  24797549.616    20347499.578 2  15855177.255 1
  21777587.589   -10845217.300 4  -8450781.466 3
  22571417.329     6156690.079 3   4797425.783 2
  25844313.352    -1935106.068 2  -1507872.736 1
 91  8  1  3 22 45.0030000  0  4 03 23 17 11
  24810559.399    20415855.635 2  15908441.713 1
  21780821.743   -10828227.836 4  -8437542.917 3
  22577487.230     6188603.458 3   4822293.348 2
  25834940.648    -1984335.442 2  -1546233.207 1
 91  8  1  3 23  0.0030000  0  4 03 23 17 11
  24823583.596    20484265.132 2  15961747.752 1
  21784064.011   -10811177.748 4  -8424257.130 3
  22583574.809     6220585.205 3   4847214.180 2
  25825580.822    -2033542.745 2  -1584576.398 1
 91  8  1  3 23 15.0030000  0  4 03 23 17 11
  24836603.570    20552729.968 2  16015096.883 1
  21787322.158   -10794064.860 4  -8410922.407 3
  22589674.689     6252637.578 3   4872190.049 2
  25816223.108    -2082725.109 2  -1622900.410 1
 91  8  1  3 23 30.0030000  0  4 03 23 17 11
  24849642.146    20621248.083 2  16068487.419 1
  21790590.480   -10776891.355 4  -8397540.453 3
  22595789.263     6284758.961 3   4897219.692 2
  25806869.582    -2131884.388 2  -1661206.102 1
 91  8  1  3 23 45.0030000  0  4 03 23 17 11
  24862695.414    20689822.213 2  16121921.783 1
  21793871.120   -10759654.178 4  -8384108.875 3
  22601912.230     6316952.691 3   4922305.697 2
  25797516.946    -2181016.697 2  -1699491.035 1
 91  8  1  3 24  0.0030000  0  4 03 23 17 11
  24875766.657    20758451.296 2  16175398.938 1
  21797161.935   -10742353.891 4  -8370628.127 3
  22608051.967     6349218.022 3   4947447.514 2
  25788160.121    -2230122.600 1  -1737755.350 1
 91  8  1  3 24 15.0030000  0  4 03 23 17 11
  24888831.024    20827134.577 2  16228918.279 1
  21800466.552   -10724991.123 4  -8357098.697 3
  22614206.415     6381554.504 3   4972644.761 2
  25778833.887    -2279201.854 2  -1775998.795 1
 91  8  1  3 24 30.0030000  0  4 03 23 17 11
  24901903.768    20895870.479 2  16282478.728 1
  21803779.564   -10707567.537 4  -8343521.868 3
  22620375.835     6413960.763 3   4997896.384 2
  25769492.646    -2328255.621 1  -1814222.497 1
 91  8  1  3 24 45.0030000  0  4 03 23 17 11
  24914995.113    20964656.472 2  16336078.102 1
  21807109.048   -10690085.087 4  -8329899.171 3
  22626550.961     6446434.659 3   5023200.712 2
  25760171.211    -2377285.664 2  -1852427.620 1
 91  8  1  3 25  0.0030000  0  4 03 23 17 11
  24928101.134    21033494.338 2  16389717.901 1
  21810448.740   -10672541.759 4  -8316229.045 3
  22632744.078     6478978.766 3   5048559.740 2
  25750844.366    -2426289.053 2  -1890612.058 1
 91  8  1  3 25 15.0030000  0  4 03 23 17 11
  24941209.266    21102386.097 2  16443399.660 1
  21813797.716   -10654935.568 4  -8302509.933 3
  22638951.574     6511594.902 3   5073974.908 2
  25741524.118    -2475263.511 2  -1928773.824 1
 91  8  1  3 25 30.0030000  0  4 03 23 17 11
  24954321.883    21171325.873 2  16497118.930 1
  21817155.993   -10637272.001 4  -8288746.109 3
  22645171.966     6544277.818 3   5099442.108 2
  25732213.153    -2524213.885 2  -1966917.032 1
 91  8  1  3 25 45.0030000  0  4 03 23 17 11
  24967450.694    21240314.058 2  16550875.819 1
  21820531.965   -10619550.609 4  -8274937.227 3
  22651403.159     6577028.168 3   5124961.840 2
  25722901.298    -2573139.441 2  -2005041.083 1
 91  8  1  3 26  0.0030000  0  4 03 23 17 11
  24980597.793    21309353.282 2  16604672.522 1
  21823916.015   -10601768.389 4  -8261080.949 3
  22657649.639     6609849.122 3   5150536.605 2
  25713595.446    -2622036.266 2  -2043142.637 1
 91  8  1  3 26 15.0030000  0  4 03 23 17 11
  24993738.296    21378441.480 2  16658507.313 1
  21827309.961   -10583927.304 4  -8247178.801 3
  22663908.404     6642738.945 3   5176165.034 2
  25704299.785    -2670906.012 2  -2081222.768 1
 91  8  1  3 26 30.0030000  0  4 03 23 17 11
  25006896.179    21447577.623 2  16712379.655 1
  21830716.802   -10566027.924 4  -8233231.228 3
  22670181.862     6675696.984 3   5201846.600 2
  25694999.028    -2719748.671 2  -2119281.954 1
 91  8  1  3 26 45.0030000  0  4 03 23 17 11
  25020055.283    21516762.750 2  16766290.053 1
  21834132.943   -10548069.147 4  -8219237.370 3
  22676463.103     6708724.684 3   5227582.464 2
  25685716.245    -2768562.787 2  -2157318.866 1
 91  8  1  3 27  0.0030000  0  4 03 23 17 11
  25033235.956    21585998.439 2  16820239.842 1
  21837561.074   -10530049.317 4  -8205195.941 3
  22682766.540     6741823.888 3   5253374.040 2
  25676429.885    -2817345.948 2  -2195331.696 1
 91  8  1  3 27 15.0030000  0  4 03 23 17 11
  25046421.725    21655278.326 2  16874224.090 1
  21841001.785   -10511974.345 4  -8191111.547 3
  22689072.386     6774988.655 3   5279216.709 2
  25667142.600    -2866103.903 2  -2233324.718 1
 91  8  1  3 27 30.0030000  0  4 03 23 17 11
  25059614.683    21724607.500 2  16928246.657 1
  21844452.095   -10493838.683 4  -8176979.852 3
  22695397.409     6808224.554 3   5305114.796 2
  25657876.621    -2914830.487 2  -2271293.597 1
 91  8  1  3 27 45.0030000  0  4 03 23 17 11
  25072812.160    21793986.821 2  16982308.413 1
  21847916.504   -10475641.601 4  -8162800.305 3
  22701735.311     6841532.715 3   5331069.194 2
  25648607.641    -2963524.448 2  -2309237.183 1
 91  8  1  3 28  0.0030000  0  4 03 23 17 11
  25086028.205    21863414.345 2  17036407.682 1
  21851391.104   -10457384.622 4  -8148574.093 3
  22708088.516     6874911.948 3   5357078.977 2
  25639351.243    -3012186.608 2  -2347155.899 1
 91  8  1  3 28 15.0030000  0  4 03 23 17 11
  25099236.763    21932887.720 2  17090542.697 1
  21854871.986   -10439069.777 4  -8134302.773 3
  22714455.508     6908360.090 3   5383142.456 2
  25630088.266    -3060818.840 2  -2385051.073 1
 91  8  1  3 28 30.0030000  0  4 03 23 17 11
  25112477.395    22002406.586 2  17144713.138 1
  21858372.064   -10420697.502 4  -8119986.718 3
  22720832.690     6941876.734 3   5409259.315 2
  25620847.451    -3109420.741 2  -2422922.599 1
 91  8  1  3 28 45.0030000  0  4 03 23 17 11
  25125712.931    22071972.235 2  17198920.062 1
  21861878.441   -10402266.177 4  -8105624.641 3
  22727221.563     6975463.772 3   5435431.015 2
  25611604.263    -3157990.321 2  -2460769.035 1
 91  8  1  3 29  0.0030000  0  4 03 23 17 11
  25138958.659    22141582.717 2  17253161.888 1
  21865397.103   -10383777.614 4  -8091217.966 3
  22733626.038     7009119.642 3   5461656.346 2
  25602366.746    -3206528.750 2  -2498591.086 1
 91  8  1  3 29 15.0030000  0  4 03 23 17 11
  25152214.577    22211236.725 2  17307437.652 1
  21868926.549   -10365232.608 4  -8076767.307 3
  22740043.687     7042843.433 3   5487934.629 2
  25593135.842    -3255036.475 2  -2536389.337 1
 91  8  1  3 29 30.0030000  0  5 03 23 21 17 11
  25165481.000    22280936.732 2  17361749.253 1
  21872464.702   -10346628.451 4  -8062270.560 3
  23022788.151      641451.90513    499839.410 2
  22746476.343     7076638.228 3   5514268.220 2
  25583910.331    -3303510.159 2  -2574160.975 1
 91  8  1  3 29 45.0030000  0  5 03 23 21 17 11
  25178749.221    22350679.716 2  17416094.354 1
  21876016.956   -10327968.097 4  -8047730.019 3
  23018828.802      620655.231 3    483634.240 2
  22752920.674     7110501.139 3   5540654.887 2
  25574696.215    -3351952.484 2  -2611908.065 1
 91  8  1  3 30  0.0030000  0  5 03 23 21 17 11
  25192027.022    22420467.786 2  17470474.567 1
  21879580.587   -10309249.225 4  -8033143.873 3
  23014881.126      599917.319 3    467474.843 2
  22759376.713     7144434.734 3   5567096.647 2
  25565484.786    -3400360.119 2  -2649628.419 1
 91  8  1  3 30 15.0030000  0  5 03 23 21 17 11
  25205318.015    22490297.163 2  17524887.020 1
  21883150.518   -10290475.434 4  -8018514.933 3
  23010945.160      579234.426 3    451358.319 2
  22765848.929     7178435.336 3   5593590.616 2
  25556276.951    -3448736.632 2  -2687324.245 1
 91  8  1  3 30 30.0030000  0  4 03 23 17 11
  25218610.527    22560170.075 2  17579333.368 1
  21886735.124   -10271644.025 4  -8003841.101 3
  22772331.336     7212505.633 3   5620138.883 2
  25547075.731    -3497078.453 2  -2724993.252 1
 91  8  1  3 30 45.0030000  0  5 03 23 21 17 11
  25231918.604    22630086.925 2  17633813.958 1
  21890330.532   -10252754.537 4  -7989122.020 3
  23003694.681      627175.74613    488714.953 2
  22778826.953     7246646.617 3   5646742.236 2
  25537884.387    -3545384.831 2  -2762634.409 1
 91  8  1  3 31  0.0030000  0  5 03 23 21 17 11
  25245234.795    22700043.745 2  17688325.618 1
  21893933.444   -10233810.779 4  -7974360.634 3
  22999791.975      606664.126 3    472731.911 2
  22785332.743     7280854.683 3   5673397.862 2
  25528696.952    -3593658.597 2  -2800250.398 1
 91  8  1  3 31 15.0030000  0  5 03 23 21 17 11
  25258550.376    22770040.933 2  17742868.794 1
  21897548.640   -10214811.861 4  -7959556.279 3
  22995898.570      586208.257 3    456792.286 2
  22791858.322     7315130.758 3   5700106.482 2
  25519522.099    -3641898.931 2  -2837840.211 1
 91  8  1  3 31 30.0040000  0  5 03 23 21 17 11
  25271884.841    22840085.031 2  17797448.542 1
  21901177.032   -10195754.771 4  -7944706.596 3
  22992014.765      565808.978 3    440896.771 2
  22798394.705     7349479.089 3   5726871.401 2
  25510337.058    -3690106.382 2  -2875404.287 1
 91  8  1  3 31 45.0040000  0  5 03 23 21 17 11
  25285219.006    22910165.463 2  17852056.640 1
  21904813.221   -10176642.905 4  -7929814.231 3
  22988145.633      545468.213 3    425046.848 2
  22804945.168     7383894.282 3   5753688.417 2
  25501181.103    -3738274.852 2  -2912938.273 1
 91  8  1  3 32  0.0040000  0  5 03 23 21 17 11
  25298554.671    22980286.555 2  17906696.424 1
  21908461.085   -10157475.126 3  -7914878.290 3
  22984286.413      525184.475 3    409241.373 2
  22811507.322     7418378.525 3   5780559.254 2
  25492014.347    -3786407.436 2  -2950443.960 1
 91  8  1  3 32 15.0040000  0  5 03 23 21 17 11
  25311911.033    23050448.311 2  17961367.691 1
  21912119.750   -10138251.141 3  -7899898.560 3
  22980435.883      504958.196 3    393480.656 2
  22818084.466     7452932.327 3   5807484.268 2
  25482869.176    -3834503.041 2  -2987921.188 1
 91  8  1  3 32 30.0040000  0  5 03 23 21 17 11
  25325264.079    23120650.946 2  18016070.898 1
  21915786.215   -10118970.349 3  -7884874.569 3
  22976601.232      484790.108 3    377765.286 2
  22824670.615     7487556.305 3   5834463.998 2
  25473724.913    -3882560.906 2  -3025368.722 1
 91  8  1  3 32 45.0040000  0  5 03 23 21 17 11
  25338642.324    23190895.216 2  18070806.476 1
  21919466.169   -10099631.957 3  -7869805.678 3
  22972772.585      464681.217 3    362096.053 2
  22831275.644     7522251.687 3   5861499.345 2
  25464583.337    -3930579.286 2  -3062785.704 1
 91  8  1  3 33  0.0040000  0  5 03 23 21 17 11
  25351982.788    23261182.374 1  18125575.692 1
  21923159.019   -10080234.423 3  -7854690.713 3
  22968958.020      444633.058 3    346474.133 2
  22837892.052     7557020.019 3   5888591.541 2
  25455452.249    -3978556.555 2  -3100170.537 1
 91  8  1  3 33 15.0040000  0  5 03 23 21 17 11
  25365402.390    23331507.428 2  18180374.324 1
  21926859.059   -10060782.353 3  -7839533.256 3
  22965153.959      424641.051 3    330895.969 2
  22844521.669     7591856.588 3   5915736.904 2
  25446333.463    -4026496.674 2  -3137526.458 1
 91  8  1  3 33 30.0040000  0  5 03 23 21 17 11
  25378787.230    23401867.706 2  18235200.345 1
  21930570.790   -10041278.368 3  -7824335.343 3
  22961359.183      404702.955 3    315359.815 2
  22851158.475     7626759.321 3   5942933.831 2
  25437214.974    -4074401.595 2  -3174854.927 1
 91  8  1  3 33 45.0040000  0  4 03 23 17 11
  25392185.560    23472268.078 2  18290057.713 1
  21934294.806   -10021717.355 3  -7809092.988 3
  22857815.960     7661732.962 3   5970186.009 2
  25428102.784    -4122265.741 2  -3212151.546 1
 91  8  1  3 34  0.0040000  0  4 03 23 17 11
  25405587.170    23542704.108 2  18344942.766 1
  21938027.512   -10002103.326 3  -7793809.328 3
  22864483.653     7696773.852 3   5997490.588 2
  25419002.287    -4170092.690 2  -3249419.380 1
 91  8  1  3 34 15.0040000  0  4 03 23 17 11
  25419003.194    23613178.395 2  18399857.695 1
  21941770.130    -9982433.447 3  -7778482.144 3
  22871164.818     7731884.741 3   6024849.707 2
  25409911.386    -4217879.155 2  -3286655.521 1
 91  8  1  3 34 30.0040000  0  4 03 23 17 11
  25432415.606    23683689.300 2  18454801.231 1
  21945523.236    -9962709.306 3  -7763112.680 3
  22877859.193     7767064.559 3   6052262.545 2
  25400829.473    -4265626.030 2  -3323860.822 1
 91  8  1  3 34 45.0040000  0  4 03 23 17 11
  25445841.507    23754238.604 2  18509774.570 1
  21949287.719    -9942928.891 3  -7747699.356 3
  22884567.650     7802315.334 3   6079730.668 2
  25391752.655    -4313330.817 2  -3361033.363 1
 91  8  1  3 35  0.0040000  0  4 03 23 17 11
  25459278.506    23824825.177 2  18564776.982 1
  21953064.208    -9923093.044 3  -7732242.855 3
  22891287.188     7837636.390 3   6107253.569 2
  25382677.931    -4360993.781 2  -3398173.325 1
 91  8  1  3 35 15.0040000  0  4 03 23 17 11
  25472716.098    23895448.421 2  18619808.001 1
  21956846.996    -9903202.061 3  -7716743.385 3
  22898023.530     7873027.453 3   6134830.998 2
  25373611.914    -4408614.794 2  -3435280.509 1
 91  8  1  3 35 30.0040000  0  4 03 23 17 11
  25486162.992    23966109.018 2  18674868.094 1
  21960642.069    -9883255.133 3  -7701200.316 3
  22904772.157     7908489.612 3   6162463.840 2
  25364561.481    -4456192.505 2  -3472354.034 1
 91  8  1  3 35 45.0040000  0  4 03 23 17 11
  25499614.388    24036808.661 2  18729958.631 1
  21964450.335    -9863250.393 3  -7685612.208 3
  22911533.681     7944025.009 3   6190153.758 2
  25355512.252    -4503724.303 2  -3509391.763 1
 91  8  1  3 36  0.0040000  0  4 03 23 17 11
  25513072.676    24107543.837 2  18785076.831 1
  21968265.790    -9843190.890 3  -7669981.425 3
  22918306.581     7979630.164 3   6217898.012 2
  25346485.795    -4551213.063 2  -3546395.990 1
 91  8  1  3 36 15.0040000  0  4 03 23 17 11
  25526541.435    24178310.825 2  18840219.781 1
  21972095.939    -9823080.108 3  -7654310.682 3
  22925095.379     8015301.817 3   6245694.085 2
  25337455.744    -4598661.643 2  -3583368.787 1
 91  8  1  3 36 30.0040000  0  4 03 23 17 11
  25540015.620    24249112.980 2  18895390.199 1
  21975929.978    -9802914.505 3  -7638597.211 3
  22931899.777     8051043.931 3   6273545.065 2
  25328425.099    -4646065.799 2  -3620307.130 1
 91  8  1  3 36 45.0040000  0  4 03 23 17 11
  25553505.982    24319947.349 2  18950585.693 1
  21979778.414    -9782696.774 3  -7622843.133 3
  22938716.757     8086853.984 3   6301448.988 2
  25319419.338    -4693427.862 2  -3657212.516 1
 91  8  1  3 37  0.0040000  0  4 03 23 17 11
  25566983.152    24390816.484 2  19005808.208 1
  21983636.151    -9762424.285 4  -7607046.386 3
  22945543.038     8122734.581 3   6329407.899 2
  25310419.266    -4740744.627 2  -3694082.720 1
 91  8  1  3 37 15.0040000  0  4 03 23 17 11
  25580476.498    24461721.303 2  19061058.659 1
  21987505.563    -9742095.843 4  -7591206.034 3
  22952382.197     8158687.206 3   6357422.909 2
  25301423.697    -4788014.433 2  -3730916.249 1
 91  8  1  3 37 30.0040000  0  4 03 23 17 11
  25593972.566    24532662.716 2  19116337.524 1
  21991385.182    -9721710.192 4  -7575321.105 3
  22959235.160     8194713.036 3   6385494.972 2
  25292435.910    -4835235.393 2  -3767711.729 1
 91  8  1  3 37 45.0040000  0  4 03 23 17 11
  25607475.213    24603635.951 2  19171641.319 1
  21995273.492    -9701272.087 4  -7559395.311 3
  22966107.596     8230807.517 3   6413620.529 2
  25283454.422    -4882411.563 2  -3804472.383 1
 91  8  1  3 38  0.0040000  0  4 03 23 17 11
  25620995.258    24674640.994 2  19226969.802 1
  21999172.883    -9680780.971 3  -7543428.211 3
  22972990.224     8266971.382 3   6441800.150 2
  25274486.441    -4929542.142 2  -3841197.442 1
 91  8  1  3 38 15.0040000  0  3 23 17 11
  22003080.685    -9660235.071 4  -7527418.409 3
  22979886.358     8303206.377 3   6470035.198 2
  25265528.040    -4976624.831 2  -3877885.163 1
 91  8  1  3 38 30.0040000  0  3 23 17 11
  22007001.365    -9639635.067 4  -7511366.455 3
  22986792.072     8339511.980 3   6498325.252 2
  25256571.140    -5023659.643 2  -3914535.670 1
 91  8  1  3 38 45.0040000  0  3 23 17 11
  22010932.550    -9618981.081 4  -7495272.448 3
  22993715.481     8375888.169 3   6526670.332 2
  25247637.623    -5070646.158 2  -3951148.451 1
 91  8  1  3 39  0.0040000  0  3 23 17 11
  22014873.018    -9598272.112 4  -7479135.586 3
  23000650.878     8412336.137 3   6555071.336 2
  25238705.904    -5117582.985 2  -3987722.576 1
 91  8  1  3 39 15.0040000  0  3 23 17 11
  22018824.882    -9577508.451 4  -7462956.109 3
  23007599.764     8448855.754 3   6583528.154 2
  25229781.688    -5164469.725 2  -4024257.655 1
 91  8  1  3 39 30.0040000  0  3 23 17 11
  22022788.141    -9556691.919 4  -7446735.438 3
  23014567.252     8485445.149 3   6612039.355 2
  25220869.164    -5211307.857 2  -4060754.818 1
 91  8  1  3 39 45.0040000  0  3 23 17 11
  22026759.793    -9535822.748 4  -7430473.751 3
  23021543.413     8522104.465 3   6640605.038 2
  25211967.110    -5258097.000 2  -4097213.825 1
 91  8  1  3 40  0.0040000  0  3 23 17 11
  22030739.838    -9514901.033 4  -7414171.116 3
  23028529.782     8558833.609 3   6669225.137 2
  25203074.374    -5304836.630 2  -4133634.250 1
 91  8  1  3 40 15.0040000  0  3 23 17 11
  22034727.370    -9493928.660 4  -7397829.003 3
  23035533.532     8595630.630 3   6697898.127 2
  25194189.718    -5351528.229 2  -4170017.282 1
 91  8  1  3 40 30.0040000  0  4 03 23 17 11
  25756446.588       36448.82012     28378.358 1
  22038729.002    -9472902.229 4  -7381444.770 3
  23042551.974     8632499.125 3   6726626.805 2
  25185307.173    -5398167.847 2  -4206359.846 1
 91  8  1  3 40 45.0040000  0  4 03 23 17 11
  25770014.882      107790.292 2     83968.868 1
  22042741.121    -9451826.935 4  -7365022.466 3
  23049571.621     8669434.174 3   6755407.348 2
  25176442.009    -5444760.116 2  -4242665.417 1
 91  8  1  3 41  0.0040000  0  4 03 23 17 11
  25783598.184      179159.435 2    139581.069 1
  22046759.854    -9430700.012 4  -7348559.925 3
  23056620.340     8706438.526 3   6784241.899 2
  25167586.739    -5491301.889 2  -4278931.698 1
 91  8  1  3 41 15.0040000  0  4 03 23 17 11
  25797181.783      250558.214 2    195216.302 1
  22050790.557    -9409519.396 3  -7332055.551 3
  23063672.060     8743514.368 3   6813132.141 2
  25158735.971    -5537790.410 2  -4315156.427 1
 91  8  1  3 41 30.0040000  0  4 03 23 17 11
  25810777.963      321984.454 2    250873.031 1
  22054832.359    -9388286.918 4  -7315510.762 3
  23070741.754     8780659.942 3   6842076.725 2
  25149902.583    -5584226.902 2  -4351340.701 1
 91  8  1  3 41 45.0040000  0  5 03 23 21 17 11
  25824374.160      393435.556 2    306549.088 1
  22058885.260    -9367004.713 4  -7298927.232 3
  22842347.563     -220703.802 3   -171970.104 2
  23077823.157     8817873.419 3   6871074.231 2
  25141078.200    -5630613.220 2  -4387485.752 1
 91  8  1  3 42  0.0040000  0  5 03 23 21 17 11
  25837970.340      464913.942 2    362246.309
  22062939.940    -9345670.434 4  -7282303.116 3
  22838927.233     -238671.445 3   -185970.831 2
  23084918.939     8855157.120 3   6900126.437 2
  25132262.193    -5676946.410 2  -4423589.539 1
 91  8  1  3 42 15.0040000  0  4 23 21 17 11
  22067012.925    -9324286.499 4  -7265640.307 3
  22835519.799     -256583.152 3   -199927.971 2
  23092026.727     8892508.680 3   6929231.538 2
  25123450.392    -5723228.326 2  -4459653.295 1
 91  8  1  3 42 30.0040000  0  4 23 21 17 11
  22071091.600    -9302849.997 4  -7248936.546 3
  22832120.759     -274435.942 3   -213839.212 2
  23099149.191     8929931.135 3   6958391.875 2
  25114651.486    -5769455.386 2  -4495674.335 1
 91  8  1  3 42 45.0040000  0  3 23 17 11
  22075179.278    -9281363.612 4  -7232193.912 3
  23106281.252     8967421.991 3   6987605.505 2
  25105868.163    -5815629.817 2  -4531654.331 1
 91  8  1  3 43  0.0040000  0  3 23 17 11
  22079279.224    -9259823.438 4  -7215409.358 3
  23113429.210     9004985.204 3   7016875.505 2
  25097091.751    -5861747.114 2  -4567589.860 1
 91  8  1  3 43 15.0040000  0  3 23 17 11
  22083386.098    -9238236.434 4  -7198588.318 3
  23120588.842     9042613.989 3   7046196.626 2
  25088325.808    -5907813.691 2  -4603485.811 1
 91  8  1  3 43 30.0040000  0  3 23 17 11
  22087504.646    -9216598.447 4  -7181727.549 3
  23127761.981     9080312.523 3   7075572.100 2
  25079571.872    -5953824.932 2  -4639338.668 1
 91  8  1  3 43 45.0040000  0  3 23 17 11
  22091631.274    -9194912.191 4  -7164829.170 3
  23134951.610     9118078.160 3   7104999.840 2
  25070822.734    -5999783.116 2  -4675150.181 1
 91  8  1  3 44  0.0040000  0  3 23 17 11
  22095771.408    -9173172.863 4  -7147889.432 3
  23142147.818     9155916.047 3   7134483.893 2
  25062093.367    -6045682.943 2  -4710916.211 1
 91  8  1  3 44 15.0040000  0  3 23 17 11
  22099911.856    -9151385.254 4  -7130912.079 3
  23149363.536     9193821.322 3   7164020.445 2
  25053361.313    -6091528.618 2  -4746640.062 1
 91  8  1  3 44 30.0040000  0  3 23 17 11
  22104068.777    -9129547.458 4  -7113895.620 3
  23156589.130     9231795.932 3   7193611.034 2
  25044656.237    -6137317.701 2  -4782319.792 1
 91  8  1  3 44 45.0040000  0  3 23 17 11
  22108234.981    -9107660.969 4  -7096841.219 3
  23163825.526     9269838.753 3   7223254.780 2
  25035946.380    -6183051.038 2  -4817956.084 1
 91  8  1  3 45  0.0040000  0  3 23 17 11
  22112410.190    -9085724.659 4  -7079747.987 3
  23171080.192     9307950.989 3   7252952.590 2
  25027259.591    -6228726.948 2  -4853547.651 1
 91  8  1  3 45 15.0040000  0  3 23 17 11
  22116593.793    -9063738.756 4  -7062616.115 3
  23178345.363     9346132.236 3   7282704.191 2
  25018576.695    -6274345.319 2  -4889094.395 1
 91  8  1  3 45 30.0040000  0  3 23 17 11
  22120787.290    -9041705.996 4  -7045447.736 3
  23185622.226     9384380.031 3   7312507.655 2
  25009908.508    -6319908.277 2  -4924597.907 1
 91  8  1  3 45 45.0040000  0  3 23 17 11
  22124985.899    -9019626.328 4  -7028242.799 3
  23192916.173     9422694.264 3   7342362.881 2
  25001245.993    -6365415.387 2  -4960057.946 1
 91  8  1  3 46  0.0040000  0  3 23 17 11
  22129196.480    -8997499.654 4  -7011001.227 3
  23200219.124     9461075.349 3   7372270.194 2
  24992596.392    -6410865.750 2  -4995473.762 1
 91  8  1  3 46 15.0040000  0  3 23 17 11
  22133416.361    -8975327.847 4  -6993724.498 3
  23207537.955     9499521.408 3   7402228.153 2
  24983959.057    -6456260.892 2  -5030846.521 1
 91  8  1  3 46 30.0040000  0  3 23 17 11
  22137645.229    -8953107.833 4  -6976410.201 3
  23214860.380     9538035.895 3   7432239.403 2
  24975335.840    -6501597.130 2  -5066173.385 1
 91  8  1  3 46 45.0040000  0  3 23 17 11
  22141882.788    -8930838.564 4  -6959057.535 3
  23222209.801     9576619.707 3   7462304.716 2
  24966718.905    -6546872.942 2  -5101453.201 1
 91  8  1  3 47  0.0040000  0  3 23 17 11
  22146128.147    -8908522.563 4  -6941668.438 3
  23229564.004     9615270.545 3   7492422.228 2
  24958112.755    -6592090.391 2  -5136687.509 1
 91  8  1  3 47 15.0040000  0  3 23 17 11
  22150385.511    -8886160.346 3  -6924243.336 3
  23236928.414     9653987.877 3   7522591.550 2
  24949518.610    -6637249.493 2  -5171876.395 1
 91  8  1  3 47 30.0040000  0  3 23 17 11
  22154650.362    -8863747.691 4  -6906778.931 3
  23244312.299     9692776.112 3   7552816.119 2
  24940940.641    -6682345.336 2  -5207015.908 1
 91  8  1  3 47 45.0040000  0  3 23 17 11
  22158923.903    -8841289.188 4  -6889278.801 3
  23251704.875     9731630.734 3   7583092.437 2
  24932364.190    -6727381.868 2  -5242109.286 1
 91  8  1  3 48  0.0040000  0  3 23 17 11
  22163205.226    -8818782.066 3  -6871740.777 3
  23259113.644     9770554.768 3   7613422.843 2
  24923810.513    -6772355.863 2  -5277153.882 1
 91  8  1  3 48 15.0040000  0  3 23 17 11
  22167498.556    -8796227.101 4  -6854165.479 3
  23266536.216     9809547.234 3   7643806.556 2
  24915267.026    -6817267.667 2  -5312150.089 1
 91  8  1  3 48 30.0040000  0  3 23 17 11
  22171797.277    -8773623.676 3  -6836552.416 3
  23273966.571     9848608.776 3   7674244.101 2
  24906734.323    -6862116.039 2  -5347096.788 1
 91  8  1  3 48 45.0040000  0  3 23 17 11
  22176110.099    -8750971.239 3  -6818901.171 3
  23281410.119     9887740.448 3   7704736.297 2
  24898210.328    -6906899.967 2  -5381993.319 1
 91  8  1  3 49  0.0040000  0  3 23 17 11
  22180428.016    -8728275.509 3  -6801216.185 3
  23288870.750     9926936.275 3   7735278.491 2
  24889698.024    -6951624.644 2  -5416843.715 1
 91  8  1  3 49 15.0040000  0  3 23 17 11
  22184757.606    -8705535.646 4  -6783496.811 3
  23296340.979     9966197.276 3   7765871.456 2
  24881194.114    -6996288.736 2  -5451646.812 1
 91  8  1  3 49 30.0040000  0  4 23 12 17 11
  22189092.607    -8682748.560 3  -6765740.638 3
  25721831.952           0.679 2         0.258 1
  23303827.401    10005526.743 3   7796517.776 1
  24872710.883    -7040888.533 2  -5486399.875 1
 91  8  1  3 49 45.0040000  0  4 23 12 17 11
  22193437.502    -8659917.582 4  -6747950.269 3
  25716316.357      -28972.497 2    -22576.173 1
  23311322.811    10044921.524 3   7827214.991 2
  24864231.543    -7085426.864 2  -5521105.033 1
 91  8  1  3 50  0.0040000  0  4 23 12 17 11
  22197788.993    -8637039.580 4  -6730123.251 3
  25710822.365      -57870.767 2    -45094.220 1
  23318832.913    10084384.601 3   7857965.417 2
  24855770.805    -7129900.014 2  -5555759.386 1
 91  8  1  3 50 15.0040000  0  4 23 12 17 11
  22202150.378    -8614117.006 3  -6712261.507 3
  25705343.066      -86696.178 2    -67555.548 1
  23326356.505    10123913.528 3   7888767.170 2
  24847315.756    -7174310.019 2  -5590364.566 1
 91  8  1  3 50 30.0040000  0  4 23 12 17 11
  22206522.844    -8591151.095 3  -6694365.995 3
  25699868.253     -115449.387 2    -89960.616 1
  23333889.083    10163507.091 3   7919619.287 2
  24838878.401    -7218657.753 2  -5624921.178 1
 91  8  1  3 50 45.0040000  0  4 23 12 17 11
  22210904.315    -8568136.960 3  -6676432.904 3
  25694408.132     -144124.727 2   -112304.962 1
  23341434.261    10203170.472 3   7950525.779 1
  24830451.534    -7262937.514 2  -5659424.851 1
 91  8  1  3 51  0.0040000  0  4 23 12 17 11
  22215290.270    -8545076.244 3  -6658463.517 3
  25688970.504     -172723.330 2   -134589.568 1
  23348995.632    10242902.116 3   7981485.493 1
  24822040.563    -7307150.539 2  -5693876.537 1
 91  8  1  3 51 15.0040000  0  4 23 12 17 11
  22219688.824    -8521969.388 3  -6640458.175 3
  25683540.363     -201245.010 2   -156814.182 1
  23356567.491    10282701.726 3   8012498.152 1
  24813648.160    -7351296.566 2  -5728275.995 1
 91  8  1  3 51 30.0040000  0  4 23 12 17 11
  22224091.584    -8498819.307 3  -6622419.150 3
  25678130.604     -229692.128 2   -178980.701 1
  23364157.638    10322566.544 3   8043561.642 1
  24805252.180    -7395377.978 2  -5762625.148 1
 91  8  1  3 51 45.0040000  0  4 23 12 17 11
  22228505.425    -8475627.181 3  -6604347.369 3
  25672728.644     -258065.515 2   -201089.789 1
  23371758.569    10362495.130 3   8074674.802 2
  24796875.378    -7439395.505 2  -5796924.491 1
 91  8  1  3 52  0.0040000  0  4 23 12 17 11
  22232925.861    -8452390.020 3  -6586240.491 3
  25667345.270     -286361.428 2   -223138.510 1
  23379367.596    10402490.938 3   8105840.350 2
  24788512.972    -7483345.574 2  -5831171.293 1
 91  8  1  3 52 15.0040000  0  4 23 12 17 11
  22237357.693    -8429110.607 3  -6568100.693 3
  25661971.493     -314582.288 2   -245128.698 1
  23386988.630    10442551.233 3   8137056.138 2
  24780161.646    -7527230.536 2  -5865367.338 1
 91  8  1  3 52 30.0040000  0  4 23 12 17 11
  22241797.622    -8405783.419 3  -6549923.662 3
  25656615.986     -342721.977 2   -267055.763 1
  23394628.841    10482681.474 3   8168326.442 2
  24771824.421    -7571044.382 2  -5899507.986 1
 91  8  1  3 52 45.0040000  0  4 23 12 17 11
  22246243.239    -8382409.736 3  -6531710.400 3
  25651273.986     -370781.249 2   -288920.079 1
  23402270.239    10522880.268 3   8199650.160 2
  24763500.091    -7614787.854 2  -5933593.766 1
 91  8  1  3 53  0.0040000  0  4 23 12 17 11
  22250700.566    -8358994.052 3  -6513464.410 3
  25645957.480     -398764.063 2   -310724.839 1
  23409933.834    10563143.275 3   8231023.917 1
  24755191.030    -7658464.847 2  -5967627.789 1
 91  8  1  3 53 15.0040000  0  4 23 12 17 11
  22255165.064    -8335535.079 3  -6495184.701 3
  25640649.054     -426668.475 2   -332468.529 1
  23417611.825    10603471.924 3   8262448.827 2
  24746889.491    -7702073.558 2  -6001608.586 1
 91  8  1  3 53 30.0040000  0  4 23 12 17 11
  22259637.381    -8312030.548 3  -6476869.479 3
  25635346.910     -454491.733 2   -354148.878 1
  23425299.397    10643868.647 3   8293926.761 1
  24738599.625    -7745611.211 2  -6035534.019 1
 91  8  1  3 53 45.0040000  0  4 23 12 17 11
  22264114.478    -8288483.485 3  -6458521.113 3
  25630069.668     -482236.174 2   -375767.859 1
  23432996.880    10684330.499 3   8325455.465 1
  24730334.940    -7789080.257 2  -6069406.020 1
 91  8  1  3 54  0.0040000  0  4 23 12 17 11
  22268607.159    -8264890.740 3  -6440137.156 3
  25624804.413     -509898.013 2   -397322.458 1
  23440715.024    10724860.684 3   8357037.398 2
  24722075.665    -7832476.924 2  -6103221.581 1
 91  8  1  3 54 15.0040000  0  4 23 12 17 11
  22273105.546    -8241253.913 3  -6421718.858 3
  25619560.745     -537478.469 2   -418813.659 1
  23448435.279    10765457.572 3   8388671.320 2
  24713833.770    -7875802.397 2  -6136981.674 1
 91  8  1  3 54 30.0040000  0  4 23 12 17 11
  22277612.327    -8217581.927 3  -6403273.157 3
  25614322.172     -564986.022 2   -440248.023 1
  23456172.636    10806112.407 3   8420350.396 2
  24705600.269    -7919065.086 2  -6170692.841 1
 91  8  1  3 54 45.0040000  0  4 23 12 17 11
  22282123.016    -8193874.897 3  -6384800.151 3
  25609097.385     -592420.040 1   -461625.280 1
  23463919.573    10846825.139 3   8452074.572 2
  24697376.365    -7962264.604 2  -6204354.775 1
 91  8  1  3 55  0.0040000  0  4 23 12 17 11
  22286640.284    -8170120.354 3  -6366290.124 3
  25603903.782     -619767.570 2   -482934.937 1
  23471678.201    10887608.221 3   8483853.575 2
  24689170.138    -8005387.917 2  -6237957.366 1
 91  8  1  3 55 15.0040000  0  4 23 12 17 11
  22291170.448    -8146319.342 3  -6347743.883 3
  25598711.975     -647029.039 2   -504177.520 1
  23479454.804    10928460.652 3   8515686.615 2
  24680978.919    -8048435.641 2  -6271501.039 1
 91  8  1  3 55 30.0040000  0  4 23 12 17 11
  22295706.911    -8122473.647 3  -6329162.820 3
  25593540.568     -674205.799 2   -525354.235 1
  23487240.428    10969380.883 3   8547572.484 2
  24672800.281    -8091408.966 2  -6304986.727 1
 91  8  1  3 55 45.0040000  0  4 23 12 17 11
  22300253.548    -8098585.117 3  -6310548.385 3
  25588379.928     -701298.944 2   -546465.713 1
  23495041.024    11010367.221 3   8579509.874 2
  24664640.524    -8134309.132 2  -6338415.421 1
 91  8  1  3 56  0.0040000  0  4 23 12 17 11
  22304809.503    -8074651.447 3  -6291898.778 3
  25583249.285     -728305.801 2   -567509.906 1
  23502855.720    11051421.666 3   8611500.329 1
  24656492.773    -8177133.382 2  -6371784.924 1
 91  8  1  3 56 15.0040000  0  4 23 12 17 11
  22309369.053    -8050675.646 3  -6273216.336 3
  25578121.329     -755228.772 2   -588488.730 1
  23510679.700    11092541.535 3   8643541.773 2
  24648353.695    -8219884.081 2  -6405097.169 1
 91  8  1  3 56 30.0040000  0  4 23 12 17 11
  22313941.185    -8026654.714 3  -6254498.730 3
  25573009.881     -782064.234 2   -609399.523 1
  23518517.762    11133729.924 3   8675636.587 1
  24640237.424    -8262557.767 2  -6438349.361 1
 91  8  1  3 56 45.0040000  0  4 23 12 17 11
  22318523.210    -8002589.647 4  -6235746.724 3
  25567931.693     -808812.804 2   -630242.430 1
  23526363.031    11174985.841 3   8707784.031 1
  24632127.139    -8305155.087 2  -6471542.076 1
 91  8  1  3 57  0.0040000  0  4 23 12 17 11
  22323112.129    -7978470.369 3  -6216952.484 3
  25562860.695     -835463.587 2   -651009.425 1
  23534234.684    11216319.515 2   8739992.065 2
  24624037.829    -8347665.241 2  -6504666.834 1
 91  8  1  3 57 15.0040000  0  4 23 12 17 11
  22327713.350    -7954300.748 3  -6198119.010 2
  25557793.012     -862020.012 2   -671702.649 1
  23542113.841    11257727.029 2   8772257.637 2
  24615962.915    -8390091.570 2  -6537726.309 1
 91  8  1  3 57 30.0040000  0  4 23 12 17 11
  22332319.056    -7930083.037 4  -6179248.064 3
  25552766.093     -888483.873 2   -692323.724 1
  23550002.875    11299206.167 3   8804579.024 1
  24607906.307    -8432435.846 2  -6570721.842 1
 91  8  1  3 57 45.0040000  0  4 23 12 17 11
  22336937.361    -7905820.690 3  -6160342.338 3
  25547745.456     -914858.159 2   -712875.044 1
  23557914.996    11340753.447 3   8836953.499 2
  24599864.967    -8474701.009 2  -6603655.670 1
 91  8  1  3 58  0.0040000  0  4 23 12 17 11
  22341560.761    -7881514.955 3  -6141402.803 3
  25542740.734        8798.51312      6857.292 1
  23565829.507    11382368.047 3   8869380.433 2
  24591837.134    -8516887.727 2  -6636528.430 1
 91  8  1  3 58 15.0040000  0  4 23 12 17 11
  22346194.945    -7857167.193 3  -6122430.522 3
  25537762.082        6185.241 2      4821.210
  23573760.823    11424048.252 3   8901858.494 1
  24583819.771    -8558996.853 2  -6669340.743 1
 91  8  1  3 58 30.0040000  0  4 23 12 17 11
  22350837.244    -7832774.618 4  -6103423.316 3
  25532789.119         981.327 2       766.226
  23581705.628    11465797.167 2   8934390.098 1
  24575821.621    -8601025.099 2  -6702090.004 1
 91  8  1  3 58 45.0040000  0  4 23 12 17 11
  22355487.623    -7808335.368 3  -6084379.748 3
  25527844.948      -25030.876 2    -19503.222 1
  23589665.720    11507616.670 3   8966976.692 2
  24567841.444    -8642970.102 2  -6734774.381 1
 91  8  1  3 59  0.0040000  0  4 23 12 17 11
  22360146.988    -7783850.665 3  -6065300.748 3
  25522902.262      -50949.953 2    -39699.752 1
  23597639.597    11549505.298 3   8999617.145 2
  24559876.554    -8684832.530 2  -6767394.444 1
 91  8  1  3 59 15.0040000  0  4 23 12 17 11
  22364815.061    -7759320.069 4  -6046185.997 2
  25517977.269      -76774.962 2    -59823.047 1
  23605622.775    11591463.828 3   9032312.083 1
  24551932.343    -8726611.507 2  -6799949.446 1
 91  8  1  3 59 30.0040000  0  4 23 12 17 11
  22369489.119    -7734748.914 4  -6027039.634 3
  25513101.155     -102510.601 2    -79876.697 1
  23613619.738    11633487.097 3   9065057.467 2
  24543989.056    -8768311.838 2  -6832443.187 1
 91  8  1  3 59 45.0040000  0  4 23 12 17 11
  22374174.886    -7710135.147 3  -6007860.076 3
  25508222.318     -128154.326 2    -99858.767 1
  23621625.095    11675577.331 2   9097855.023 2
  24536069.728    -8809930.917 2  -6864873.650 1
 91  8  1  4  0  0.0040000  0  4 23 12 17 11
  22378866.325    -7685476.818 3  -5988645.786 3
  25503353.690     -153703.686 2   -119767.320 1
  23629648.130    11717736.182 3   9130706.049 2
  24528166.612    -8851466.186 2  -6897238.725 1
 91  8  1  4  0 15.0040000  0  4 23 12 17 11
  22383566.471    -7660773.683 3  -5969396.585 2
  25498508.445     -179157.819 2   -139601.536 1
  23637685.578    11759964.116 3   9163610.900 2
  24520276.670    -8892916.807 2  -6929537.891 1
 91  8  1  4  0 30.0040000  0  4 23 12 17 11
  22388275.325    -7636027.747 3  -5950114.035 3
  25493688.084     -204518.154 2   -159362.930 1
  23645733.199    11802259.100 3   9196567.995 1
  24512410.112    -8934284.350 2  -6961772.338 1
 91  8  1  4  0 45.0040000  0  4 23 12 17 11
  22392993.149    -7611236.143 3  -5930795.899 3
  25488880.008     -229781.375 2   -179048.500 1
  23653794.624    11844623.916 3   9229579.548 1
  24504553.745    -8975565.587 2  -6993939.498 2
 91  8  1  4  1  0.0040000  0  4 23 12 17 11
  22397721.477    -7586401.553 3  -5911444.262 2
  25484088.737     -254949.701 2   -198660.114 1
  23661868.334    11887055.863 3   9262643.363 1
  24496711.478    -9016762.657 2  -7026041.104 1
 91  8  1  4  1 15.0040000  0  4 23 12 17 11
  22402454.011    -7561525.424 3  -5892060.263 3
  25479304.341     -280023.831 2   -218198.418 1
  23669958.534    11929553.957 3   9295758.740 1
  24488888.388    -9057876.274 2  -7058077.639 1
 91  8  1  4  1 30.0040000  0  4 23 12 17 11
  22407194.328    -7536609.353 3  -5872645.144 3
  25474562.820     -305004.999 2   -237664.143 1
  23678054.423    11972116.582 3   9328924.395 2
  24481078.508    -9098907.571 2  -7090050.036 1
 91  8  1  4  1 45.0040000  0  5 21 23 12 17 11
  22602565.465      650725.62713    507066.079 2
  22411944.836    -7511649.735 3  -5853196.094 3
  25469827.302     -329889.164 2   -257054.455 1
  23686168.600    12014747.054 2   9362142.930 1
  24473286.602    -9139852.532 2  -7121955.167 1
 91  8  1  4  2  0.0040000  0  5 21 23 12 17 11
  22600003.145      637260.403 3    496573.717 2
  22416702.236    -7486650.494 3  -5833716.155 3
  25465105.866     -354679.487 2   -276371.459 1
  23694295.079    12057441.916 3   9395411.618 1
  24465508.185    -9180714.494 2  -7153795.639 1
 91  8  1  4  2 15.0040000  0  5 21 23 12 17 11
  22597449.812      623851.742 3    486125.425 2
  22421466.250    -7461609.137 3  -5814203.413 3
  25460411.426     -379372.984 2   -295613.072 1
  23702429.358    12100203.695 2   9428732.448 1
  24457757.653    -9221490.331 2  -7185569.008 1
 91  8  1  4  2 30.0040000  0  5 21 23 12 17 11
  22594910.875      610496.953 3    475719.115 2
  22426241.328    -7436528.251 3  -5794659.868 2
  25455730.772     -403971.948 2   -314781.054 1
  23710579.814    12143029.590 3   9462103.261 1
  24450007.418    -9262182.401 2  -7217277.083 1
 91  8  1  4  2 45.0040000  0  5 21 23 12 17 11
  22592379.721      597200.009 3    465357.888 2
  22431020.628    -7411403.900 3  -5775082.449 2
  25451058.494     -428471.830 2   -333871.847 1
  23718740.757    12185923.661 3   9495527.192 1
  24442283.568    -9302786.242 2  -7248916.389 1
 91  8  1  4  3  0.0040000  0  5 21 23 12 17 11
  22589860.869      583957.459 3    455039.027 2
  22435810.417    -7386239.933 3  -5755474.160 3
  25446422.808     -452875.697 2   -352887.778 1
  23726915.504    12228882.075 2   9529001.236 1
  24434574.690    -9343304.886 2  -7280489.332 1
 91  8  1  4  3 15.0040000  0  5 21 23 12 17 11
  22587354.006      570773.572 3    444765.887 2
  22440608.284    -7361032.074 3  -5735831.671 2
  25441799.111     -477178.905 2   -371825.257 1
  23735101.628    12271909.335 2   9562528.944 1
  24426878.725    -9383733.648 2  -7311992.246 1
 91  8  1  4  3 30.0040000  0  5 21 23 12 17 11
  22584852.534      557645.923 3    434536.562 2
  22445412.765    -7335782.600 3  -5716156.747 2
  25437196.093     -501383.322 2   -390685.829 1
  23743303.056    12315002.928 2   9596108.361 1
  24419198.937    -9424074.386 2  -7343426.542 1
 91  8  1  4  3 45.0040000  0  5 21 23 12 17 11
  22582367.257      544574.701 3    424351.216 2
  22450221.138    -7310491.501 3  -5696449.396 3
  25432612.863     -525488.470 2   -409469.030 1
  23751518.862    12358162.914 2   9629739.486 1
  24411545.847    -9464326.540 2  -7374791.814 1
 91  8  1  4  4  0.0040000  0  5 21 23 12 17 11
  22579890.059      531563.573 3    414212.691 2
  22455042.092    -7285155.284 3  -5676706.892 3
  25428024.538     -549490.334 2   -428171.648 1
  23759742.173    12401392.864 2   9663425.124 2
  24403902.337    -9504486.052 2  -7406084.914 1
 91  8  1  4  4 15.0040000  0  5 21 23 12 17 11
  22577423.680      518605.303 3    404115.348 2
  22459872.051    -7259781.350 3  -5656934.990 3
  25423488.685     -573395.600 2   -446799.165 1
  23767981.066    12444685.613 2   9697159.718 1
  24396274.708    -9544559.676 2  -7437311.055 1
 91  8  1  4  4 30.0040000  0  5 21 23 12 17 11
  22574966.567      505703.791 3    394062.239 2
  22464709.513    -7234365.583 3  -5637130.491 2
  25418967.822     -597199.996 2   -465347.937 1
  23776234.949    12488045.058 2   9730946.266 1
  24388668.978    -9584543.107 2  -7468466.940 1
 91  8  1  4  4 45.0040000  0  5 21 23 12 17 11
  22572527.463      492861.308 3    384055.126 2
  22469554.758    -7208906.009 3  -5617291.858 2
  25414449.036     -620900.816 2   -483816.086 1
  23784494.836    12531473.315 2   9764786.445 2
  24381072.235    -9624433.743 2  -7499550.516 1
 91  8  1  4  5  0.0040000  0  5 21 23 12 17 11
  22570091.657      480073.830 3    374090.867 2
  22474405.988    -7183406.650 3  -5597422.227 2
  25409951.853     -644501.737 2   -502206.283 1
  23792777.512    12574966.299 2   9798677.038 1
  24373500.969    -9664235.221 2  -7530564.635 1
 91  8  1  4  5 15.0040000  0  5 21 23 12 17 11
  22567669.933      467341.888 3    364169.894 2
  22479265.926    -7157867.213 3  -5577521.362 2
  25405489.152     -668001.744 2   -520518.126 1
  23801067.063    12618524.776 2   9832618.682 2
  24365945.008    -9703946.467 2  -7561508.425 1
 91  8  1  4  5 30.0040000  0  5 21 23 12 17 11
  22565256.900      454668.823 3    354294.790 2
  22484135.462    -7132284.447 3  -5557586.732 2
  25401027.637     -691397.106 2   -538748.161
  23809360.523    12662151.589 2   9866613.575 2
  24358406.723    -9743563.729 2  -7592378.962 1
 91  8  1  4  5 45.0040000  0  5 21 23 12 17 11
  22562856.465      442054.575 3    344465.519 2
  22489013.077    -7106658.377 3  -5537618.367 3
  25396597.603     -714687.422 2   -556896.395 1
  23817680.962    12705846.857 2   9900661.816 1
  24350884.336    -9783086.655 2  -7623176.015 1
 91  8  1  4  6  0.0040000  0  5 21 23 12 17 11
  22560467.705      429500.911 3    334683.476 2
  22493897.899    -7080987.428 3  -5517615.028 2
  25392190.044     -737870.423 2   -574961.005 1
  23826006.495    12749612.409 2   9934764.801 1
  24343381.126    -9822513.078 2  -7653897.847 1
 91  8  1  4  6 15.0040000  0  5 21 23 12 17 11
  22558090.653      417005.070 3    324946.463 2
  22498791.411    -7055274.356 3  -5497578.859 2
  25387797.790     -760948.373 2   -592943.834 1
  23834352.114    12793445.313 2   9968920.290 1
  24335897.408    -9861845.173 3  -7684546.198 1
 91  8  1  4  6 30.0040000  0  5 21 23 12 17 11
  22555721.996      404565.314 3    315253.157 2
  22503691.223    -7029520.931 3  -5477511.251 2
  25383424.713     -783922.719 2   -610845.908 1
  23842704.347    12837343.877 2  10003126.923 1
  24328430.181    -9901084.225 3  -7715122.049 1
 91  8  1  4  6 45.0040000  0  5 21 23 12 17 11
  22553363.529      392181.105 3    305603.145 2
  22508594.926    -7003727.821 3  -5457412.727 3
  25379079.521     -806793.528 2   -628667.180 1
  23851069.144    12881307.495 2  10037384.259 2
  24320981.538    -9940230.479 2  -7745625.584 1
 91  8  1  4  7  0.0040000  0  5 21 23 12 17 11
  22551019.459      379853.438 3    295997.185 2
  22513513.915    -6977894.100 3  -5437282.552 2
  25374738.832     -829559.470 2   -646406.925
  23859450.152    12925337.095 2  10071692.994 1
  24313548.774    -9979282.525 2  -7776055.715 1
 91  8  1  4  7 15.0040000  0  5 21 23 12 17 11
  22548686.469      367583.512 3    286436.221 2
  22518439.815    -6952018.669 3  -5417119.871 2
  25370434.422     -852218.942 2   -664063.595 1
  23867839.833    12969433.890 2  10106054.112 2
  24306140.005   -10018238.641 3  -7806411.078 1
 91  8  1  4  7 30.0040000  0  5 21 23 12 17 11
  22546361.874      355372.276 3    276920.990 2
  22523371.386    -6926100.562 3  -5396923.933 3
  25366135.089     -874770.511 2   -681636.236 1
  23876243.613    13013598.699 2  10140468.225 1
  24298739.926   -10057097.541 2  -7836690.708 1
 91  8  1  4  7 45.0040000  0  5 21 23 12 17 11
  22544048.673      343219.047 3    267450.967 2
  22528309.571    -6900140.581 3  -5376695.379 3
  25361856.453     -897214.436 2   -699125.034 1
  23884658.195    13057830.645 2  10174934.647 2
  24291363.231   -10095859.447 2  -7866894.731 1
 91  8  1  4  8  0.0040000  0  5 21 23 12 17 11
  22541745.977      331121.483 3    258024.309 2
  22533257.947    -6874141.426 3  -5356436.275 2
  25357606.592     -919552.739 2   -716531.410 1
  23893090.751    13102127.398 2  10209451.565 2
  24284011.437   -10134526.328 3  -7897024.717 1
 91  8  1  4  8 15.0040000  0  5 21 23 12 17 11
  22539454.362      319079.797 3    248641.189 2
  22538215.327    -6848102.865 3  -5336146.482 2
  25353391.806     -941784.813 2   -733854.966
  23901534.406    13146489.007 2  10244019.023 2
  24276667.408   -10173097.541 2  -7927080.180 1
 91  8  1  4  8 30.0040000  0  5 21 23 12 17 11
  22537174.439      307095.937 3    239303.145 2
  22543175.377    -6822022.886 3  -5315824.414 3
  25349175.223     -963908.066 2   -751093.869 1
  23909987.064    13190917.577 2  10278638.660 1
  24269345.890   -10211570.657 3  -7957059.189 1
 91  8  1  4  8 45.0040000  0  5 21 23 12 17 11
  22534905.317      295175.910 3    230014.838 2
  22548148.340    -6795895.583 3  -5295465.468 2
  25344989.526     -985916.350 2   -768243.173 1
  23918455.603    13235418.850 2  10313314.958 1
  24262047.127   -10249939.355 2  -7986956.816 1
 91  8  1  4  9  0.0040000  0  5 21 23 12 17 11
  22532650.574      283313.641 3    220771.532 2
  22553127.288    -6769727.114 3  -5275074.442 3
  25340823.915    -1007815.135 2   -785307.205 1
  23926935.536    13279986.813 2  10348043.197 1
  24254763.371   -10288209.178 3  -8016777.416 1
 91  8  1  4  9 15.0040000  0  5 21 23 12 17 11
  22530403.632      271509.012 3    211573.141 2
  22558117.038    -6743517.692 3  -5254651.516 3
  25336678.075    -1029604.110 2   -802285.563 1
  23935423.549    13324621.417 2  10382823.389 2
  24247499.997   -10326379.762 3  -8046520.694 1
 91  8  1  4  9 30.0040000  0  5 21 23 12 17 11
  22528167.770      259762.679 3    202420.177 2
  22563110.976    -6717266.577 3  -5234196.097 3
  25332545.444    -1051282.098 2   -819177.461 1
  23943934.962    13369323.319 2  10417655.998 1
  24240257.022   -10364450.043 2  -8076185.817 1
 91  8  1  4  9 45.0040000  0  5 21 23 12 17 11
  22525943.321      248074.473 3    193312.508 2
  22568113.029    -6690973.973 3  -5213708.350 2
  25328436.180    -1072849.069 2   -835982.862 1
  23952455.956    13414091.911 2  10452540.586 1
  24233030.224   -10402419.842 3  -8105772.611 1
 91  8  1  4 10  0.0040000  0  5 21 23 12 17 11
  22523730.547      236443.293 3    184249.269 2
  22573127.349    -6664641.379 3  -5193189.440 2
  25324368.307    -1094305.720 2   -852702.215 1
  23960987.158    13458926.407 2  10487476.520 1
  24225826.809   -10440289.832 3  -8135281.649 1
 91  8  1  4 10 15.0040000  0  5 21 23 12 17 11
  22521526.479      224873.481 3    175233.850 2
  22578145.578    -6638264.262 3  -5172635.848 3
  25320304.326    -1115647.266 2   -869331.947 1
  23969527.940    13503830.985 2  10522467.070 1
  24218636.290   -10478055.126 3  -8164709.113 2
 91  8  1  4 10 30.0040000  0  5 21 23 12 17 11
  22519337.681      213365.030 3    166266.247 2
  22583173.998    -6611842.704 3  -5152047.616 2
  25316252.019    -1136873.263 2   -885871.762 1
  23978093.310    13548805.759 2  10557512.340 1
  24211470.044   -10515715.273 3  -8194054.646 1
 91  8  1  4 10 45.0040000  0  5 21 23 12 17 11
  22517157.590      201916.660 3    157345.465 2
  22588207.810    -6585378.098 3  -5131425.837 2
  25312238.399    -1157984.512 2   -902322.328 1
  23986660.180    13593849.259 2  10592611.139 1
  24204324.790   -10553271.090 3  -8223318.881 1
 91  8  1  4 11  0.0040000  0  5 21 23 12 17 11
  22514991.896      190527.771 3    148471.017 2
  22593251.813    -6558871.202 3  -5110771.116 3
  25308252.961    -1178981.256 2   -918683.540 1
  23995248.340    13638960.683 2  10627762.879 1
  24197195.138   -10590722.859 3  -8252502.007 1
 91  8  1  4 11 15.0040000  0  5 21 23 12 17 11
  22512839.691      179198.740 3    139643.219 2
  22598305.710    -6532321.572 3  -5090083.097 3
  25304278.605    -1199862.780 2   -934954.899 1
  24003848.487    13684140.535 2  10662967.915 1
  24190090.648   -10628069.789 2  -8281603.491 1
 91  8  1  4 11 30.0040000  0  5 21 23 12 17 11
  22510691.377      167928.152 3    130860.963 2
  22603365.610    -6505730.997 3  -5069363.151 3
  25300318.051    -1220630.198 2   -951137.191 1
  24012457.029    13729386.919 2  10698224.839 2
  24183006.261   -10665312.891 3  -8310624.032 1
 91  8  1  4 11 45.0040000  0  5 21 23 12 17 11
  22508555.959      156713.945 3    122122.648 2
  22608430.902    -6479101.507 3  -5048612.907 2
  25296394.963    -1241284.993 2   -967231.804 1
  24021080.560    13774698.040 2  10733532.164 1
  24175933.251   -10702453.844 3  -8339564.998 1
 91  8  1  4 12  0.0040000  0  5 21 23 12 17 11
  22506435.217      145559.465 3    113430.858 2
  22613508.497    -6452429.848 3  -5027829.800 2
  25292483.880    -1261823.462 2   -983235.840 1
  24029711.874    13820077.384 2  10768892.671 1
  24168886.923   -10739488.866 2  -8368423.424 1
 91  8  1  4 12 15.0040000  0  5 21 23 12 17 11
  22504325.887      134465.928 3    104786.555 2
  22618592.670    -6425714.746 3  -5007012.837 2
  25288591.068    -1282243.973 2   -999147.863 1
  24038359.696    13865526.100 2  10804307.225 1
  24161862.495   -10776416.304 3  -8397198.007 2
 91  8  1  4 12 30.0040000  0  5 21 23 12 17 11
  22502224.636      123432.022 3     96188.739 2
  22623684.958    -6398957.613 3  -4986163.126 2
  25284739.631    -1302547.354 2  -1014968.661 1
  24047023.694    13911042.413 2  10839774.442 1
  24154853.039   -10813237.042 3  -8425889.456 1
 91  8  1  4 12 45.0040000  0  5 21 23 12 17 11
  22500138.672      112457.506 3     87637.184 2
  22628783.527    -6372158.848 3  -4965280.985 2
  25280892.399    -1322733.638 2  -1030698.237 1
  24055701.181    13956626.069 2  10875294.153 1
  24147865.483   -10849951.012 3  -8454497.711 1
 91  8  1  4 13  0.0040000  0  5 21 23 12 17 11
  22498059.025      101544.417 3     79133.514 2
  22633890.176    -6345316.499 3  -4944364.869 3
  25277074.849    -1342800.327 2  -1046334.595 1
  24064383.467    14002279.331 2  10910868.103 1
  24140899.810   -10886555.529 3  -8483020.657 2
 91  8  1  4 13 15.0040000  0  5 21 23 12 17 11
  22495991.646       90689.523 3     70675.166 2
  22639006.144    -6318433.702 3  -4923417.239 2
  25273282.167    -1362750.097 2  -1061879.821 1
  24073083.744    14047998.951 2  10946493.754 1
  24133957.503   -10923053.383 3  -8511460.514 1
 91  8  1  4 13 30.0040000  0  5 21 23 12 17 11
  22493939.866       79897.145 3     62265.551 2
  22644130.802    -6291506.177 3  -4902434.758 2
  25269500.286    -1382578.456 2  -1077330.471 1
  24081796.027    14093788.970 2  10982174.243 1
  24127031.407   -10959439.944 3  -8539813.630 1
 91  8  1  4 13 45.0040000  0  5 21 23 12 17 11
  22491897.982       69167.599 3     53904.888 2
  22649262.335    -6264533.766 3  -4881417.292 2
  25265756.778    -1402284.620 2  -1092685.796 1
  24090527.767    14139649.539 2  11017909.731 1
  24120133.772   -10995714.517 3  -8568079.491 1
 91  8  1  4 14  0.0040000  0  5 21 23 12 17 11
  22489867.492       58499.753 3     45592.305 2
  22654404.391    -6237517.721 3  -4860365.839 3
  25262027.666    -1421869.318 2  -1107946.674 1
  24099268.826    14185579.704 2  11053699.457 1
  24113246.642   -11031877.745 3  -8596258.591 1
 91  8  1  4 14 15.0040000  0  5 21 23 12 17 11
  22487848.083       47890.638 3     37325.480 2
  22659551.821    -6210461.150 3  -4839282.786 2
  25258314.138    -1441335.173 2  -1123114.831 1
  24108020.372    14231576.301 2  11089540.918 1
  24106385.897   -11067932.267 3  -8624352.985 2
 91  8  1  4 14 30.0040000  0  5 21 23 12 17 11
  22485843.367       37346.132 3     29109.012 2
  22664710.053    -6183358.110 3  -4818163.525 3
  25254645.875    -1460675.911 2  -1138185.542 1
  24116787.797    14277645.276 2  11125438.791 1
  24099545.237   -11103871.649 3  -8652357.665 1
 91  8  1  4 14 45.0040000  0  5 21 23 12 17 11
  22483845.264       26861.445 3     20939.147 2
  22669873.380    -6156213.622 3  -4797011.974 3
  25250978.206    -1479895.965 2  -1153162.139 1
  24125558.818    14323781.650 2  11161389.186 1
  24092729.758   -11139700.357 3  -8680276.106 1
 91  8  1  4 15  0.0040000  0  5 21 23 12 17 11
  22481862.728       16437.468 3     12816.593 2
  22675049.883    -6129026.649 3  -4775827.318 2
  25247349.224    -1498994.037 2  -1168043.768 1
  24134357.724    14369986.359 2  11197392.813 1
  24085931.956   -11175417.098 3  -8708107.298 1
 91  8  1  4 15 15.0040000  0  5 21 23 12 17 11
  22479892.790        6075.180 3      4742.092 2
  22680232.109    -6101796.323 3  -4754608.885 2
  25243739.123    -1517968.727 2  -1182829.246 1
  24143164.133    14416260.218 2  11233450.348 1
  24079158.741   -11211020.429 3  -8735850.122 1
 91  8  1  4 15 30.0040000  0  5 21 23 12 17 11
  22477930.653       -4222.686 3     -3282.189 2
  22685422.118    -6074520.031 3  -4733354.612 2
  25240157.797    -1536816.909 2  -1197515.999 1
  24151985.236    14462605.845 2  11269563.808 1
  24072405.629   -11246507.241 3  -8763502.168 1
 91  8  1  4 15 45.0040000  0  5 21 23 12 17 11
  22475983.505      -14459.106 3    -11258.588 2
  22690621.410    -6047200.809 3  -4712066.911 2
  25236581.881    -1555541.073 2  -1212106.090 1
  24160813.824    14509020.333 2  11305730.898 1
  24065671.677   -11281880.026 3  -8791065.330 2
 91  8  1  4 16  0.0040000  0  5 21 23 12 17 11
  22474049.846      -24635.673 3    -19188.364 2
  22695825.501    -6019840.331 3  -4690747.049 2
  25233054.825    -1574142.469 2  -1226600.780 1
  24169659.497    14555501.954 2  11341950.314 1
  24058966.518   -11317139.907 3  -8818540.537 1
 91  8  1  4 16 15.0040000  0  5 21 23 12 17 11
  22472121.877      -34749.704 3    -27069.408 2
  22701041.598    -5992435.877 3  -4669392.925 2
  25229534.052    -1592618.093 2  -1240997.354 1
  24178514.470    14602053.301 2  11378224.074 1
  24052277.257   -11352283.898 3  -8845925.434 1
 91  8  1  4 16 30.0040000  0  5 21 23 12 17 11
  22470209.490      -44801.129 3    -34901.660 2
  22706263.384    -5964987.666 3  -4648004.713 2
  25226055.561    -1610967.534 2  -1255295.589 1
  24187389.825    14648674.363 2  11414552.124 1
  24045611.971   -11387311.488 3  -8873219.634 2
 91  8  1  4 16 45.0040000  0  5 21 23 12 17 11
  22468309.405      -54788.726 3    -42684.185 2
  22711495.954    -5937494.410 3  -4626581.406 2
  25222577.069    -1629189.120 2  -1269494.221 1
  24196274.761    14695366.331 2  11450935.440 1
  24038966.178   -11422220.983 3  -8900421.794 1
 91  8  1  4 17  0.0040000  0  5 21 23 12 17 11
  22466421.013      -64714.192 3    -50418.286 2
  22716737.232    -5909957.812 3  -4605124.314 2
  25219114.178    -1647284.271 2  -1283594.346 1
  24205173.203    14742127.463 2  11487372.669 1
  24032345.251   -11457013.560 3  -8927532.888 1
 91  8  1  4 17 15.0040000  0  5 21 23 12 17 11
  22464543.718      -74577.722 3    -58104.134 2
  22721986.589    -5882377.966 3  -4583633.540 2
  25215709.134    -1665252.671 2  -1297595.611 1
  24214081.835    14788957.366 2  11523863.441 1
  24025747.725   -11491688.994 3  -8954552.669 1
 91  8  1  4 17 30.0040000  0  5 21 23 12 17 11
  22462679.302      -84381.065 3    -65743.081 2
  22727240.151    -5854756.910 3  -4562110.620 2
  25212318.173    -1683095.675 2  -1311499.209 1
  24223005.458    14835854.443 2  11560406.595 1
  24019172.675   -11526248.986 3  -8981482.502 1
 91  8  1  4 17 45.0040000  0  5 21 23 12 17 11
  22460823.890      -94122.154 3    -73333.511 2
  22732504.812    -5827092.794 3  -4540554.164 2
  25208936.513    -1700811.002 2  -1325303.307 1
  24231946.164    14882820.521 2  11597003.531 1
  24012617.117   -11560690.831 3  -9008320.270 2
 91  8  1  4 18  0.0040000  0  5 21 23 12 17 11
  22458983.765     -103800.641 3    -80875.180 2
  22737776.366    -5799385.155 3  -4518963.794 2
  25205587.834    -1718397.942 2  -1339007.409 1
  24240898.283    14929855.945 2  11633654.467 1
  24006085.239   -11595013.829 3  -9035065.436 1
 91  8  1  4 18 15.0040000  0  5 21 23 12 17 11
  22457153.534     -113418.177 3    -88369.343 2
  22743059.611    -5771635.866 3  -4497340.977 2
  25202278.121    -1735857.605 2  -1352612.275 1
  24249858.464    14976958.905 2  11670358.048 1
  23999579.431   -11629219.262 3  -9061719.002 2
 91  8  1  4 18 30.0040000  0  5 21 23 12 17 11
  22455335.901     -122971.540 3    -95813.504 2
  22748349.139    -5743841.668 3  -4475683.159 2
  25198971.112    -1753186.451 2  -1366115.262 1
  24258838.747    15024132.489 2  11707116.655 1
  23993089.538   -11663303.438 3  -9088278.061 1
 91  8  1  4 18 45.0040000  0  5 21 23 12 17 11
  22453528.443     -132465.399 3   -103211.286 2
  22753641.982    -5716007.013 3  -4453993.824 2
  25195709.370    -1770388.587 2  -1379519.509 1
  24267822.032    15071372.099 2  11743926.716 1
  23986622.714   -11697270.388 3  -9114745.794 1
 91  8  1  4 19  0.0040000  0  5 21 23 12 17 11
  22451733.286     -141897.796 3   -110561.196 2
  22758947.999    -5688130.469 3  -4432271.839 2
  25192457.819    -1787462.003 2  -1392823.418 1
  24276827.496    15118679.438 2  11780789.546 1
  23980185.259   -11731118.055 3  -9141120.578 2
 91  8  1  4 19 15.0040000  0  5 21 23 12 17 11
  22449950.729     -151266.872 3   -117861.756 2
  22764262.428    -5660209.949 3  -4410515.600 2
  25189238.062    -1804404.275 2  -1406025.212 1
  24285844.652    15166056.361 2  11817706.597 1
  23973766.406   -11764843.987 3  -9167400.517 1
 91  8  1  4 19 30.0040000  0  5 21 23 12 17 11
  22448177.456     -160576.049 3   -125115.639 2
  22769583.453    -5632248.942 3  -4388727.814 2
  25186041.670    -1821218.602 2  -1419127.220 1
  24294873.813    15213499.477 2  11854675.212 1
  23967373.327   -11798451.236 3  -9193587.957 2
 91  8  1  4 19 45.0040000  0  5 21 23 12 17 11
  22446418.875     -169827.613 3   -132324.625 2
  22774912.855    -5604249.812 3  -4366910.295 2
  25182856.377    -1837906.812 2  -1432131.006 1
  24303912.555    15261006.543 2  11891693.651 1
  23961001.240   -11831941.620 3  -9219684.317 1
 91  8  1  4 20  0.0040000  0  5 21 23 12 17 11
  22444670.171     -179019.374 3   -139487.021 2
  22780246.165    -5576210.637 3  -4345061.592 2
  25179716.054    -1854466.415 2  -1445034.536 1
  24312962.395    15308579.404 2  11928763.408 1
  23954649.239   -11865312.623 3  -9245687.669 2
 91  8  1  4 20 15.0040000  0  5 21 23 12 17 11
  22442931.379     -188153.287 3   -146604.343 2
  22785588.758    -5548133.551 3  -4323183.344 2
  25176572.414    -1870899.042 2  -1457839.167 1
  24322029.301    15356216.121 2  11965882.882 1
  23948319.731   -11898565.847 3  -9271599.251 2
 91  8  1  4 20 30.0040000  0  5 21 23 12 17 11
  22441205.169     -197223.325 3   -153671.889 2
  22790941.264    -5520012.479 3  -4301270.824 2
  25173478.857    -1887198.229 2  -1470539.838 1
  24331106.730    15403922.324 2  12003056.505 1
  23942017.794   -11931694.750 3  -9297413.938 2
 91  8  1  4 20 45.0040000  0  5 21 23 12 17 11
  22439488.573     -206235.706 3   -160694.504 2
  22796299.144    -5491853.485 3  -4279328.754 2
  25170401.494    -1903369.724 2  -1483140.990 1
  24340199.428    15451692.069 2  12040279.657 1
  23935736.239   -11964705.225 3  -9323136.356 1
 91  8  1  4 21  0.0040000  0  5 21 23 12 17 11
  22437785.746     -215188.775 3   -167670.900 2
  22801662.730    -5463655.118 3  -4257356.005 2
  25167350.498    -1919411.581 2  -1495641.092 1
  24349299.629    15499527.043 2  12077553.643 1
  23929478.364   -11997595.179 3  -9348764.859 2
 91  8  1  4 21 15.0040000  0  5 21 23 12 17 11
  22436092.220     -224085.829 3   -174603.659 2
  22807037.118    -5435420.514 3  -4235355.016 2
  25164328.905    -1935326.804 2  -1508042.472 1
  24358419.915    15547423.750 2  12114875.713 1
  23923241.779   -12030367.473 3  -9374301.677 1
 91  8  1  4 21 30.0040000  0  5 21 23 12 17 11
  22434410.979     -232924.894 3   -181491.227 2
  22812416.601    -5407147.998 3  -4213324.491 2
  25161306.685    -1951113.174 2  -1520343.476 1
  24367541.999    15595384.083 2  12152247.350 1
  23917027.686   -12063019.774 3  -9399745.003 2
 91  8  1  4 21 45.0040000  0  5 21 23 12 17 11
  22432739.632     -241703.674 3   -188331.819 2
  22817804.460    -5378835.206 3  -4191262.569 2
  25158345.034    -1966767.888 2  -1532541.895 1
  24376681.778    15643410.329 2  12189670.369 1
  23910836.977   -12095549.400 3  -9425092.743 1
 91  8  1  4 22  0.0040000  0  5 21 23 12 17 11
  22431080.884     -250425.690 3   -195128.181 2
  22823199.823    -5350485.788 3  -4169172.114 2
  25155380.085    -1982294.091 2  -1544640.165 1
  24385835.045    15691498.738 2  12227141.820 1
  23904667.243   -12127959.530 3  -9450347.440 2
 91  8  1  4 22 15.0040000  0  5 21 23 12 17 11
  22429433.234     -259089.615 3   -201879.275 3
  22828602.079    -5322098.405 3  -4147052.079 2
  25152457.121    -1997690.193 2  -1556637.181 1
  24394992.204    15739650.475 2  12264662.602 1
  23898525.395   -12160248.486 3  -9475507.735 1
 91  8  1  4 22 30.0040000  0  5 21 23 12 17 11
  22427792.460     -267696.162 3   -208585.652 2
  22834011.245    -5293673.860 3  -4124903.081 2
  25149552.131    -2012956.590 2  -1568533.032 1
  24404170.949    15787864.873 2  12302232.231 1
  23892403.038   -12192416.166 3  -9500573.405 1
 91  8  1  4 22 45.0040000  0  5 21 23 12 17 11
  22426166.397     -276248.825 3   -215250.048 2
  22839427.287    -5265215.676 3  -4102727.864 2
  25146672.025    -2028096.406 2  -1580330.215 1
  24413354.492    15836138.527 2  12339848.041 1
  23886304.362   -12224465.892 3  -9525547.126 1
 91  8  1  4 23  0.0040000  0  5 21 23 12 17 11
  22424547.505     -284746.365 3   -221871.486 2
  22844847.237    -5236722.757 3  -4080525.602 2
  25143818.600    -2043107.966 2  -1592027.548 1
  24422559.622    15884472.333 2  12377510.719 1
  23880227.568   -12256396.072 3  -9550427.676 1
 91  8  1  4 23 15.0040000  0  5 21 23 12 17 11
  22422943.621     -293184.764 3   -228446.844 2
  22850276.489    -5208191.039 3  -4058293.097 2
  25140984.667    -2057986.996 2  -1603621.553 1
  24431756.340    15932870.227 2  12415223.324 1
  23874176.251   -12288202.339 3  -9575211.741 2
 91  8  1  4 23 30.0040000  0  5 21 23 12 17 11
  22421348.723     -301568.181 3   -234979.359 2
  22855711.725    -5179624.847 3  -4036033.716 2
  25138163.909    -2072737.294 2  -1615115.272 1
  24440993.857    15981328.059 2  12452982.630 1
  23868144.426   -12319888.373 3  -9599902.114 1
 91  8  1  4 23 45.0040000  0  5 21 23 12 17 11
  22419765.517     -309895.741 3   -241468.359 2
  22861158.357    -5151023.257 3  -4013746.777 2
  25135384.840    -2087357.569 2  -1626507.700 1
  24450211.568    16029846.517 2  12490789.177 1
  23862140.783   -12351452.944 3  -9624497.831 2
 91  8  1  4 24  0.0040000  0  5 21 23 12 17 11
  22418191.001     -318167.653 3   -247913.981 2
  22866608.584    -5122386.594 3  -3991432.503 2
  25132634.546    -2101847.760 2  -1637798.700 1
  24459468.560    16078425.384 2  12528642.826 1
  23856157.226   -12382895.817 3  -9648998.752 1
 91  8  1  4 24 15.0040000  0  5 21 23 12 17 11
  22416628.195     -326381.629 3   -254314.468 2
  22872064.796    -5093712.730 3  -3969089.233 2
  25129894.129    -2116205.192 2  -1648986.270 1
  24468721.956    16127066.873 2  12566545.251 1
  23850194.347   -12414214.331 3  -9673402.744 2
 91  8  1  4 24 30.0040000  0  5 21 23 12 17 11
  22415073.171     -334541.399 3   -260672.723 2
  22877525.824    -5065005.372 3  -3946719.868 2
  25127189.712    -2130433.299 2  -1660073.125 1
  24477981.949    16175767.068 2  12604493.421 1
  23844262.355   -12445411.775 3  -9697712.422 1
 91  8  1  4 24 45.0040000  0  5 21 23 12 17 11
  22413531.340     -342645.091 3   -266987.271 2
  22882993.727    -5036262.709 3  -3924322.989 2
  25124511.068    -2144529.930 2  -1671057.467 1
  24487271.311    16224527.817 2  12642488.785 1
  23838345.963   -12476485.964 3  -9721926.011 2
 91  8  1  4 25  0.0040000  0  5 21 23 12 17 11
  22412003.591     -350691.813 3   -273257.436 2
  22888472.433    -5007483.936 3  -3901897.964 2
  25121843.209    -2158493.768 2  -1681938.332 1
  24496554.391    16273349.947 2  12680531.965 1
  23832455.031   -12507435.620 3  -9746042.601 2
 91  8  1  4 25 15.0040000  0  5 21 23 12 17 11
  22410480.954     -358679.787 3   -279481.817 3
  22893952.953    -4978667.369 3  -3879443.505 2
  25119228.120    -2172322.671 2  -1692714.087 1
  24505859.353    16322235.255 2  12718624.411 1
  23826591.392   -12538258.528 3  -9770060.407 2
 91  8  1  4 25 30.0040000  0  5 21 23 12 17 11
  22408969.992     -366612.215 3   -285662.921 2
  22899447.241    -4949816.201 3  -3856962.077 2
  25116622.017    -2186019.625 2  -1703387.035 1
  24515173.302    16371180.395 2  12756763.422 1
  23820745.133   -12568957.574 3  -9793981.710 1
 91  8  1  4 25 45.0040000  0  5 21 23 12 17 11
  22407471.333     -374489.697 3   -291801.212 3
  22904941.843    -4920931.032 3  -3834454.153 2
  25114035.109    -2199584.942 2  -1713957.331 1
  24524495.051    16420184.465 2  12794948.396 1
  23814931.261   -12599532.896 3  -9817806.599 1
 91  8  1  4 26  0.0040000  0  5 21 23 12 17 11
  22405983.457     -382309.819 3   -297894.795 2
  22910446.026    -4892009.679 3  -3811918.036 2
  25111474.290    -2213015.827 2  -1724422.970 1
  24533840.184    16469250.128 2  12833181.343 1
  23809135.974   -12629981.753 3  -9841532.929 2
 91  8  1  4 26 15.0040000  0  5 21 23 12 17 11
  22404505.180     -390073.991 3   -303944.787 2
  22915958.009    -4863053.299 3  -3789354.627 2
  25108949.139    -2226313.332 2  -1734784.630 1
  24543183.205    16518375.517 2  12871460.855 1
  23803367.072   -12660305.168 3  -9865161.526 1
 91  8  1  4 26 30.0040000  0  5 21 23 12 17 11
  22403038.297     -397781.903 3   -309950.934 2
  22921473.586    -4834061.817 3  -3766763.858 2
  25106448.261    -2239476.706 2  -1745041.771 1
  24552543.327    16567560.993 2  12909787.121 1
  23797618.254   -12690502.369 3  -9888691.765 2
 91  8  1  4 26 45.0040000  0  5 21 23 12 17 11
  22401582.809     -405432.448 3   -315912.389 2
  22926997.278    -4805033.998 3  -3744144.771 2
  25103965.095    -2252504.567 2  -1755193.317 1
  24561911.250    16616807.606 2  12948161.100 1
  23791898.213   -12720571.900 3  -9912122.548 2
 91  8  1  4 27  0.0040000  0  5 21 23 12 17 11
  22400139.013     -413031.122 3   -321833.419 3
  22932523.937    -4775975.546 3  -3721501.821 2
  25101507.685    -2265402.093 2  -1765243.276 1
  24571290.550    16666109.609 2  12986578.192 1
  23786202.461   -12750518.816 3  -9935457.752 2
 91  8  1  4 27 15.0040000  0  5 21 23 12 17 11
  22398701.499     -420573.014 3   -327710.202 3
  22938060.507    -4746881.633 3  -3698831.246 2
  25099084.164    -2278164.161 2  -1775187.710 1
  24580684.543    16715472.077 2  13025042.444 1
  23780524.387   -12780337.801 3  -9958693.291 2
 91  8  1  4 27 30.0040000  0  5 21 23 12 17 11
  22397278.381     -428059.456 3   -333543.776 2
  22943606.971    -4717753.733 3  -3676134.176 2
  25096677.133    -2290791.687 2  -1785027.281 1
  24590088.430    16764893.587 2  13063552.672 1
  23774873.292   -12810029.952 3  -9981830.003 2
 91  8  1  4 27 45.0040000  0  5 21 23 12 17 11
  22395864.268     -435492.412 3   -339335.686 2
  22949156.734    -4688593.751 3  -3653412.122 2
  25094297.674    -2303286.370 2  -1794763.387 1
  24599509.716    16814371.861 2  13102107.127 1
  23769248.598   -12839596.916 3 -10004869.150 2
 91  8  1  4 28  0.0040000  0  5 21 23 12 17 11
  22394459.735     -442865.754 3   -345081.137 2
  22954711.592    -4659395.647 3  -3630660.347 2
  25091954.808    -2315641.833 2  -1804391.013 1
  24608932.798    16863912.993 2  13140710.600 1
  23763648.177   -12869031.996 3 -10027805.548 2
 91  8  1  4 28 15.0050000  0  5 21 23 12 17 11
  22393066.897     -450183.586 3   -350783.328 2
  22960271.828    -4630161.143 3  -3607880.206 2
  25089616.726    -2327862.053 2  -1813913.234 1
  24618377.453    16913516.556 2  13179362.693 1
  23758069.939   -12898340.326 3 -10050643.163 2
 91  8  1  4 28 30.0050000  0  5 21 23 12 17 11
  22391685.764     -457446.939 3   -356443.076 2
  22965841.082    -4600896.228 3  -3585076.381 2
  25087323.314    -2339947.013 2  -1823330.072 1
  24627830.515    16963173.785 2  13218056.585 1
  23752518.083   -12927519.697 3 -10073380.311 2
 91  8  1  4 28 45.0050000  0  5 21 23 12 17 11
  22390313.601     -464657.141 3   -362061.393 2
  22971419.009    -4571599.888 3  -3562248.074 2
  25085048.486    -2351898.249 2  -1832642.672 1
  24637285.357    17012886.996 2  13256794.153 1
  23746992.297   -12956572.538 3 -10096018.844 2
 91  8  1  4 29  0.0050000  0  5 21 23 12 17 11
  22388952.851     -471809.558 3   -367634.691 3
  22977000.252    -4542267.510 3  -3539391.690 2
  25082798.839    -2363710.726 2  -1841847.160 1
  24646754.299    17062660.812 2  13295578.900 1
  23741485.113   -12985493.759 3 -10118554.837 1
 91  8  1  4 29 15.0050000  0  5 21 23 12 17 11
  22387601.384     -478907.175 3   -373165.290 2
  22982587.184    -4512901.933 3  -3516509.412 2
  25080579.782    -2375387.139 2  -1850945.718 1
  24656244.233    17112492.428 2  13334408.670 1
  23736006.407   -13014286.044 3 -10140990.345 2
 91  8  1  4 29 30.0050000  0  5 21 23 12 17 11
  22386261.312     -485950.007 3   -378653.194 2
  22988181.915    -4483503.414 3  -3493601.478 2
  25078386.202    -2386927.257 2  -1859937.928 1
  24665732.074    17162381.452 2  13373283.199 1
  23730552.586   -13042949.127 3 -10163325.183 2
 91  8  1  4 29 45.0050000  0  5 21 23 12 17 11
  22384932.041     -492935.597 3   -384096.490 2
  22993783.837    -4454069.411 3  -3470665.894 2
  25076216.303    -2398328.235 2  -1868821.772 1
  24675232.792    17212330.472 2  13412204.480 1
  23725125.132   -13071480.082 3 -10185557.083 2
 91  8  1  4 30  0.0050000  0  5 21 23 12 17 11
  22383614.445     -499867.763 3   -389498.160 3
  22999390.557    -4424603.969 3  -3447705.814 2
  25074061.986    -2409593.595 2  -1877599.970 1
  24684755.708    17262335.160 2  13451169.143 1
  23719716.280   -13099882.320 3 -10207688.664 2
 91  8  1  4 30 15.0050000  0  5 21 23 12 17 11
  22382304.353     -506744.229 3   -394856.441 2
  23005002.372    -4395104.845 3  -3424719.484 2
  25071945.152    -2420720.773 2  -1886270.446 1
  24694287.592    17312397.878 2  13490179.010 1
  23714338.612   -13128153.276 3 -10229717.953 2
 91  8  1  4 30 30.0050000  0  5 21 23 12 17 11
  22381006.545     -513568.452 3   -400174.007 2
  23010623.175    -4365575.541 3  -3401709.647 2
  25069854.407    -2431712.990 2  -1894835.796 1
  24703813.213    17362514.900 2  13529231.216 1
  23708984.606   -13156295.967 3 -10251647.275 2
 91  8  1  4 30 45.0050000  0  5 21 23 12 17 11
  22379721.040     -520335.119 3   -405446.723 2
  23016248.776    -4336010.710 3  -3378672.119 2
  25067796.625    -2442564.593 2  -1903291.544 1
  24713366.701    17412691.680 2  13568329.977 1
  23703654.594   -13184304.738 3 -10273472.286 2
 91  8  1  4 31  0.0050000  0  5 21 23 12 17 11
  22378440.927     -527047.021 3   -410676.765 2
  23021880.677    -4306413.349 3  -3355609.247 2
  25065762.226    -2453278.095 2  -1911639.704 1
  24722918.077    17462925.312 2  13607473.032 1
  23698347.075   -13212182.002 3 -10295194.809 2
 91  8  1  4 31 15.0050000  0  5 21 23 12 17 11
  22377175.803     -533702.581 3   -415862.905 2
  23027522.472    -4276781.725 3  -3332519.681 2
  25063747.633    -2463851.600 2  -1919878.793 1
  24732498.840    17513217.194 2  13646661.490 1
  23693070.426   -13239925.901 3 -10316813.411 2
 91  8  1  4 31 30.0050000  0  5 21 23 12 17 11
  22375919.667     -540305.088 3   -421007.701 2
  23033163.970    -4247119.172 3  -3309406.007 2
  25061758.501    -2474288.094 2  -1928011.100 1
  24742078.713    17563564.262 2  13685892.915 1
  23687811.768   -13267539.196 3 -10338330.241 2
 91  8  1  4 31 45.0050000  0  5 21 23 12 17 11
  22374671.942     -546856.672 3   -426112.818 2
  23038814.752    -4217427.916 3  -3286269.971 2
  25059797.864    -2484589.425 2  -1936038.058 1
  24751664.275    17613963.886 2  13725165.324 1
  23682584.590   -13295023.604 3 -10359746.599 2
 91  8  1  4 32  0.0050000  0  5 21 23 12 17 11
  22373435.890     -553353.363 3   -431175.155 2
  23044470.647    -4187704.125 3  -3263108.603 2
  25057864.502    -2494751.354 2  -1943956.455 1
  24761275.035    17664420.025 2  13764481.778 1
  23677378.091   -13322374.910 3 -10381059.304 2
 91  8  1  4 32 15.0050000  0  5 21 23 12 17 11
  22372212.438     -559792.676 3   -436192.780 2
  23050135.528    -4157945.244 3  -3239919.874 2
  25055959.915    -2504771.158 2  -1951764.020 1
  24770872.585    17714934.998 2  13803844.074 1
  23672196.772   -13349590.358 3 -10402266.106 2
 91  8  1  4 32 30.0050000  0  5 21 23 12 17 11
  22370994.081     -566178.625 3   -441168.833 3
  23055801.893    -4128155.460 3  -3216707.085 2
  25054073.023    -2514652.452 2  -1959463.712 1
  24780506.710    17765504.688 2  13843248.995 1
  23667045.154   -13376673.409 3 -10423369.773 2
 91  8  1  4 32 45.0050000  0  5 21 23 12 17 11
  22369790.418     -572508.998 3   -446101.581 3
  23061478.466    -4098332.599 3  -3193468.486 2
  25052229.006    -2524392.800 2  -1967053.561 1
  24790133.053    17816130.997 2  13882698.070 1
  23661915.994   -13403621.500 3 -10444368.266 2
 91  8  1  4 33  0.0050000  0  5 21 23 12 17 11
  22368597.538     -578783.820 4   -450991.044 2
  23067159.245    -4068476.673 3  -3170204.095 2
  25050401.463    -2533991.824 2  -1974533.253 1
  24799786.374    17866814.067 2  13922191.319 1
  23656816.534   -13430434.312 3 -10465261.357 2
 91  8  1  4 33 15.0050000  0  5 21 23 12 17 11
  22367411.866     -585003.513 3   -455837.545 3
  23072848.993    -4038588.192 3  -3146914.378 2
  25048597.913    -2543449.801 2  -1981903.091
  24809436.082    17917553.386 2  13961728.433 1
  23651738.049   -13457112.034 3 -10486049.166 2
 91  8  1  4 33 30.0050000  0  5 21 23 12 17 11
  22366241.480     -591166.953 3   -460640.220 2
  23078539.963    -4008666.069 3  -3123598.461 2
  25046825.250    -2552765.303 2  -1989161.899 1
  24819108.581    17968350.053 2  14001310.241 1
  23646686.840   -13483653.103 3 -10506730.510 2
 91  8  1  4 33 45.0050000  0  5 21 23 12 17 11
  22365077.079     -597276.719 3   -465401.064 3
  23084239.606    -3978712.778 3  -3100258.224 2
  25045083.142    -2561940.662 2  -1996311.452 1
  24828791.288    18019201.080 2  14040934.379 1
  23641662.015   -13510059.707 3 -10527307.076 2
 91  8  1  4 34  0.0050000  0  5 21 23 12 17 11
  22363925.574     -603330.980 3   -470118.662 2
  23089947.659    -3948726.676 3  -3076892.418 2
  25043363.249    -2570973.677 2  -2003350.211 1
  24838472.477    18070108.290 2  14080602.267 1
  23636665.372   -13536329.693 3 -10547777.171 2
 91  8  1  4 34 15.0050000  0  5 21 23 12 17 11
  22362783.667     -609330.601 3   -474793.676 2
  23095658.714    -3918708.723 3  -3053501.831 2
  25041659.218    -2579864.964 2  -2010278.473 1
  24848167.469    18121070.850 2  14120313.364 1
  23631691.815   -13562463.589 3 -10568141.219 2
 91  8  1  4 34 30.0050000  0  5 21 23 12 17 11
  22361651.357     -615275.063 3   -479425.707 3
  23101377.255    -3888658.497 3  -3030086.072 2
  25040005.565    -2588613.758 2  -2017095.664 1
  24857870.558    18172089.166 2  14160067.850 1
  23626745.551   -13588460.514 3 -10588398.559 1
 91  8  1  4 34 45.0050000  0  5 21 23 12 17 11
  22360531.629     -621162.048 4   -484012.957 3
  23107100.281    -3858573.671 3  -3006643.355 2
  25038366.292    -2597217.475 2  -2023799.857 1
  24867595.826    18223165.338 2  14199867.460 1
  23621823.246   -13614317.831 3 -10608547.098 2
 91  8  1  4 35  0.0050000  0  5 21 23 12 17 11
  22359419.090     -626996.928 3   -488559.607 2
  23112830.828    -3828459.657 3  -2983177.879 2
  25036755.811    -2605681.158 2  -2030394.898 1
  24877328.580    18274293.932 2  14239707.905 1
  23616927.343   -13640040.608 3 -10628590.801 2
 91  8  1  4 35 15.0050000  0  5 21 23 12 17 11
  22358317.964     -632777.597 4   -493064.004 2
  23118571.548    -3798314.294 3  -2959687.976 2
  25035172.605    -2614002.455 2  -2036879.012 1
  24887061.649    18325476.733 2  14279590.543 1
  23612062.903   -13665626.298 3 -10648527.698 2
 91  8  1  4 35 30.0050000  0  5 21 23 12 17 11
  22357232.717     -638504.713 4   -497526.671 3
  23124311.064    -3768138.430 3  -2936174.309 2
  25033613.987    -2622181.800 2  -2043252.487 1
  24896808.799    18376713.243 2  14319515.101 1
  23607216.157   -13691075.246 3 -10668358.036 2
 91  8  1  4 35 45.0050000  0  5 21 23 12 17 11
  22356151.956     -644178.706 4   -501947.955 2
  23130060.195    -3737932.483 3  -2912637.194 2
  25032091.647    -2630219.325 2  -2049515.457 1
  24906567.641    18428002.557 2  14359480.753 1
  23602399.391   -13716387.531 3 -10688081.873 1
 91  8  1  4 36  0.0050000  0  5 21 23 12 17 11
  22355083.793     -649795.942 4   -506325.018 2
  23135815.609    -3707692.743 3  -2889073.757 2
  25030589.986    -2638111.114 2  -2055664.903 1
  24916336.378    18479348.394 2  14399490.495 1
  23597610.510   -13741559.110 3 -10707696.093 2
 91  8  1  4 36 15.0050000  0  5 21 23 12 17 11
  22354023.134     -655360.040 4   -510660.642 2
  23141574.617    -3677422.973 3  -2865486.930 2
  25029115.896    -2645860.706 2  -2061703.512 1
  24926123.106    18530746.965 2  14439541.274 1
  23592844.716   -13766593.294 3 -10727203.227 2
 91  8  1  4 36 30.0050000  0  5 21 23 12 17 11
  22352973.556     -660869.765 4   -514953.930 2
  23147338.424    -3647122.094 3  -2841875.854 2
  25027664.614    -2653466.540 2  -2067630.083 1
  24935921.822    18582199.530 2  14479634.178 1
  23588106.494   -13791488.570 3 -10746602.129 2
 91  8  1  4 36 45.0050000  0  5 21 23 12 17 11
  22351934.779     -666323.828 3   -519203.830 2
  23153112.736    -3616788.729 3  -2818239.448 2
  25026245.091    -2660926.863 2  -2073443.324 1
  24945719.945    18633707.170 2  14519769.967 1
  23583394.952   -13816243.225 3 -10765891.442 2
 91  8  1  4 37  0.0050000  0  5 21 23 12 17 11
  22350910.678     -671722.042 4   -523410.222 2
  23158889.438    -3586422.809 3  -2794577.695 2
  25024840.558    -2668241.424 2  -2079142.942 1
  24955531.853    18685270.124 2  14559948.859 1
  23578715.188   -13840856.720 3 -10785070.779 2
 91  8  1  4 37 15.0050000  0  5 21 23 12 17 11
  22349889.893     -677067.802 4   -527575.729 3
  23164672.423    -3556027.823 3  -2770893.289 2
  25023478.307    -2675413.368 2  -2084731.429 1
  24965353.342    18736884.610 2  14600167.924 1
  23574058.824   -13865332.194 3 -10804142.569 1
 91  8  1  4 37 30.0050000  0  5 21 23 12 17 11
  22348887.692     -682359.122 4   -531698.811 2
  23170463.819    -3525601.868 3  -2747184.754 2
  25022151.427    -2682440.325 2  -2090206.988 1
  24975187.429    18788552.508 2  14640428.612 1
  23569425.529   -13889667.324 3 -10823104.986 1
 91  8  1  4 37 45.0050000  0  5 21 23 12 17 11
  22347891.180     -687592.955 4   -535777.110 2
  23176259.717    -3495141.729 3  -2723449.563 2
  25020838.927    -2689319.081 2  -2095567.061 1
  24985024.833    18840276.535 2  14680732.987 1
  23564821.621   -13913858.690 3 -10841955.384 2
 91  8  1  4 38  0.0050000  0  5 21 23 12 17 11
  22346903.061     -692773.911 4   -539814.198 3
  23182063.991    -3464652.187 3  -2699691.495 2
  25019558.220    -2696054.089 2  -2100815.047 1
  24994882.304    18892052.205 2  14721077.682 1
  23560245.581   -13937910.497 3 -10860697.026 1
 91  8  1  4 38 15.0050000  0  5 21 23 12 17 11
  22345927.542     -697901.293 4   -543809.547 3
  23187867.968    -3434132.512 3  -2675909.921 2
  25018294.894    -2702644.429 2  -2105950.329 1
  25004742.479    18943880.273 2  14761463.112 1
  23555697.722   -13961821.681 3 -10879329.103 2
 91  8  1  4 38 30.0050000  0  5 21 23 12 17 11
  22344961.009     -702973.425 4   -547761.836 3
  23193685.138    -3403581.072 3  -2652103.603 2
  25017079.836    -2709088.144 2  -2110971.391 1
  25014606.546    18995762.162 2  14801890.547 1
  23551172.654   -13985590.220 3 -10897850.022 2
 91  8  1  4 38 45.0050000  0  5 21 23 12 17 11
  22344008.559     -707993.625 4   -551673.669 2
  23199503.825    -3373001.331 3  -2628275.239 2
  25015882.471    -2715388.252 2  -2115880.587 1
  25024501.204    19047694.437 2  14842357.228 1
  23546677.583   -14009219.257 3 -10916262.254 2
 91  8  1  4 39  0.0050000  0  5 21 23 12 17 11
  22343066.317     -712960.583 4   -555544.000 3
  23205327.591    -3342392.044 3  -2604423.861 2
  25014693.187    -2721543.266 2  -2120676.667 1
  25034386.560    19099678.424 2  14882864.181 1
  23542205.877   -14032707.063 3 -10934564.404 2
 91  8  1  4 39 15.0050000  0  5 21 23 12 17 11
  22342127.373     -717872.011 4   -559371.081 2
  23211161.548    -3311750.844 3  -2580547.612 2
  25013569.271    -2727550.457 2  -2125357.609 1
  25044289.000    19151716.041 2  14923412.961 1
  23537762.354   -14056051.049 3 -10952754.506 2
 91  8  1  4 39 30.0050000  0  5 21 23 12 17 11
  22341201.010     -722729.044 4   -563155.757 2
  23216993.708    -3281078.906 3  -2556647.397 2
  25012440.852    -2733410.886 2  -2129924.164 1
  25054203.429    19203806.110 2  14964002.613 1
  23533350.293   -14079252.080 3 -10970833.208 2
 91  8  1  4 39 45.0050000  0  5 21 23 12 17 11
  22340289.638     -727532.932 4   -566899.029 2
  23222836.669    -3250377.473 3  -2532724.193 2
  25011365.500    -2739125.534 2  -2134377.024 1
  25064124.471    19255947.324 2  15004632.090 1
  23528961.040   -14102311.076 3 -10988801.239 2
 91  8  1  4 40  0.0050000  0  5 21 23 12 17 11
  22339385.472     -732281.400 4   -570599.113 3
  23228686.819    -3219644.593 3  -2508776.496 2
  25010298.838    -2744691.920 2  -2138714.563 1
  25074061.393    19308141.724 2  15045303.003 1
  23524603.249   -14125225.434 3 -11006656.562 2
 91  8  1  4 40 15.0050000  0  5 21 23 12 17 11
  22338492.981     -736975.324 4   -574256.702 3
  23234539.361    -3188881.175 3  -2484805.008 2
  25009271.736    -2750110.730 2  -2142936.911 1
  25084004.911    19360388.368 2  15086014.656 1
  23520268.249   -14147995.729 3 -11024399.626 2
 91  8  1  4 40 30.0050000  0  5 21 23 12 17 11
  22337610.698     -741613.865 4   -577871.131 2
  23240398.515    -3158086.210 3  -2460808.942 2
  25008271.332    -2755380.872 2  -2147043.456 1
  25093956.508    19412687.947 2  15126767.560 1
  23515961.430   -14170620.744 3 -11042029.487 2
 91  8  1  4 40 45.0050000  0  5 21 23 12 17 11
  22336736.791     -746196.696 4   -581442.149 2
  23246268.140    -3127259.311 3  -2436787.973 2
  25007284.714    -2760501.625 2  -2151033.660 1
  25103916.516    19465040.656 2  15167561.884 1
  23511684.905   -14193099.727 3 -11059545.550 2
 91  8  1  4 41  0.0050000  0  5 21 23 12 17 11
  22335876.687     -750723.368 4   -584969.401 3
  23252136.282    -3096400.268 3  -2412741.949 2
  25006346.067    -2765472.413 2  -2154906.996 1
  25113891.811    19517446.839 2  15208397.815 1
  23507432.043   -14215432.062 3 -11076947.352 2
 91  8  1  4 41 15.0050000  0  5 21 23 12 17 11
  22335024.384     -755199.096 4   -588456.964 2
  23258015.819    -3065514.350 3  -2388674.993 2
  25005429.302    -2770298.288 2  -2158667.353 1
  25123868.903    19569901.110 2  15249271.252 1
  23503208.863   -14237622.467 3 -11094238.553 2
 91  8  1  4 41 30.0050000  0  5 21 23 12 17 11
  22334184.662     -759616.633 4   -591899.191 3
  23263900.730    -3034594.203 3  -2364581.362 2
  25004538.922    -2774971.718 2  -2162308.966 1
  25133860.985    19622410.720 2  15290187.773 1
  23499014.773   -14259663.418 3 -11111413.298 2
 91  8  1  4 41 45.0050000  0  5 21 23 12 17 11
  22333354.241     -763980.210 4   -595299.366 2
  23269790.755    -3003644.081 3  -2340464.385 2
  25003680.005    -2779496.754 2  -2165834.959 1
  25143863.258    19674971.319 2  15331144.047 1
  23494850.349   -14281558.906 3 -11128474.703 2
 91  8  1  4 42  0.0050000  0  5 21 23 12 17 11
  22332532.510     -768289.082 4   -598656.899 3
  23275685.578    -2972663.434 3  -2316323.618 2
  25002842.988    -2783872.338 2  -2169244.473 1
  25153864.938    19727583.184 2  15372140.287 1
  23490710.215   -14303307.884 3 -11145421.924 2
 91  8  1  4 42 15.0050000  0  5 21 23 12 17 11
  22331724.268     -772545.019 4   -601973.197 3
  23281588.795    -2941654.030 3  -2292160.457 2
  25002046.735    -2788100.267 2  -2172538.921 1
  25163901.396    19780244.451 2  15413174.981 1
  23486603.062   -14324911.862 3 -11162256.164 2
 91  8  1  4 42 30.0050000  0  5 21 23 12 17 11
  22330925.624     -776742.015 4   -605243.567 2
  23287493.512    -2910610.059 3  -2267970.347 2
  25001264.878    -2792174.202 2  -2175713.350 1
  25173929.460    19832961.071 2  15454252.833 1
  23482515.401   -14346364.437 3 -11178972.438 2
 91  8  1  4 42 45.0050000  0  5 21 23 12 17 11
  22330136.560     -780882.230 4   -608469.681 2
  23293409.607    -2879533.526 3  -2243754.873 2
  25000516.298    -2796096.048 2  -2178769.344 1
  25183971.903    19885730.766 2  15495372.041 1
  23478465.798   -14367667.519 3 -11195572.211 2
 91  8  1  4 43  0.0050000  0  5 21 23 12 17 11
  22329358.909     -784970.919 4   -611655.654 3
  23299324.219    -2848429.688 3  -2219518.114 2
  24999805.795    -2799870.966 2  -2181710.777
  25194022.740    19938548.289 2  15536528.518 1
  23474440.190   -14388826.038 3 -11212059.361 2
 91  8  1  4 43 15.0050000  0  5 21 23 12 17 11
  22328592.042     -789005.764 4   -614799.674 3
  23305249.004    -2817296.481 3  -2195258.488 2
  24999109.078    -2803496.320 2  -2184535.734 1
  25204082.581    19991415.629 2  15577723.795 1
  23470441.246   -14409837.396 3 -11228431.821 2
 91  8  1  4 43 30.0050000  0  5 21 23 12 17 11
  22327834.161     -792982.192 4   -617898.172 2
  23311182.200    -2786129.262 3  -2170972.359 2
  24998442.933    -2806967.334 2  -2187240.359 1
  25214150.502    20044337.345 2  15618961.460 1
  23466471.094   -14430696.582 3 -11244685.703 2
 91  8  1  4 43 45.0050000  0  5 21 23 12 17 11
  22327089.770     -796902.067 4   -620952.600 2
  23317120.195    -2754930.018 3  -2146661.276 2
  24997816.976    -2810285.745 2  -2189826.082 1
  25224241.823    20097311.409 2  15660239.936 1
  23462529.736   -14451405.142 3 -11260822.211 2
 91  8  1  4 44  0.0050000  0  5 21 23 12 17 11
  22326355.587     -800765.305 4   -623962.894 2
  23323063.286    -2723698.634 3  -2122325.126 2
  24997200.896    -2813451.286 2  -2192292.729 1
  25234322.936    20150337.716 2  15701559.101 1
  23458615.635   -14471962.754 3 -11276841.113 1
 91  8  1  4 44 15.0050000  0  5 21 23 12 17 11
  22325627.982     -804575.357 4   -626931.756 2
  23329009.657    -2692438.545 3  -2097966.628 2
  24996650.482    -2816467.104 2  -2194642.669 1
  25244427.153    20203412.967 2  15742916.421 1
  23454733.921   -14492372.552 3 -11292744.818 2
 91  8  1  4 44 30.0050000  0  5 21 23 12 17 11
  22324912.087     -808330.893 4   -629858.139 2
  23334964.439    -2661148.500 3  -2073584.785 2
  24996100.067    -2819331.881 2  -2196874.905 1
  25254529.259    20256538.066 2  15784312.551 1
  23450881.593   -14512633.154 3 -11308532.255 2
 91  8  1  4 44 45.0050000  0  5 21 23 12 17 11
  22324209.978     -812031.838 4   -632741.969 3
  23340926.114    -2629828.493 3  -2049179.591 2
  24995575.426    -2822045.138 2  -2198989.116 1
  25264659.843    20309712.874 2  15825747.482 1
  23447051.742   -14532744.104 3 -11324203.124 2
 91  8  1  4 45  0.0050000  0  5 21 23 12 17 11
  22323514.744     -815679.125 4   -635583.982 2
  23346890.790    -2598479.339 3  -2024751.697 2
  24995098.459    -2824607.615 2  -2200985.833 1
  25274784.738    20362936.597 2  15867220.437 1
  23443252.480   -14552705.837 3 -11339757.688 2
 91  8  1  4 45 15.0050000  0  5 21 23 12 17 11
  22322830.329     -819272.356 4   -638383.892 2
  23352860.859    -2567100.906 3  -2000300.998 2
  24994632.870    -2827018.699 2  -2202864.547 1
  25284918.917    20416209.270 2  15908731.610 1
  23439482.884   -14572517.630 3 -11355195.421 2
 91  8  1  4 45 30.0050000  0  5 21 23 12 17 11
  22322159.089     -822810.706 4   -641141.026 3
  23358838.413    -2535692.161 3  -1975826.646 2
  24994205.671    -2829277.544 2  -2204624.667 1
  25295064.195    20469531.498 2  15950281.369 1
  23435742.674   -14592178.497 3 -11370515.554 2
 91  8  1  4 45 45.0050000  0  5 21 23 12 17 11
  22321497.446     -826290.055 4   -643852.194 3
  23364821.674    -2504249.256 3  -1951325.692 2
  24993788.367    -2831379.753 2  -2206262.727 1
  25305224.462    20522907.220 2  15991872.784 1
  23432031.537   -14611684.110 3 -11385714.716 2
 91  8  1  4 46  0.0050000  0  5 21 23 12 17 11
  22320843.901     -829714.959 4   -646520.931 3
  23370810.624    -2472776.655 3  -1926801.598 2
  24993433.709    -2833329.621 2  -2207782.030 1
  25315387.120    20576332.108 2  16033502.559 1
  23428349.192   -14631038.536 3 -11400796.046 2
 91  8  1  4 46 15.0050000  0  5 21 23 12 17 11
  22320205.048     -833085.179 4   -649147.049 2
  23376806.466    -2441274.226 3  -1902254.234 2
  24993101.544    -2835126.885 2  -2209182.501 1
  25325561.783    20629806.320 2  16075170.742 1
  23424695.622   -14650241.439 3 -11415759.320 2
 91  8  1  4 46 30.0050000  0  5 21 23 12 17 11
  22319573.978     -836399.475 4   -651729.605 2
  23382808.015    -2409740.741 3  -1877682.676 2
  24992784.648    -2836770.043 2  -2210462.814 1
  25335742.432    20683330.674 2  16116877.921 1
  23421067.233   -14669291.220 3 -11430603.277 2
 91  8  1  4 46 45.0050000  0  5 21 23 12 17 11
  22318954.007     -839658.549 4   -654269.125 2
  23388812.268    -2378176.888 3  -1853087.454 2
  24992478.274    -2838259.734 2  -2211623.598 1
  25345938.368    20736904.132 2  16158623.450 1
  23417470.918   -14688188.300 3 -11445328.249 2
 91  8  1  4 47  0.0050000  0  5 21 23 12 17 11
  22318341.539     -842861.287 4   -656764.750 3
  23394823.694    -2346581.703 3  -1828467.824 2
  24992235.140    -2839594.618 2  -2212663.715 1
  25356147.513    20790527.712 2  16200408.037 1
  23413906.397   -14706931.294 3 -11459933.155 2
 91  8  1  4 47 15.0050000  0  5 21 23 12 17 11
  22317744.951     -846013.493 4   -659221.000 3
  23400842.937    -2314961.012 3  -1803828.321 2
  24992026.785    -2840780.324 2  -2213587.595 1
  25366366.535    20844195.500 2  16242227.082 1
  23410363.148   -14725525.662 3 -11474422.235 2
 91  8  1  4 47 30.0050000  0  5 21 23 12 17 11
  22317152.255     -849109.993 4   -661633.842 3
  23406866.665    -2283309.544 3  -1779164.822 2
  24991818.133    -2841811.449 2  -2214391.070 1
  25376579.257    20897912.818 2  16284084.662 1
  23406857.364   -14743965.925 3 -11488791.254 2
 91  8  1  4 47 45.0050000  0  5 21 23 12 17 11
  22316576.048     -852149.969 4   -664002.641 3
  23412891.597    -2251626.800 3  -1754476.989 2
  24991664.937    -2842687.058 2  -2215073.330 1
  25386817.475    20951680.040 2  16325981.184 1
  23403376.185   -14762251.178 3 -11503039.475 2
 91  8  1  4 48  0.0050000  0  5 21 23 12 17 11
  22316005.845     -855136.313 4   -666329.644 3
  23418928.221    -2219915.479 3  -1729766.880 2
  24991503.645    -2843409.711 2  -2215636.439 1
  25397058.676    21005494.181 2  16367914.252 1
  23399930.064   -14780383.979 3 -11517168.895 2
 91  8  1  4 48 15.0050000  0  5 21 23 12 17 11
  22315446.444     -858067.376 4   -668613.573 3
  23424969.626    -2188174.073 3  -1705033.311 2
  24991406.813    -2843977.739 2  -2216079.025 1
  25407306.194    21059356.944 2  16409885.212 1
  23396505.842   -14798362.362 3 -11531178.001 2
 91  8  1  4 48 30.0050000  0  5 21 23 12 17 11
  22314901.107     -860941.812 4   -670853.375 3
  23431015.550    -2156401.044 3  -1680275.113 2
  24991319.266    -2844389.616 2  -2216399.939 1
  25417568.981    21113269.319 2  16451894.765 1
  23393117.586   -14816184.622 3 -11545065.447 2
 91  8  1  4 48 45.0050000  0  5 21 23 12 17 11
  22314368.090     -863765.168 4   -673053.387 3
  23437067.163    -2124602.271 3  -1655496.849 2
  24991270.108    -2844650.641 2  -2216603.306 1
  25427825.783    21167225.617 2  16493938.595 1
  23389749.415   -14833856.105 3 -11558835.407 2
 91  8  1  4 49  0.0050000  0  5 21 23 12 17 11
  22313838.947     -866528.767 4   -675206.817 2
  23443122.965    -2092768.974 3  -1630691.694 2
  24991265.903    -2844751.925 2  -2216682.197 1
  25438107.469    21221234.569 2  16536023.474 1
  23386421.117   -14851367.837 3 -11572480.897 2
 91  8  1  4 49 15.0050000  0  5 21 23 12 17 11
  22313322.106     -869238.395 4   -677318.190 3
  23449186.270    -2060907.012 3  -1605864.205 2
  24991279.095    -2844699.239 2  -2216641.083 1
  25448388.247    21275290.245 2  16578144.733 1
  23383118.001   -14868725.357 3 -11586006.192 2
 91  8  1  4 49 30.0050000  0  5 21 23 12 17 11
  22312818.755     -871893.355 4   -679386.976 3
  23455253.763    -2029015.745 3  -1581013.857 2
  24991313.577    -2844491.661 2  -2216479.304 1
  25458692.705    21329393.218 2  16620302.853 1
  23379841.879   -14885927.626 3 -11599410.536 2
 91  8  1  4 49 45.0050000  0  5 21 23 12 17 11
  22312323.204     -874493.810 4   -681413.292 3
  23461331.150    -1997095.238 3  -1556140.754 2
  24991373.239    -2844129.212 2  -2216196.902 1
  25468994.180    21383542.858 2  16662497.322 1
  23376598.721   -14902974.650 3 -11612693.906 2
 91  8  1  4 50  0.0050000  0  5 21 23 12 17 11
  22311839.937     -877040.233 4   -683397.496 3
  23467411.242    -1965146.122 3  -1531245.351 2
  24991480.261    -2843612.257 2  -2215794.025 1
  25479308.846    21437738.343 2  16704727.498 1
  23373384.339   -14919866.620 3 -11625856.475 2
 91  8  1  4 50 15.0050000  0  5 21 23 12 17 11
  22311363.860     -879529.388 4   -685337.072 3
  23473494.929    -1933165.163 3  -1506325.137 2
  24991614.558    -2842937.403 2  -2215268.130 1
  25489634.297    21491983.063 2  16746996.171 1
  23370202.641   -14936600.084 3 -11638895.488 2
 91  8  1  4 50 30.0050000  0  5 21 23 12 17 11
  22310902.180     -881963.168 4   -687233.509 3
  23479587.620    -1901154.183 3  -1481381.503 2
  24991767.160    -2842106.274 2  -2214620.438 1
  25499960.638    21546275.142 2  16789301.624 1
  23367048.828   -14953176.512 3 -11651812.177 2
 91  8  1  4 50 45.0050000  0  5 21 23 12 17 11
  22310450.394     -884341.033 4   -689086.367 2
  23485685.390    -1869112.757 3  -1456414.157 2
  24991944.333    -2841118.299 2  -2213850.544 1
  25510306.488    21600614.930 2  16831644.222 1
  23363920.492   -14969595.239 3 -11664605.965 2
 91  8  1  4 51  0.0050000  0  5 21 23 12 17 11
  22310009.409     -886660.017 4   -690893.347 3
  23491786.178    -1837037.946 3  -1431420.802 2
  24992155.986    -2839970.397 2  -2212956.069 1
  25520652.321    21655004.979 2  16874026.090 1
  23360829.029   -14985853.017 3 -11677274.346 1
 91  8  1  4 51 15.0050000  0  5 21 23 12 17 11
  22309579.802     -888919.942 4   -692654.319 3
  23497898.047    -1804929.629 3  -1406401.327 2
  24992409.014    -2838662.035 2  -2211936.505 1
  25531019.146    21709445.683 2  16916447.326 1
  23357763.654   -15001949.377 3 -11689816.946 2
 91  8  1  4 51 30.0050000  0  5 21 23 12 17 11
  22309161.887     -891120.368 4   -694368.917 3
  23504015.011    -1772787.539 3  -1381355.544 2
  24992699.822    -2837192.834 2  -2210791.675 1
  25541384.471    21763936.999 2  16958908.056 1
  23354731.853   -15017883.741 3 -11702233.307 2
 91  8  1  4 51 45.0050000  0  5 21 23 12 17 11
  22308750.865     -893266.406 4   -696041.139 3
  23510138.275    -1740616.716 3  -1356287.364 2
  24993006.510    -2835567.771 2  -2209525.366 1
  25551750.092    21818473.658 2  17001404.130 1
  23351729.142   -15033660.985 3 -11714527.255 2
 91  8  1  4 52  0.0050000  0  5 21 23 12 17 11
  22308352.755     -895354.416 4   -697668.152 3
  23516264.837    -1708413.607 3  -1331194.057 2
  24993344.363    -2833783.126 2  -2208134.707 1
  25562153.493    21873059.314 2  17043938.383 1
  23348760.284   -15049277.103 3 -11726695.624 2
 91  8  1  4 52 15.0050000  0  5 21 23 12 17 11
  22307968.711     -897383.887 4   -699249.541 3
  23522400.089    -1676177.674 3  -1306075.130 2
  24993708.916    -2831838.183 2  -2206619.135 1
  25572543.091    21927694.308 2  17086511.110 1
  23345817.532   -15064731.387 3 -11738737.888 2
 91  8  1  4 52 30.0050000  0  5 21 23 12 17 11
  22307590.670     -899356.685 4   -700786.770 3
  23528537.139    -1643910.869 3  -1280932.162 2
  24994125.331    -2829734.748 2  -2204980.109 1
  25582950.087    21982376.354 2  17129120.461 1
  23342907.150   -15080025.513 3 -11750655.365 2
 91  8  1  4 52 45.0050000  0  5 21 23 12 17 11
  22307227.635     -901270.283 4   -702277.866 3
  23534687.678    -1611610.579 3  -1255763.118 2
  24994549.825    -2827469.958 2  -2203215.272 1
  25593363.085    22037108.049 2  17171768.496 1
  23340027.044   -15095156.616 3 -11762445.825 2
 91  8  1  4 53  0.0050000  0  5 21 23 12 17 11
  22306876.572     -903125.412 4   -703723.394 3
  23540834.918    -1579277.653 3  -1230568.630 2
  24995007.614    -2825044.599 2  -2201325.368 1
  25603789.259    22091888.477 2  17214454.485 1
  23337178.400   -15110125.210 3 -11774109.631 2
 91  8  1  4 53 15.0050000  0  5 21 23 12 17 11
  22306532.715     -904923.778 4   -705124.689 3
  23546995.962    -1546913.986 3  -1205350.180 2
  24995494.771    -2822460.247 2  -2199311.601 1
  25614224.734    22146715.549 2  17257176.901 1
  23334364.553   -15124932.784 3 -11785647.974 2
 91  8  1  4 53 30.0050000  0  5 21 23 12 17 11
  22306204.442     -906661.353 4   -706478.624 3
  23553162.677    -1514515.448 3  -1180104.567 2
  24996022.710    -2819712.769 2  -2197170.656 1
  25624664.710    22201593.326 2  17299938.717 1
  23331575.589   -15139575.106 3 -11797057.547 2
 91  8  1  4 53 45.0050000  0  5 21 23 12 17 11
  22305884.562     -908338.313 4   -707785.326 3
  23559331.817    -1482082.225 3  -1154831.924 2
  24996576.423    -2816802.193 2  -2194902.631 1
  25635120.270    22256521.362 2  17342739.714 1
  23328820.200   -15154052.081 3 -11808338.296 2
 91  8  1  4 54  0.0050000  0  5 21 23 12 17 11
  22305574.576     -909959.041 4   -709048.176 3
  23565509.334    -1449618.620 3  -1129535.609 2
  24997167.322    -2813732.914 2  -2192510.963 1
  25645582.129    22311495.143 2  17385576.418 1
  23326097.774   -15168367.810 3 -11819493.388 2
 91  8  1  4 54 15.0050000  0  5 21 23 12 17 11
  22305275.375     -911519.169 4   -710263.837 3
  23571697.949    -1417120.490 3  -1104212.390 2
  24997780.697    -2810500.315 2  -2189992.057 1
  25656046.082    22366519.109 2  17428452.232 1
  23323403.547   -15182517.730 3 -11830519.291 2
 91  8  1  4 54 30.0050000  0  5 21 23 12 17 11
  22304992.070     -913014.325 4   -711428.875 3
  23577886.564    -1384583.406 3  -1078858.832 2
  24998426.757    -2807099.935 2  -2187342.369 1
  25666532.826    22421597.242 2  17471370.250 1
  23320743.785   -15196497.311 3 -11841412.433 2
 91  8  1  4 54 45.0050000  0  5 21 23 12 17 11
  22304717.160     -914452.016 4   -712549.133 3
  23584085.370    -1352015.052 3  -1053480.895 2
  24999106.687    -2803539.169 2  -2184567.720 1
  25677018.976    22476722.155 2  17514324.671 1
  23318116.096   -15210313.824 3 -11852178.532 2
 91  8  1  4 55  0.0050000  0  5 21 23 12 17 11
  22304456.349     -915829.951 4   -713622.830 3
  23590288.382    -1319412.977 3  -1028076.682 2
  24999812.688    -2799815.566 2  -2181666.127 1
  25687522.803    22531895.516 2  17557316.884 1
  23315515.997   -15223964.639 3 -11862815.511 2
 91  8  1  4 55 15.0050000  0  5 21 23 12 17 11
  22304205.415     -917149.644 4   -714651.152 3
  23596497.989    -1286778.792 3  -1002647.451 2
  25000545.684    -2795930.464 2  -2178638.791 1
  25698029.631    22587115.831 2  17600345.644 1
  23312949.785   -15237451.107 3 -11873324.423 2
 91  8  1  4 55 30.0050000  0  5 21 23 12 17 11
  22303967.080     -918406.104 4   -715630.185 3
  23602714.786    -1254107.555 3   -977189.341 2
  25001320.945    -2791878.969 2  -2175481.794 1
  25708549.949    22642388.130 2  17643414.887 1
  23310416.834   -15250768.075 3 -11883701.266 2
 91  8  1  4 55 45.0050000  0  5 21 23 12 17 11
  22303740.750     -919595.961 4   -716557.324 3
  23608941.774    -1221396.070 3   -951699.874 2
  25002121.387    -2787657.524 2  -2172192.290 1
  25719071.453    22697715.292 2  17686526.924 1
  23307913.862   -15263911.907 3 -11893943.183 2
 91  8  1  4 56  0.0050000  0  5 21 23 12 17 11
  22303525.188     -920728.565 4   -717439.857 3
  23615169.966    -1188653.543 3   -926186.220 2
  25002959.608    -2783275.340 2  -2168777.583 1
  25729607.964    22753087.962 2  17729674.430 1
  23305442.981   -15276891.683 3 -11904057.287 2
 91  8  1  4 56 15.0050000  0  5 21 23 12 17 11
  22303319.833     -921800.121 4   -718274.817 3
  23621407.442    -1155876.244 3   -900645.483 2
  25003820.008    -2778728.611 2  -2165234.642 1
  25740151.961    22808509.885 2  17772860.330 1
  23303007.471   -15289703.516 3 -11914040.509 2
 91  8  1  4 56 30.0050000  0  5 21 23 12 17 11
  22303132.471     -922808.970 4   -719060.908 3
  23627650.921    -1123062.509 3   -875076.334 2
  25004716.391    -2774015.492 2  -2161562.076 1
  25750716.358    22863982.544 2  17816085.677 1
  23300600.423   -15302345.480 3 -11923891.363 2
 91  8  1  4 56 45.0050000  0  5 21 23 12 17 11
  22302948.092     -923758.408 4   -719800.710 3
  23633903.089    -1090215.669 3   -849481.379 2
  25005647.552    -2769139.182 2  -2157762.313 1
  25761277.143    22919502.272 2  17859347.757 1
  23298230.265   -15314820.627 3 -11933612.251 2
 91  8  1  4 57  0.0050000  0  5 21 23 12 17 11
  22302780.814     -924646.844 4   -720492.969 3
  23640161.261    -1057334.237 3   -823859.491 2
  25006605.395    -2764098.005 2  -2153834.100 1
  25771854.418    22975070.433 2  17902647.568 1
  23295885.601   -15327127.242 3 -11943201.794 2
 91  8  1  4 57 15.0050000  0  5 21 23 12 17 11
  22302621.319     -925473.344 4   -721136.974 3
  23646422.731    -1024417.126 3   -798209.800 2
  25007603.390    -2758890.884 2  -2149776.578 1
  25782440.383    23030687.973 2  17945985.829 1
  23293575.087   -15339264.084 3 -11952659.060 2
 91  8  1  4 57 30.0050000  0  5 21 23 12 17 11
  22302473.219     -926240.895 4   -721735.039 3
  23652694.077     -991467.698 3   -772534.915 2
  25008619.987    -2753520.853 2  -2145592.129 1
  25793026.662    23086351.661 2  17989360.163 1
  23291299.073   -15351233.938 3 -11961986.196 2
 91  8  1  4 57 45.0050000  0  5 21 23 12 17 11
  22302342.813     -926944.921 4   -722283.604 3
  23658971.741     -958481.246 3   -746831.179 2
  25009672.864    -2747983.056 2  -2141276.904 1
  25803636.307    23142065.968 2  18032773.874 1
  23289051.817   -15363031.986 3 -11971179.465 2
 91  8  1  4 58  0.0050000  0  5 21 23 12 17 11
  22302218.987     -927590.331 4   -722786.504 3
  23665254.482     -925462.759 3   -721102.500 2
  25010761.408    -2742282.465 2  -2136834.894 1
  25814247.767    23197825.739 2  18076222.947 1
  23286839.356   -15374662.955 3 -11980242.562 2
 91  8  1  4 58 15.0050000  0  5 21 23 12 17 11
  22302109.574     -928179.621 4   -723245.674 3
  23671543.226     -892414.722 3   -695350.787 2
  25011868.241    -2736421.486 2  -2132267.822 1
  25824866.120    23253628.177 2  18119705.361 1
  23284658.061   -15386129.160 3 -11989177.249 2
 91  8  1  4 58 30.0050000  0  5 21 23 12 17 11
  22302007.350     -928712.075 4   -723660.566 2
  23677840.068     -859336.318 3   -669575.408 2
  25013029.937    -2730399.280 2  -2127575.179 1
  25835488.661    23309474.035 2  18163221.596 1
  23282508.857   -15397429.650 3 -11997982.818 2
 91  8  1  4 58 45.0050000  0  5 21 23 12 17 11
  22301913.206     -929183.692 3   -724028.036 3
  23684141.411     -826223.647 3   -643773.327 2
  25014201.230    -2724211.827 2  -2122753.764 1
  25846131.304    23365367.151 2  18206774.591 1
  23280387.818   -15408560.246 3 -12006655.958 2
 91  8  1  4 59  0.0050000  0  5 21 23 12 17 11
  22301838.554     -929598.072 4   -724350.921 3
  23690446.053     -793080.292 3   -617947.344 2
  25015401.299    -2717862.653 2  -2117806.342 1
  25856764.926    23421303.648 2  18250361.461 1
  23278305.170   -15419524.410 3 -12015199.448 2
 91  8  1  4 59 15.0050000  0  5 21 23 12 17 11
  22301767.811     -929953.434 4   -724627.809 3
  23696759.070     -759904.765 3   -592096.289 2
  25016648.135    -2711349.986 2  -2112731.503 1
  25867426.451    23477285.056 2  18293983.228 1
  23276247.388   -15430320.182 3 -12023611.713 2
 91  8  1  4 59 30.0050000  0  5 21 23 12 17 11
  22301713.244     -930251.774 4   -724860.261 3
  23703075.997     -726698.973 3   -566221.644 2
  25017910.553    -2704675.695 2  -2107530.748 1
  25878091.570    23533309.400 2  18337638.610 1
  23274226.792   -15440949.335 3 -12031894.141 2
 91  8  1  4 59 45.0050000  0  5 21 23 12 17 11
  22301667.682     -930491.996 4   -725047.429 3
  23709401.631     -693461.749 3   -540322.509 2
  25019216.458    -2697838.549 2  -2102203.106 1
  25888756.986    23589377.451 2  18381327.930 1
  23272235.862   -15451410.644 3 -12040045.784 2
 91  8  1  5  0  0.0050000  0  5 21 23 12 17 11
  22301631.699     -930672.038 4   -725187.683 3
  23715730.842     -660191.265 3   -514397.464 2
  25020540.039    -2690836.475 2  -2096746.898 1
  25899432.593    23645490.942 2  18425052.629 1
  23270277.930   -15461701.929 3 -12048064.953 2
 91  8  1  5  0 15.0050000  0  5 21 23 12 17 11
  22301608.909     -930793.653 4   -725282.431 3
  23722069.355     -626889.053 3   -488447.678 2
  25021913.092    -2683671.129 2  -2091163.444 1
  25910117.798    23701648.193 2  18468811.541 1
  23268349.960   -15471824.618 3 -12055952.706 2
 91  8  1  5  0 30.0050000  0  5 21 23 12 17 11
  22301595.735     -930860.984 4   -725334.886 3
  23728408.757     -593559.414 3   -462476.551 2
  25023296.633    -2676346.577 2  -2085456.016 1
  25920809.598    23757844.882 2  18512601.164 1
  23266455.564   -15481782.725 3 -12063712.275 2
 91  8  1  5  0 45.0050000  0  5 21 23 12 17 11
  22301593.623     -930868.080 4   -725340.388 3
  23734762.259     -560196.445 3   -436479.428 2
  25024729.348    -2668856.946 2  -2079619.894 1
  25931508.589    23814086.747 2  18556425.963 1
  23264593.260   -15491570.072 3 -12071338.726 2
 91  8  1  5  1  0.0050000  0  5 21 23 12 17 11
  22301602.627     -930814.746 4   -725298.795 3
  23741115.168     -526800.080 3   -410456.308 2
  25026188.134    -2661201.876 2  -2073654.869 1
  25942222.272    23870373.754 2  18600285.925 1
  23262761.528   -15501186.377 3 -12078831.935 2
 91  8  1  5  1 15.0050000  0  5 21 23 12 17 11
  22301625.400     -930703.996 4   -725212.473 3
  23747479.454     -493373.027 3   -384409.249 2
  25027672.711    -2653384.276 2  -2067563.238 1
  25952948.240    23926702.844 2  18644178.729 1
  23260964.278   -15510634.309 3 -12086193.934 2
 91  8  1  5  1 30.0050000  0  5 21 23 12 17 11
  22301659.882     -930535.244 4   -725080.959 3
  23753849.150     -459914.836 3   -358337.925 2
  25029193.846    -2645403.579 2  -2061344.509 1
  25963677.524    23983074.329 2  18688104.451 1
  23259200.898   -15519913.191 3 -12093424.196 2
 91  8  1  5  1 45.0050000  0  5 21 23 12 17 11
  22301701.553     -930308.956 4   -724904.604 3
  23760218.846     -426426.290 3   -332242.960 2
  25030747.370    -2637260.276 2  -2054999.043 1
  25974408.291    24039487.481 2  18732062.731 1
  23257466.294   -15529023.411 3 -12100523.059 2
 91  8  1  5  2  0.0050000  0  5 21 23 12 17 11
  22301754.322     -930026.583 4   -724684.560 3
  23766596.325     -392908.923 3   -306125.522 2
  25032318.884    -2628955.801 2  -2048528.008 1
  25985149.860    24095940.583 2  18776052.120 1
  23255763.467   -15537966.240 3 -12107491.469 2
 91  8  1  5  2 15.0050000  0  5 21 23 12 17 11
  22301820.266     -929687.200 3   -724420.094 3
  23772980.714     -359361.577 3   -279984.737 2
  25033931.162    -2620489.075 2  -2041930.556 1
  25995905.808    24152434.489 2  18820073.321 1
  23254093.621   -15546740.547 3 -12114328.570 2
 91  8  1  5  2 30.0050000  0  5 21 23 12 17 11
  22301894.029     -929292.315 4   -724112.383 3
  23779369.588     -325785.763 3   -253821.767 2
  25035572.826    -2611861.566 2  -2035207.764 1
  26006660.272    24208967.630 2  18864125.101 1
  23252456.459   -15555347.685 3 -12121035.405 2
 91  8  1  5  2 45.0050000  0  5 21 23 12 17 11
  22301980.058     -928843.518 3   -723762.659 3
  23785764.761     -292183.163 3   -227637.938 2
  25037247.471    -2603074.929 2  -2028361.067 1
  26017427.912    24265538.153 2  18908205.975 1
  23250848.369   -15563789.074 3 -12127613.095 2
 91  8  1  5  3  0.0050000  0  5 21 23 12 17 11
  22302075.389     -928335.057 4   -723366.441 3
  23792163.826     -258548.053 3   -201428.765 2
  25038958.098    -2594123.418 2  -2021385.878 1
  26028194.050    24322151.514 2  18952320.268 1
  23249277.465   -15572058.869 3 -12134057.066 2
 91  8  1  5  3 15.0050000  0  5 21 23 12 17 11
  22302183.912     -927768.476 4   -722924.930 3
  23798574.896     -224881.991 3   -175195.478 2
  25040689.998    -2585008.379 2  -2014283.252 1
  26038977.587    24378806.021 2  18996466.590 1
  23247733.523   -15580158.373 3 -12140368.351 2
 91  8  1  5  3 30.0050000  0  5 21 23 12 17 11
  22302302.329     -927142.462 3   -722437.105 3
  23804985.356     -191183.850 3   -148937.189 2
  25042454.564    -2575728.498 2  -2007052.149 1
  26049773.722    24435502.869 2  19040645.887 1
  23246225.876   -15588086.057 3 -12146545.748 2
 91  8  1  5  3 45.0050000  0  5 21 23 12 17 11
  22302434.846     -926459.344 3   -721904.799 3
  23811404.209     -157455.841 3   -122655.623 2
  25044253.332    -2566286.118 2  -1999694.449 1
  26060566.839    24492239.468 2  19084856.186 1
  23244750.600   -15595844.145 3 -12152590.990 2
 91  8  1  5  4  0.0050000  0  5 21 23 12 17 11
  22302573.941     -925719.391 3   -721328.186 3
  23817821.561     -123698.352 3    -96351.087 2
  25046071.557    -2556681.379 2  -1992210.224 1
  26071365.069    24549015.353 2  19129097.056 1
  23243306.193   -15603432.690 3 -12158504.130 2
 91  8  1  5  4 15.0050000  0  5 21 23 12 17 11
  22302727.137     -924922.083 4   -720706.887 3
  23824251.216      -89910.835 3    -70023.157 2
  25047927.283    -2546913.817 2  -1984599.053 1
  26082177.381    24605830.811 2  19173368.835 1
  23241893.877   -15610851.195 3 -12164284.755 2
 91  8  1  5  4 30.0050000  0  5 21 23 12 17 11
  22302889.930     -924069.163 4   -720042.253 3
  23830688.060      -56094.946 3    -43673.127 2
  25049820.772    -2536985.058 2  -1976862.390 1
  26092992.101    24662684.143 2  19217670.038 1
  23240514.821   -15618101.136 3 -12169934.029 2
 91  8  1  5  4 45.0050000  0  5 21 23 12 17 11
  22303064.118     -923158.087 4   -719332.317 3
  23837130.000      -22248.370 3    -17299.174 1
  25051747.241    -2526892.523 2  -1968998.054 1
  26103820.903    24719577.570 2  19262002.521 1
  23239166.966   -15625179.827 3 -12175449.877 2
 91  8  1  5  5  0.0050000  0  5 21 23 12 17 11
  22303246.386     -922190.133 4   -718578.054 3
  23843578.833       11627.634 3      9097.726 2
  25053701.875    -2516637.606 2  -1961007.213 1
  26114659.897    24776509.670 2  19306365.212 1
  23237850.278   -15632088.512 3 -12180833.246 2
 91  8  1  5  5 15.0050000  0  5 21 23 12 17 11
  22303442.753     -921164.197 4   -717778.607 3
  23850028.276       45534.126 3     35518.374 2
  25055677.815    -2506219.176 2  -1952888.936 1
  26125501.298    24833481.423 2  19350758.674 1
  23236570.461   -15638825.888 3 -12186083.139 2
 91  8  1  5  5 30.0050000  0  5 21 23 12 17 11
  22303646.310     -920079.677 4   -716933.515 3
  23856481.297       79471.766 3     61963.279 2
  25057698.725    -2495636.593 2  -1944642.776 1
  26136348.388    24890493.145 2  19395183.338 1
  23235323.329   -15645391.123 3 -12191198.891 2
 91  8  1  5  5 45.0050000  0  5 21 23 12 17 11
  22303862.762     -918941.325 3   -716046.483 3
  23862952.030      113435.774 3     88428.726 2
  25059734.310    -2484894.457 2  -1936272.182 1
  26147208.357    24947539.765 2  19439635.231 1
  23234104.065   -15651788.850 3 -12196184.106 2
 91  8  1  5  6  0.0050000  0  5 21 23 12 17 11
  22304091.796     -917744.309 4   -715113.735 3
  23869421.244      147430.793 3    114918.346 1
  25061812.160    -2473988.047 2  -1927773.732 1
  26158066.249    25004626.175 2  19484118.065 1
  23232918.689   -15658014.102 3 -12201034.943 2
 91  8  1  5  6 15.0050000  0  5 21 23 12 17 11
  22304332.539     -916489.528 4   -714135.966 3
  23875892.867      181455.947 3    141431.454 1
  25063914.615    -2462918.159 2  -1919147.865 1
  26168938.223    25061751.084 2  19528630.984 1
  23231766.887   -15664067.660 3 -12205751.988 2
 91  8  1  5  6 30.0050000  0  5 21 23 12 17 11
  22304579.565     -915177.740 3   -713113.775 3
  23882374.977      215510.494 3    167967.442 2
  25066061.724    -2451685.528 2  -1910395.117 1
  26179813.495    25118913.629 2  19573173.176 1
  23230648.363   -15669950.138 3 -12210335.716 2
 91  8  1  5  6 45.0050000  0  5 21 23 12 17 11
  22304838.282     -913808.838 3   -712047.097 3
  23888857.995      249594.529 3    194526.428 1
  25068228.622    -2440290.126 2  -1901515.579 1
  26190703.461    25176113.702 2  19617744.564 1
  23229561.302   -15675661.415 3 -12214786.048 2
 91  8  1  5  7  0.0050000  0  5 21 23 12 17 11
  22305114.082     -912382.846 4   -710935.925 3
  23895352.687      283708.109 3    221108.448 2
  25070428.205    -2428731.977 2  -1892509.205 1
  26201595.817    25233351.206 2  19662345.212 1
  23228506.035   -15681201.429 3 -12219102.925 2
 91  8  1  5  7 15.0050000  0  5 21 23 12 17 11
  22305395.903     -910898.404 4   -709779.202 3
  23901850.397      317852.453 3    247714.411 2
  25072661.362    -2417009.779 2  -1883375.014 1
  26212489.063    25290627.262 2  19706975.866 1
  23227484.342   -15686568.609 3 -12223285.139 2
 91  8  1  5  7 30.0050000  0  5 21 23 12 17 11
  22305688.194     -909358.701 4   -708579.415 3
  23908351.092      352024.312 3    274341.832 2
  25074911.306    -2405126.670 2  -1874115.382 1
  26223399.114    25347938.371 2  19751633.892 1
  23226495.037   -15691765.839 3 -12227334.915 2
 91  8  1  5  7 45.0050000  0  5 21 23 12 17 11
  22305992.491     -907762.607 4   -707335.689 3
  23914855.992      386224.690 3    300991.458 1
  25077212.501    -2393081.592 2  -1864729.589 1
  26234312.462    25405285.254 2  19796319.671 1
  23225539.585   -15696792.170 3 -12231251.525 2
 91  8  1  5  8  0.0050000  0  5 21 23 12 17 11
  22306306.072     -906110.871 4   -706048.597 3
  23921368.082      420452.985 3    327662.863 2
  25079535.299    -2380875.302 2  -1855218.176 1
  26245232.704    25462667.106 2  19841032.738 1
  23224617.132   -15701648.139 3 -12235035.385 2
 91  8  1  5  8 15.0050000  0  5 21 23 12 17 11
  22306631.937     -904398.654 4   -704714.377 3
  23927890.066      454713.845 3    354359.615 2
  25081890.171    -2368502.888 2  -1845577.355 1
  26256152.352    25520088.611 2  19885776.820 1
  23223726.141   -15706328.785 3 -12238682.621 2
 91  8  1  5  8 30.0050000  0  5 21 23 12 17 11
  22306968.011     -902631.732 4   -703337.538 3
  23934419.554      489001.543 3    381077.296 1
  25084272.318    -2355970.175 2  -1835811.579 1
  26267089.677    25577543.882 2  19930546.958 1
  23222868.742   -15710839.696 3 -12242197.615 2
 91  8  1  5  8 45.0050000  0  5 21 23 12 17 11
  22307315.166     -900807.248 4   -701915.854 3
  23940950.821      523318.993 3    407818.175 1
  25086683.554    -2343274.360 2  -1825918.745 1
  26278030.598    25635035.646 2  19975345.840 1
  23222043.417   -15715178.013 3 -12245578.111 2
 91  8  1  5  9  0.0050000  0  5 21 23 12 17 11
  22307672.825     -898926.514 4   -700450.343 3
  23947483.310      557664.927 3    434581.229 2
  25089127.754    -2330416.757 2  -1815899.770 1
  26288974.816    25692562.187 2  20020171.557 1
  23221248.664   -15719344.992 3 -12248825.081 2
 91  8  1  5  9 15.0050000  0  5 21 23 12 17 11
  22308042.456     -896987.891 4   -698939.719 3
  23954023.268      592040.833 3    461367.631 2
  25091605.248    -2317395.644 2  -1805753.417 1
  26299930.429    25750124.924 1  20065025.731 1
  23220489.283   -15723338.760 3 -12251937.102 2
 91  8  1  5  9 30.0050000  0  5 21 23 12 17 11
  22308424.406     -894990.643 4   -697383.417 3
  23960571.637      626447.199 3    488177.806 1
  25094116.910    -2304210.471 2  -1795479.249 1
  26310886.356    25807724.677 2  20109908.631 1
  23219758.695   -15727158.625 3 -12254913.597 2
 91  8  1  5  9 45.0050000  0  5 21 23 12 17 11
  22308811.731     -892937.372 4   -695783.454 3
  23967123.303      660881.294 3    515009.547 1
  25096655.551    -2290863.883 2  -1785079.315 1
  26321860.850    25865358.348 1  20154817.791 1
  23219068.870   -15730807.062 3 -12257756.507 2
 91  8  1  5 10  0.0050000  0  5 21 23 12 17 11
  22309214.046     -890828.331 4   -694140.023 3
  23973685.754      695343.004 3    541862.819 1
  25099230.767    -2277356.100 2  -1774553.785 1
  26332829.359    25923025.545 1  20199753.281 1
  23218404.226   -15734284.257 3 -12260466.000 2
 91  8  1  5 10 15.0050000  0  4 21 23 12 11
  22309627.459     -888661.822 4   -692451.815 3
  23980250.317      729834.191 3    568739.058 1
  25101834.165    -2263685.408 2  -1763901.301 1
  23217778.863   -15737588.198 3 -12263040.478 2
 91  8  1  5 10 30.0050000  0  4 21 23 12 11
  22310050.173     -886436.942 4   -690718.123 3
  23986815.473      764355.529 3    595638.794 1
  25104470.840    -2249850.976 2  -1753121.188 1
  23217184.072   -15740718.055 3 -12265479.330 2
 91  8  1  5 10 45.0050000  0  4 21 23 12 11
  22310484.265     -884154.117 4   -688939.279 3
  23993392.024      798906.657 3    622561.735 2
  25107131.196    -2235853.147 2  -1742213.772
  23216620.761   -15743674.030 3 -12267782.666 2
 91  8  1  5 11  0.0050000  0  4 21 23 12 11
  22310930.065     -881816.039 4   -687117.394 3
  23999972.169      833485.023 3    649505.924 2
  25109825.736    -2221694.638 2  -1731181.166 1
  23216089.228   -15746458.697 3 -12269952.524 2
 91  8  1  5 11 15.0050000  0  5 21 23 12 17 11
  22311386.057     -879419.323 4   -685249.795 3
  24006558.597      868093.785 3    676473.759 1
  25112549.942    -2207372.206 2  -1720020.802 1
  26387801.105       20152.45812     15696.202 1
  23215590.378   -15749068.669 3 -12271986.260 2
 91  8  1  5 11 30.0050000  0  4 21 23 12 11
  22311851.926     -876964.305 4   -683336.770 3
  24013150.434      902732.579 3    703465.028 1
  25115305.331    -2192886.095 2  -1708732.916 1
  23215128.995   -15751504.251 3 -12273884.100 2
 91  8  1  5 11 45.0050000  0  4 21 23 12 11
  22312330.986     -874454.555 4   -681381.113 3
  24019744.976      937397.923 3    730476.982 1
  25118087.105    -2178240.001 2  -1697320.423 1
  23214697.294   -15753768.956 3 -12275648.801 2
 91  8  1  5 12  0.0050000  0  4 21 23 12 11
  22312817.551     -871887.962 4   -679381.171 3
  24026346.411      972091.751 3    757511.147 2
  25120909.364    -2163431.710 2  -1685781.479 1
  23214300.371   -15755860.455 3 -12277278.519 2
 91  8  1  5 12 15.0050000  0  5 21 23 12 17 11
  22313318.808     -869264.747 4   -677337.109 3
  24032953.831     1006813.900 3    784567.341 2
  25123760.381    -2148461.530 2  -1674116.376 1
  26431900.283       43360.758 2     33780.807 1
  23213937.023   -15757778.792 3 -12278773.319 2
 91  8  1  5 12 30.0050000  0  5 21 23 12 17 11
  22313827.552     -866581.674 4   -675246.399 3
  24039568.458     1041567.522 3    811648.077 1
  25126636.299    -2133326.465 2  -1662322.833 1
  26442933.236      101368.868 2     78981.896 1
  23213605.154   -15759520.804 3 -12280130.735 2
 91  8  1  5 12 45.0050000  0  5 21 23 12 17 11
  22314350.395     -863840.738 4   -673110.590 3
  24046185.476     1076350.563 3    838751.757 2
  25129555.074    -2118028.640 2  -1650402.416 1
  26453980.899      159410.142 2    124208.822 1
  23213302.969   -15761088.620 3 -12281352.392 2
 91  8  1  5 13  0.0050000  0  5 21 23 12 17 11
  22314882.836     -861043.743 4   -670931.106 3
  24052815.983     1111161.219 3    865876.933 1
  25132490.341    -2102569.772 2  -1638356.526 1
  26465018.947      217483.060 2    169460.374 1
  23213038.843   -15762483.815 3 -12282439.545 2
 91  8  1  5 13 15.0050000  0  5 21 23 12 17 11
  22315422.746     -858188.294 4   -668706.062 3
  24059442.895     1146001.760 3    893025.384 2
  25135470.873    -2086947.501 2  -1626183.379 1
  26476075.893      275589.734 2    214738.313 1
  23212809.215   -15763703.917 3 -12283390.247 2
 91  8  1  5 13 30.0050000  0  5 21 23 12 17 11
  22315980.368     -855278.172 4   -666438.413 3
  24066076.403     1180868.669 3    920194.405 2
  25138471.193    -2071165.616 2  -1613885.786 1
  26487142.437      333725.977 2    260039.162 1
  23212606.845   -15764752.613 3 -12284207.417 2
